[[{"header":{"parameterUnit":"m.s-1","parameterCategory":1,"la1":31.0,"la2":29.5877,"lo1":-88.7671,"lo2":-86.6584,"dy":0.0162,"dx":0.0185,"nx":115,"ny":88,"refTime":"2024-08-07T18:00:00:Z","depth":0,"parameterNumber":2,"parameterNumberName":"U-component_of_WINDS"},"data":[0.0,0.0,0.0,0.0,0.0,0.0,0.0,0.0,0.0,0.0,0.0,0.0,0.0,0.0,0.0,0.0,0.0,0.0,0.0,0.0,0.0,0.0,0.0,0.0,0.0,0.0,0.0,0.0,0.0,0.0,0.0,0.0,0.0,0.0,0.0,0.0,0.0,0.0,0.0,0.0,0.0,0.0,0.0,0.0,0.0,0.0,0.0,0.0,0.0,0.0,0.0,0.0,0.0,0.0,0.0,0.0,0.0,0.0,0.0,0.0,0.0,0.0,0.0,0.0,0.0,0.0,0.0,0.0,0.0,0.0,0.0,0.0,0.0,0.0,0.0,0.0,0.0,0.0,0.0,0.0,0.0,0.0,0.0,0.0,0.0,0.0,0.0,0.0,0.0,0.0,0.0,0.0,0.0,0.0,0.0,0.0,0.0,0.0,0.0,0.0,0.0,0.0,0.0,0.0,0.0,0.0,0.0,0.0,0.0,0.0,0.0,0.0,0.0,0.0,0.0,0.0,0.0,0.0,0.0,0.0,0.0,0.0,0.0,0.0,0.0,0.0,0.0,0.0,0.0,0.0,0.0,0.0,0.0,0.0,0.0,0.0,0.0,0.0,0.0,0.0,0.0,0.0,0.0,0.0,0.0,0.0,0.0,0.0,0.0,0.0,0.0,0.0,0.0,0.0,0.0,0.0,0.0,0.0,0.0,0.0,0.0,0.0,0.0,0.0,0.0,0.0,0.0,0.0,0.0,0.0,0.0,0.0,0.0,0.0,0.0,0.0,0.0,0.0,0.0,0.0,0.0,0.0,0.0,0.0,0.0,0.0,0.0,0.0,0.0,0.0,0.0,0.0,0.0,0.0,0.0,0.0,0.0,0.0,0.0,0.0,0.0,0.0,0.0,0.0,0.0,0.0,0.0,0.0,0.0,0.0,0.0,0.0,0.0,0.0,0.0,0.0,0.0,0.0,0.0,0.0,0.0,0.0,0.0,0.0,0.0,0.0,0.0,0.0,0.0,0.0,0.0,0.0,0.0,0.0,0.0,0.0,0.0,0.0,0.0,0.0,0.0,0.0,0.0,0.0,0.0,0.0,0.0,0.0,0.0,0.0,0.0,0.0,0.0,0.0,0.0,0.0,0.0,0.0,0.0,0.0,0.0,0.0,0.0,0.0,0.0,0.0,0.0,0.0,0.0,0.0,0.0,0.0,0.0,0.0,0.0,0.0,0.0,0.0,0.0,0.0,0.0,0.0,0.0,0.0,0.0,0.0,0.0,0.0,0.0,0.0,0.0,0.0,0.0,0.0,0.0,0.0,0.0,0.0,0.0,0.0,0.0,0.0,0.0,0.0,0.0,0.0,0.0,0.0,0.0,0.0,0.0,0.0,0.0,0.0,0.0,0.0,0.0,0.0,0.0,0.0,0.0,0.0,0.0,0.0,0.0,0.0,0.0,0.0,0.0,0.0,0.0,0.0,0.0,0.0,0.0,0.0,0.0,0.0,0.0,0.0,0.0,0.0,0.0,0.0,0.0,0.0,0.0,0.0,0.0,0.0,0.0,0.0,0.0,0.0,0.0,0.0,0.0,0.0,0.0,0.0,0.0,0.0,0.0,0.0,0.0,0.0,0.0,0.0,0.0,0.0,0.0,0.0,0.0,0.0,0.0,0.0,0.0,0.0,0.0,0.0,0.0,0.0,0.0,0.0,0.0,0.0,0.0,0.0,0.0,0.0,0.0,0.0,0.0,0.0,0.0,0.0,0.0,0.0,0.0,0.0,0.0,0.0,0.0,0.0,0.0,0.0,0.0,0.0,0.0,0.0,0.0,0.0,0.0,0.0,0.0,0.0,0.0,0.0,0.0,0.0,0.0,0.0,0.0,0.0,0.0,0.0,0.0,0.0,0.0,0.0,0.0,0.0,0.0,0.0,0.0,0.0,0.0,0.0,0.0,0.0,0.0,0.0,0.0,0.0,0.0,0.0,0.0,0.0,0.0,0.0,0.0,0.0,0.0,0.0,0.0,0.0,0.0,0.0,0.0,0.0,0.0,0.0,0.0,0.0,0.0,0.0,0.0,0.0,0.0,0.0,0.0,0.0,0.0,0.0,0.0,0.0,0.0,0.0,0.0,0.0,0.0,0.0,0.0,0.0,0.0,0.0,0.0,0.0,0.0,0.0,0.0,0.0,0.0,0.0,0.0,0.0,0.0,0.0,0.0,0.0,0.0,0.0,0.0,0.0,0.0,0.0,0.0,0.0,0.0,0.0,0.0,0.0,0.0,0.0,0.0,0.0,0.0,0.0,0.0,0.0,0.0,0.0,0.0,0.0,0.0,0.0,0.0,0.0,0.0,0.0,0.0,0.0,0.0,0.0,0.0,0.0,0.0,0.0,0.0,0.0,0.0,0.0,0.0,0.0,0.0,0.0,0.0,0.0,0.0,0.0,0.0,0.0,0.0,0.0,0.0,0.0,0.0,0.0,0.0,0.0,0.0,0.0,0.0,0.0,0.0,0.0,0.0,0.0,0.0,0.0,0.0,0.0,0.0,0.0,0.0,0.0,0.0,0.0,0.0,0.0,0.0,0.0,0.0,0.0,0.0,0.0,0.0,0.0,0.0,0.0,0.0,0.0,0.0,0.0,0.0,0.0,0.0,0.0,0.0,0.0,0.0,0.0,0.0,0.0,0.0,0.0,0.0,0.0,0.0,0.0,0.0,0.0,0.0,0.0,0.0,0.0,0.0,0.0,0.0,0.0,0.0,0.0,0.0,0.0,0.0,0.0,0.0,0.0,0.0,0.0,0.0,0.0,0.0,0.0,0.0,0.0,0.0,0.0,0.0,0.0,0.0,0.0,0.0,0.0,0.0,0.0,0.0,0.0,0.0,0.0,0.0,0.0,0.0,0.0,0.0,0.0,0.0,0.0,0.0,0.0,0.0,0.0,0.0,0.0,0.0,0.0,0.0,0.0,0.0,0.0,0.0,0.0,0.0,0.0,0.0,0.0,0.0,0.0,0.0,0.0,0.0,0.0,0.0,0.0,0.0,0.0,0.0,0.0,0.0,0.0,0.0,0.0,0.0,0.0,0.0,0.0,0.0,0.0,0.0,0.0,0.0,0.0,0.0,0.0,0.0,0.0,0.0,0.0,0.0,0.0,0.0,0.0,0.0,0.0,0.0,0.0,0.0,0.0,0.0,0.0,0.0,0.0,0.0,0.0,0.0,0.0,0.0,0.0,0.0,0.0,0.0,0.0,0.0,0.0,0.0,0.0,0.0,0.0,0.0,0.0,0.0,0.0,0.0,0.0,0.0,0.0,0.0,0.0,0.0,0.0,0.0,0.0,0.0,0.0,0.0,0.0,0.0,0.0,0.0,0.0,0.0,0.0,0.0,0.0,0.0,0.0,0.0,0.0,0.0,0.0,0.0,0.0,0.0,0.0,0.0,0.0,0.0,0.0,0.0,0.0,0.0,0.0,0.0,0.0,0.0,0.0,0.0,0.0,0.0,0.0,0.0,0.0,0.0,0.0,0.0,0.0,0.0,0.0,0.0,0.0,0.0,0.0,0.0,0.0,0.0,0.0,0.0,0.0,0.0,0.0,0.0,0.0,0.0,0.0,0.0,0.0,0.0,0.0,0.0,0.0,0.0,0.0,0.0,0.0,0.0,0.0,0.0,0.0,0.0,0.0,0.0,0.0,0.0,0.0,0.0,0.0,0.0,0.0,0.0,0.0,0.0,0.0,0.0,0.0,0.0,0.0,0.0,0.0,0.0,0.0,0.0,0.0,0.0,0.0,0.0,0.0,0.0,0.0,0.0,0.0,0.0,0.0,0.0,0.0,0.0,0.0,0.0,0.0,0.0,0.0,0.0,0.0,0.0,0.0,0.0,0.0,0.0,0.0,0.0,0.0,0.0,0.0,0.0,0.0,0.0,0.0,0.0,0.0,0.0,0.0,0.0,0.0,0.0,0.0,0.0,0.0,0.0,0.0,0.0,0.0,0.0,0.0,0.0,0.0,0.0,0.0,0.0,0.0,0.0,0.0,0.0,0.0,0.0,0.0,0.0,0.0,0.0,0.0,0.0,0.0,0.0,0.0,0.0,0.0,0.0,0.0,0.0,0.0,0.0,0.0,0.0,0.0,0.0,0.0,0.0,0.0,0.0,0.0,0.0,0.0,0.0,0.0,0.0,0.0,0.0,0.0,0.0,0.0,0.0,0.0,0.0,0.0,0.0,0.0,0.0,0.0,0.0,0.0,0.0,0.0,0.0,0.0,0.0,0.0,0.0,0.0,0.7196,0.0,0.0,0.0,0.0,0.0,0.0,0.0,0.0,0.0,0.0,0.0,0.0,0.0,0.0,0.0,0.0,0.0,0.0,0.0,0.0,0.0,0.0,0.0,0.0,0.0,0.0,0.0,0.0,0.0,0.0,0.0,0.0,0.0,0.0,0.0,0.0,0.0,0.0,0.0,0.0,0.0,0.0,0.0,0.0,0.0,0.0,0.0,0.0,0.0,0.0,0.0,0.0,0.0,0.0,0.0,0.0,0.0,0.0,0.0,0.0,0.0,0.0,0.0,0.0,0.0,0.0,0.0,0.0,0.0,0.0,0.0,0.0,0.0,0.0,0.0,0.0,0.0,0.0,0.0,0.0,0.0,0.0,0.0,0.0,0.0,0.0,0.0,0.0,0.0,0.0,0.0,0.0,0.0,0.0,0.0,0.0,0.0,0.0,0.0,0.0,0.0,0.0,0.0,0.0,0.0,0.0,0.0,0.0,0.0,0.0,0.8435,0.8026,0.7756,0.7309,0.6739,0.0,0.0,0.0,0.0,0.0,0.0,0.0,0.0,0.0,0.0,0.0,0.0,0.0,0.0,0.0,0.0,0.0,0.0,0.0,0.0,0.0,0.0,0.0,0.0,0.0,0.0,0.0,0.0,0.0,0.0,0.0,0.0,0.0,0.0,0.0,0.0,0.0,0.0,0.0,0.0,0.0,0.0,0.0,0.0,0.0,0.0,0.0,0.0,0.0,0.0,0.0,0.0,0.0,0.0,0.0,0.0,0.0,0.0,0.0,0.0,0.0,0.0,0.0,0.0,0.0,0.0,0.0,0.0,0.0,0.0,0.0,0.0,0.0,0.0,0.0,0.0,0.0,0.0,0.0,0.0,0.0,0.0,0.0,0.0,0.0,0.0,0.0,0.0,0.0,0.0,0.0,0.0,0.0,0.0,0.0,0.0,0.0,0.0,0.0,0.0,0.0,0.0,0.0,0.0,0.0,0.0,0.0,0.0,0.0,0.0,0.0,0.0,0.7039,0.674,0.6314,0.0,0.0,0.0,0.0,0.0,0.0,0.0,0.0,0.0,0.0,0.0,0.0,0.0,0.0,0.0,0.0,0.0,0.0,0.0,0.0,0.0,0.0,0.0,0.0,0.0,0.0,0.0,0.0,0.0,0.0,0.0,0.0,0.0,0.0,0.0,0.0,0.0,0.0,0.0,0.0,0.0,0.0,0.0,0.0,0.0,0.0,0.0,0.0,0.0,0.0,0.0,0.0,0.0,0.0,0.0,0.0,0.0,0.0,0.0,0.0,0.0,0.0,0.0,0.0,0.0,0.0,0.0,0.0,0.0,0.0,0.0,0.0,0.0,0.0,0.0,0.0,0.0,0.0,0.0,0.0,0.0,0.0,0.0,0.0,0.0,0.0,0.0,0.0,0.0,0.0,0.0,0.0,0.0,0.0,0.0,0.0,0.0,0.0,0.0,0.0,0.0,0.0,0.0,0.0,0.0,0.0,0.0,0.0,0.0,0.0,0.7091,0.4874,0.6085,0.0,0.5332,0.0,0.0,0.0,0.0,0.0,0.0,0.0,0.0,0.0,0.0,0.0,0.0,0.0,0.0,0.0,0.0,0.0,0.0,0.0,0.0,0.0,0.0,0.0,0.0,0.0,0.0,0.0,0.0,0.0,0.0,0.0,0.0,0.0,0.0,0.0,0.0,0.0,0.0,0.0,0.0,0.0,0.0,0.0,0.0,0.0,0.0,0.0,0.0,0.0,0.0,0.0,0.0,0.0,0.0,0.0,0.0,0.0,0.0,0.0,0.0,0.0,0.0,0.0,0.0,0.0,0.0,0.0,0.0,0.0,0.0,0.0,0.0,0.0,0.0,0.0,0.0,0.0,0.0,0.0,0.0,0.0,0.0,0.0,0.0,0.0,0.0,0.0,0.0,0.0,0.0,0.0,0.0,0.0,0.0,0.0,0.0,0.0,0.0,0.0,0.0,0.0,0.0,0.0,0.0,0.0,0.0,0.0,0.0,0.0,0.0,0.6932,0.5297,0.5588,0.5581,0.0,0.0,0.0,0.0,0.0,0.0,0.0,0.0,0.0,0.0,0.0,0.0,0.0,0.0,0.0,0.0,0.0,0.0,0.0,0.0,0.0,0.0,0.0,0.0,0.0,0.0,0.0,0.0,0.0,0.0,0.0,0.0,0.0,0.0,0.0,0.0,0.0,0.0,0.0,0.0,0.0,0.0,0.0,0.0,0.0,0.0,0.0,0.0,0.0,0.0,0.0,0.0,0.0,0.0,0.0,0.0,0.0,0.0,0.0,0.0,0.0,0.0,0.0,0.0,0.0,0.0,0.0,0.0,0.0,0.0,0.0,0.0,0.0,0.0,0.0,0.0,0.0,0.0,0.0,0.0,0.0,0.0,0.0,0.0,0.0,0.0,0.0,0.0,0.0,0.0,0.0,0.0,0.0,0.0,0.0,0.0,0.0,0.0,0.0,0.0,0.0,0.0,0.0,0.0,0.0,0.0,0.0,0.0,0.0,0.0,0.7899,0.6858,0.5821,0.4844,0.4611,0.536,0.0,0.0,0.0,0.0,0.0,0.0,0.0,0.0,0.0,0.0,0.0,0.0,0.0,0.0,0.0,0.0,0.0,0.0,0.0,0.0,0.0,0.0,0.0,0.0,0.0,0.0,0.0,0.0,0.0,0.0,0.0,0.0,0.0,0.0,0.0,0.0,0.0,0.0,0.0,0.0,0.0,0.0,0.0,0.0,0.0,0.0,0.0,0.0,0.0,0.0,0.0,0.0,0.0,0.0,0.0,0.0,0.0,0.0,0.0,0.0,0.0,0.0,0.0,0.0,0.0,0.0,0.0,0.0,0.0,0.0,0.0,0.0,0.0,0.0,0.0,0.0,0.0,0.0,0.0,0.0,0.0,0.0,0.0,0.0,0.0,0.0,0.0,0.0,0.0,0.0,0.0,0.0,0.0,0.0,0.0,0.0,0.0,0.0,0.0,0.0,0.0,0.0,0.0,0.0,0.0,0.0,0.0,0.0,0.0,0.7847,0.6876,0.5728,0.3543,0.3275,0.0,0.0,0.0,0.0,0.0,0.0,0.0,0.0,0.0,0.0,0.0,0.0,0.0,0.0,0.0,0.0,0.0,0.0,0.0,0.0,0.0,0.0,0.0,0.0,0.0,0.0,0.0,0.0,0.0,0.0,0.0,0.0,0.0,0.0,0.0,0.0,0.0,0.0,0.0,0.0,0.0,0.0,0.0,0.0,0.0,0.0,0.0,0.0,0.0,0.0,0.0,0.0,0.0,0.0,0.0,0.0,0.0,0.0,0.0,0.0,0.0,0.0,0.0,0.0,0.0,0.0,0.0,0.0,0.0,0.0,0.0,0.0,0.0,0.0,0.0,0.0,0.0,0.0,0.0,0.0,0.0,0.0,0.0,0.0,0.0,0.0,0.0,0.0,0.0,0.0,0.0,0.0,0.0,0.0,0.0,0.0,0.0,0.0,0.0,0.0,0.0,0.0,0.0,0.0,0.0,0.0,0.0,0.0,0.0,0.6206,0.6228,0.5012,0.2247,0.2701,0.2717,0.0,0.0,0.0,0.0,0.0,0.0,0.0,0.0,0.0,0.0,0.0,0.0,0.0,0.0,0.0,0.0,0.0,0.0,0.0,0.0,0.0,0.0,0.0,0.0,0.0,0.0,0.0,0.0,0.0,0.0,0.0,0.0,0.0,0.0,0.0,0.0,0.0,0.0,0.0,0.0,0.0,0.0,0.0,0.0,0.0,0.0,0.0,0.0,0.0,0.0,0.0,0.0,0.0,0.0,0.0,0.0,0.0,0.0,0.0,0.0,0.0,0.0,0.0,0.0,0.0,0.0,0.0,0.0,0.0,0.0,0.0,0.0,0.0,0.0,0.0,0.0,0.0,0.0,0.0,0.0,0.0,0.0,0.0,0.0,0.0,0.0,0.0,0.0,0.0,0.0,0.0,0.0,0.0,0.0,0.0,0.0,0.0,0.0,0.0,0.0,0.0,0.0,0.0,0.0,0.0,0.0,0.0,0.0,0.0,0.5306,0.0,0.268,0.0,0.0638,0.0669,0.0,0.0,0.0,0.0,0.0,0.0,0.0,0.0,0.0,0.0,0.0,0.0,0.0,0.0,0.0,0.0,0.0,0.0,0.0,0.0,0.0,0.0,0.0,0.0,0.0,0.0,0.0,0.0,0.0,0.0,0.0,0.0,0.0,0.0,0.0,0.0,0.0,0.0,0.0,0.0,0.0,0.0,0.0,0.0,0.0,0.0,0.0,0.0,0.0,0.0,0.0,0.0,0.0,0.0,0.0,0.0,0.0,0.0,0.0,0.0,0.0,0.0,0.0,0.0,0.0,0.0,0.0,0.0,0.0,0.0,0.0,0.0,0.0,0.0,0.0,0.0,0.0,0.0,0.0,0.0,0.0,0.0,0.0,0.0,0.0,0.0,0.0,0.0,0.0,0.0,0.0,0.0,0.0,0.0,0.0,0.0,0.0,0.0,0.0,0.0,0.0,0.0,0.0,0.0,0.0,0.0,0.0,0.0,0.9336,0.6502,0.2233,0.0078,-0.0147,-0.2759,-0.2969,0.0,0.0,0.0,0.0,0.0,0.0,0.0,0.0,0.0,0.0,0.0,0.0,0.0,0.0,0.0,0.0,0.0,0.0,0.0,0.0,0.0,0.0,0.0,0.0,0.0,0.0,0.0,0.0,0.0,0.0,0.0,0.0,0.0,0.0,0.0,0.0,0.0,0.0,0.0,0.0,0.0,0.0,0.0,0.0,0.0,0.0,0.0,0.0,0.0,0.0,0.0,0.0,0.0,0.0,0.0,0.0,0.0,0.0,0.0,0.0,0.0,0.0,0.0,0.0,0.0,0.0,0.0,0.0,0.0,0.0,0.0,0.0,0.0,0.0,0.0,0.0,0.0,0.0,0.0,0.0,0.0,0.0,0.0,0.0,0.0,0.0,0.0,0.0,0.0,0.0,0.0,0.0,0.0,0.0,0.0,0.0,0.0,0.0,0.0,0.0,0.0,0.0,0.0,0.0,0.0,0.0,0.0,0.0,0.0,0.4132,0.0788,-0.1447,-0.2418,-0.2765,-0.3017,0.0,0.0,0.0,0.0,0.0,0.0,0.0,0.0,0.0,0.0,0.0,0.0,0.0,0.0,0.0,0.0,0.0,0.0,0.0,0.0,0.0,0.0,0.0,0.0,0.0,0.0,0.0,0.0,0.0,0.0,0.0,0.0,0.0,0.0,0.0,0.0,0.0,0.0,0.0,0.0,0.0,0.0,0.0,0.0,0.0,0.0,0.0,0.0,0.0,0.0,0.0,0.0,0.0,0.0,0.0,0.0,0.0,0.0,0.0,0.0,0.0,0.0,0.0,0.0,0.0,0.0,0.0,0.0,0.0,0.0,0.0,0.0,0.0,0.0,0.0,0.0,0.0,0.0,0.0,0.0,0.0,0.0,0.0,0.0,0.0,0.0,0.0,0.0,0.0,0.0,0.0,0.0,0.0,0.0,0.0,0.0,0.0,0.0,0.0,0.0,0.0,0.0,0.0,0.0,0.0,0.0,0.0,0.0,0.0,0.171,-0.3448,-0.5975,-0.5916,-0.5297,-0.5103,-0.5245,0.0,0.0,0.0,0.0,0.0,0.0,0.0,0.0,0.0,0.0,0.0,0.0,0.0,0.0,0.0,0.0,0.0,0.0,0.0,0.0,0.0,0.0,0.0,0.0,0.0,0.0,0.0,0.0,0.0,0.0,0.0,0.0,0.0,0.0,0.0,0.0,0.0,0.0,0.0,0.0,0.0,0.0,0.0,0.0,0.0,0.0,0.0,0.0,0.0,0.0,0.0,0.0,0.0,0.0,0.0,0.0,0.0,0.0,0.0,0.0,0.0,0.0,0.0,0.0,0.0,0.0,0.0,0.0,0.0,0.0,0.0,0.0,0.0,0.0,0.0,0.0,0.0,0.0,0.0,0.0,0.0,0.0,0.0,0.0,0.0,0.0,0.0,0.0,0.0,0.0,0.0,0.0,0.0,0.0,0.0,0.0,0.0,0.0,0.0,0.0,0.0,0.0,0.0,0.0,0.0,0.0,0.0,0.0,-0.0464,-0.9545,-1.282,-0.9888,-0.9755,-0.8838,0.0,0.0,0.0,0.0,0.0,0.0,0.0,0.0,0.0,0.0,0.0,0.0,0.0,0.0,0.0,0.0,0.0,0.0,0.0,0.0,0.0,0.0,0.0,0.0,0.0,0.0,0.0,0.0,0.0,0.0,0.0,0.0,0.0,0.0,0.0,0.0,0.0,0.0,0.0,0.0,0.0,0.0,0.0,0.0,0.0,0.0,0.0,0.0,0.0,0.0,0.0,0.0,0.0,0.0,0.0,0.0,0.0,0.0,0.0,0.0,0.0,0.0,0.0,0.0,0.0,0.0,0.0,0.0,0.0,0.0,0.0,0.0,0.0,0.0,0.0,0.0,0.0,0.0,0.0,0.0,0.0,0.0,0.0,0.0,0.0,0.0,0.0,0.0,0.0,0.0,0.0,0.0,0.0,0.0,0.0,0.0,0.0,0.0,0.0,0.0,0.0,0.0,0.0,0.0,0.0,0.0,0.0,0.0,0.0,-0.1373,-1.1746,-1.5476,-1.2043,-1.1487,-1.0647,0.0,0.0,0.0,0.0,0.0,0.0,0.0,0.0,0.0,0.0,0.0,0.0,0.0,0.0,0.0,0.0,0.0,0.0,0.0,0.0,0.0,0.0,0.0,0.0,0.0,0.0,0.0,0.0,0.0,0.0,0.0,0.0,0.0,0.0,0.0,0.0,0.0,0.0,0.0,0.0,0.0,0.0,0.0,0.0,0.0,0.0,0.0,0.0,0.0,0.0,0.0,0.0,0.0,0.0,0.0,0.0,0.0,0.0,0.0,0.0,0.0,0.0,0.0,0.0,0.0,0.0,0.0,0.0,0.0,0.0,0.0,0.0,0.0,0.0,0.0,0.0,0.0,0.0,0.0,0.0,0.0,0.0,0.0,0.0,0.0,0.0,0.0,0.0,0.0,0.0,0.0,0.0,0.0,0.0,0.0,0.0,0.0,0.0,0.0,0.0,0.0,0.0,0.0,0.0,0.0,0.0,0.0,0.0,0.5306,-0.2239,-1.2431,-1.69,-1.4905,-1.419,-1.3138,0.0,0.0,0.0,0.0,0.0,0.0,0.0,0.0,0.0,0.0,0.0,0.0,0.0,0.0,0.0,0.0,0.0,0.0,0.0,0.0,0.0,0.0,0.0,0.0,0.0,0.0,0.0,0.0,0.0,0.0,0.0,0.0,0.0,0.0,0.0,0.0,0.0,0.0,0.0,0.0,0.0,0.0,0.0,0.0,0.0,0.0,0.0,0.0,0.0,0.0,0.0,0.0,0.0,0.0,0.0,0.0,0.0,0.0,0.0,0.0,0.0,0.0,0.0,0.0,0.0,0.0,0.0,0.0,0.0,0.0,0.0,0.0,0.0,0.0,0.0,0.0,0.0,0.0,0.0,0.0,0.0,0.0,0.0,0.0,0.0,0.0,0.0,0.0,0.0,0.0,0.0,0.0,0.0,0.0,0.0,0.0,0.0,0.0,0.0,0.0,0.0,0.0,0.0,0.0,0.0,0.0,0.0,0.0,0.1551,-0.3475,-1.2565,-1.7497,-1.7879,-1.7103,-1.585,0.0,0.0,0.0,0.0,0.0,0.0,0.0,0.0,0.0,0.0,0.0,0.0,0.0,0.0,0.0,0.0,0.0,0.0,0.0,0.0,0.0,0.0,0.0,0.0,0.0,0.0,0.0,0.0,0.0,0.0,0.0,0.0,0.0,0.0,0.0,0.0,0.0,0.0,0.0,0.0,0.0,0.0,0.0,0.0,0.0,0.0,0.0,0.0,0.0,0.0,0.0,0.0,0.0,0.0,0.0,0.0,0.0,0.0,0.0,0.0,0.0,0.0,0.0,0.0,0.0,0.0,0.0,0.0,0.0,0.0,0.0,0.0,0.0,0.0,0.0,0.0,0.0,0.0,0.0,0.0,0.0,0.0,0.0,0.0,0.0,0.0,0.0,0.0,0.0,0.0,0.0,0.0,0.0,0.0,0.0,0.0,0.0,0.0,0.0,0.0,0.0,0.0,0.0,0.0,0.0,0.0,0.0,0.0,-0.1547,-0.6763,-1.3696,-1.7761,-1.8763,-1.8692,-1.7778,0.0,0.0,0.0,0.0,0.0,0.0,0.0,0.0,0.0,0.0,0.0,0.0,0.0,0.0,0.0,0.0,0.0,0.0,0.0,0.0,0.0,0.0,0.0,0.0,0.0,0.0,0.0,0.0,0.0,0.0,0.0,0.0,0.0,0.0,0.0,0.0,0.0,0.0,0.0,0.0,0.0,0.0,0.0,0.0,0.0,0.0,0.0,0.0,1.6915,0.0,0.0,0.0,0.0,0.0,0.0,0.0,0.0,0.0,0.0,0.0,0.0,0.0,0.0,0.0,0.0,0.0,0.0,0.0,0.0,0.0,0.0,0.0,0.0,0.0,0.0,0.0,0.0,0.0,0.0,0.0,0.0,0.0,0.0,0.0,0.0,0.0,0.0,0.0,0.0,0.0,0.0,0.0,0.0,0.0,0.0,0.0,0.0,0.0,0.0,0.0,0.0,0.0,0.0,0.0,0.0,0.0,0.0,0.0,-0.8479,-1.2221,-1.5889,-1.8151,-1.8957,-2.0002,-1.9421,0.0,0.0,0.0,0.0,0.0,0.0,0.0,0.0,0.0,0.0,0.0,0.0,0.0,0.0,0.0,0.0,0.0,0.0,0.0,0.0,0.0,0.0,0.0,0.0,0.0,0.0,0.0,0.0,0.0,0.0,0.0,0.0,0.0,0.0,0.0,0.0,0.0,0.0,0.0,0.0,0.0,0.0,0.0,0.0,0.0,0.0,0.0,0.0,0.0,0.0,0.0,0.0,0.0,0.0,0.0,0.0,0.0,0.0,0.0,0.0,0.0,0.0,0.0,0.0,0.0,0.0,0.0,0.0,0.0,0.0,0.0,0.0,0.0,0.0,0.0,0.0,0.0,0.0,0.0,0.0,0.0,0.0,0.0,0.0,0.0,0.0,0.0,0.0,0.0,0.0,0.0,0.0,0.0,0.0,0.0,0.0,0.0,0.0,0.0,0.0,0.0,0.0,0.0,0.0,0.0,0.0,0.0,-0.4994,-1.5128,-1.7217,-1.8046,-1.8707,-1.9292,-2.1028,-2.0576,-1.7644,0.0,0.0,0.0,0.0,0.0,0.0,0.0,0.0,0.0,0.0,0.0,0.0,0.0,0.0,0.0,0.0,0.0,0.0,0.0,0.0,0.0,0.0,0.0,0.0,0.0,0.0,0.0,0.0,0.0,0.0,0.0,0.0,0.0,0.0,0.0,0.0,0.0,0.0,1.1563,1.1489,0.0,0.0,0.0,0.0,0.0,0.0,0.0,0.0,1.685,0.0,0.0,0.0,0.0,0.0,0.0,0.0,0.0,0.0,0.0,0.0,0.0,0.0,0.0,0.0,0.0,0.0,0.0,0.0,0.0,0.0,0.0,0.0,0.0,0.0,0.0,0.0,0.0,0.0,0.0,0.0,0.0,0.0,0.0,0.0,0.0,0.0,0.0,0.0,0.0,0.0,0.0,0.0,0.0,0.0,0.0,0.0,0.0,0.0,0.0,0.0,0.0,0.0,0.0,0.0,0.0,1.2933,-0.4811,-1.5141,-1.7211,-1.7994,-1.9039,-2.0333,-2.1431,-2.072,-1.8124,0.0,0.0,0.0,0.0,0.0,0.0,0.0,0.0,0.0,0.0,0.0,0.0,0.0,0.0,0.0,0.0,0.0,0.0,0.0,0.0,0.0,0.0,0.0,0.0,0.0,0.0,0.0,0.0,0.0,0.0,0.0,0.0,0.0,0.0,0.0,0.0,0.0,0.0,0.0,1.272,1.2313,0.0,0.0,0.0,0.0,0.0,0.0,0.0,0.0,1.3523,0.0,0.0,0.0,0.0,0.0,0.0,0.0,0.0,0.0,0.0,0.0,0.0,0.0,0.0,0.0,0.0,0.0,0.0,0.0,0.0,0.0,0.0,0.0,0.0,0.0,0.0,0.0,0.0,0.0,0.0,0.0,0.0,0.0,0.0,0.0,0.0,0.0,0.0,0.0,0.0,0.0,0.0,0.0,0.0,0.0,0.0,0.0,0.0,0.0,0.0,0.0,0.0,0.0,0.0,0.0,0.9105,-0.3542,-1.2632,-1.71,-1.7631,-1.8709,-2.0547,-2.0851,-2.0128,0.0,0.0,0.0,0.0,0.0,0.0,0.0,0.0,0.0,0.0,0.0,0.0,0.0,0.0,0.0,0.0,0.0,0.0,0.0,0.0,0.0,0.0,0.0,0.0,0.0,0.0,0.0,0.0,0.0,0.0,0.0,0.0,0.0,0.0,0.0,0.0,0.0,0.0,0.0,0.0,1.1832,1.1435,1.188,0.0,0.0,0.0,0.0,0.0,0.0,1.1792,1.0751,0.0,0.0,0.0,0.0,0.0,0.0,0.0,0.0,0.0,0.0,0.0,0.0,0.0,0.0,0.0,0.0,0.0,0.0,0.0,0.0,0.0,0.0,0.0,0.0,0.0,0.0,0.0,0.0,0.0,0.0,0.0,0.0,0.0,0.0,0.0,0.0,0.0,0.0,0.0,0.0,0.0,0.0,0.0,0.0,0.0,0.0,0.0,0.0,0.0,0.0,0.0,0.0,0.0,0.0,0.0,0.673,-0.2838,-1.0939,-1.702,-1.7302,-1.8381,-2.045,-2.0256,-1.9479,0.0,0.0,0.0,0.0,0.0,0.0,0.0,0.0,0.0,0.0,0.0,0.0,0.0,0.0,0.0,0.0,0.0,0.0,0.0,0.0,0.0,0.0,0.0,0.0,0.0,0.0,0.0,0.0,0.0,0.0,0.0,0.0,0.0,0.0,0.0,0.0,0.0,0.0,0.0,0.0,0.0,1.0543,1.0905,0.9714,0.0,0.0,0.0,0.0,1.0763,0.8084,0.0,0.0,0.0,0.0,0.0,0.0,0.0,0.0,0.0,0.0,0.0,0.0,0.0,0.0,0.0,0.0,0.0,0.0,0.0,0.0,0.0,0.0,0.0,0.0,0.0,0.0,0.0,0.0,0.0,0.0,0.0,0.0,0.0,0.0,0.0,0.0,0.0,0.0,0.0,0.0,0.0,0.0,0.0,0.0,0.0,0.0,0.0,0.0,0.0,0.0,0.0,0.0,0.0,0.0,0.0,0.0,0.792,-0.4318,-1.3013,-1.7072,-1.7335,-1.8381,-2.0489,-2.0115,-1.9147,0.0,0.0,0.0,0.0,0.0,0.0,0.0,0.0,0.0,0.0,0.0,0.0,0.0,0.0,0.0,0.0,0.0,0.0,0.0,0.0,0.0,0.0,0.0,0.0,0.0,0.0,0.0,0.0,0.0,0.0,0.0,0.0,0.0,0.0,0.0,0.0,0.0,0.0,0.0,0.0,0.0,1.123,1.0174,0.9368,0.9018,0.0,0.0,0.4793,0.3001,0.1362,0.0,0.0,0.0,0.0,0.0,0.0,0.0,0.0,0.0,0.0,0.0,0.0,0.0,0.0,0.0,0.0,0.0,0.0,0.0,0.0,0.0,0.0,0.0,0.0,0.0,0.0,0.0,0.0,0.0,0.0,0.0,0.0,0.0,0.0,0.0,0.0,0.0,0.0,0.0,0.0,0.0,0.0,0.0,0.0,0.0,0.0,0.0,0.0,0.0,0.0,0.0,0.0,0.0,0.0,0.0,0.0727,0.0496,-0.7323,-1.34,-1.7155,-1.7318,-1.8381,-2.0566,-1.9434,-1.8262,0.0,0.0,0.0,0.0,0.0,0.0,0.0,0.0,0.0,0.0,0.0,0.0,0.0,0.0,0.0,0.0,0.0,0.0,0.0,0.0,0.0,0.0,0.0,0.0,0.0,0.0,0.0,0.0,0.0,0.0,0.0,0.0,0.0,0.0,0.0,0.0,0.0,0.0,0.0,0.0,0.0,0.0,1.0369,0.922,0.0,0.0,0.0,0.0744,-0.2136,0.0,0.0,0.0,0.0,0.0,0.0,0.0,0.0,0.0,0.0,0.0,0.0,0.0,0.0,0.0,0.0,0.0,0.0,0.0,0.0,0.0,0.0,0.0,0.0,0.0,0.0,0.0,0.0,0.0,0.0,0.0,0.0,0.0,0.0,0.0,0.0,0.0,0.0,0.0,0.0,0.0,0.0,0.0,0.0,0.0,0.0,0.0,0.0,0.0,0.0,0.0,0.0,0.0,0.0,0.0,0.0,0.0,-0.6526,-0.9844,-1.3439,-1.7172,-1.7302,-1.8381,-2.0469,-1.9102,0.0,0.0,0.0,0.0,0.0,0.0,0.0,0.0,0.0,0.0,0.0,0.0,0.0,0.0,0.0,0.0,0.0,0.0,0.0,0.0,0.0,0.0,0.0,0.0,0.0,0.0,0.0,-0.0381,0.0,0.0,0.0,0.0,0.0,0.0,0.0,0.0,0.0,0.0,0.0,0.0,0.0,0.0,1.0856,0.821,0.6831,0.5023,0.0,0.0,-0.2518,-0.5736,-0.6917,-0.7537,0.0,0.0,0.0,0.0,0.0,0.0,0.0,0.0,0.0,0.0,0.0,0.0,0.0,0.0,0.0,0.0,0.0,0.0,0.0,0.0,0.0,0.0,0.0,0.0,0.0,0.0,0.0,0.0,0.0,0.0,0.0,0.0,0.0,0.0,0.0,0.0,0.0,0.0,0.0,0.0,0.0,0.0,0.0,0.0,0.0,0.0,0.0,0.0,0.0,0.0,0.0,0.0,0.0,0.0,0.0,-0.9763,-1.1089,-1.3521,-1.7155,-1.7269,-1.8381,-2.0469,-1.9687,-1.8418,0.0,0.0,0.0,0.0,0.0,0.0,0.0,0.0,0.0,0.0,0.0,0.0,0.0,0.0,0.0,0.0,0.0,0.0,0.0,0.0,0.0,0.0,0.0,0.0,0.0,0.0,0.0,0.0,0.0,0.0,0.0,0.0,0.0,0.0,0.0,0.0,0.0,0.0,0.0,0.0,0.0,0.9567,0.1555,0.0493,0.0399,0.0,0.0,-0.4886,-0.7403,-0.7918,-0.7868,-0.7441,0.0,0.0,0.0,0.0,0.0,0.0,0.0,0.0,0.0,0.0,0.0,0.0,0.0,0.0,0.0,0.0,0.0,0.0,0.0,0.0,0.0,0.0,0.0,0.0,0.0,0.0,0.0,0.0,0.0,0.0,0.0,0.0,0.0,0.0,0.0,0.0,0.0,0.0,0.0,0.0,0.0,0.0,0.0,0.0,0.0,0.0,0.0,0.0,0.0,0.0,0.0,0.0,0.0,-0.7455,-0.9888,-1.1288,-1.3097,-1.5204,-1.598,-1.7708,-2.0545,-1.9354,-1.8316,0.0,0.0,0.0,0.0,0.0,0.0,0.0,0.0,0.0,0.0,0.0,0.0,0.0,0.0,0.0,0.0,0.0,0.0,0.0,0.0,0.0,0.0,0.0,0.0,0.0,0.0,0.0,0.0,-0.0,-0.0,-0.0,0.0,0.0,0.0,0.0,0.0,0.0,0.0,0.0,0.0,0.0,0.4449,0.0396,-0.2922,0.0,0.0,-0.5887,-0.7168,-0.8916,-0.8448,-0.8132,-0.8792,-0.8038,0.0,0.0,0.0,0.0,0.0,0.0,0.0,0.0,0.0,0.0,0.0,0.0,0.0,0.0,0.0,0.0,0.0,0.0,0.0,0.0,0.0,0.0,0.0,0.0,0.0,0.0,0.0,0.0,0.0,0.0,0.0,0.0,0.0,0.0,0.0,0.0,0.0,0.0,0.0,0.0,0.0,0.0,0.0,0.0,0.0,0.0,0.0,0.0,0.0,0.0,0.0,0.0,-0.8582,-0.9696,-1.1682,-1.3175,-1.4055,-1.5317,-1.6917,-1.883,-1.8683,-1.8391,0.0,0.0,0.0,0.0,0.0,0.0,0.0,0.0,0.0,0.0,0.0,0.0,0.0,0.0,0.0,0.0,0.0,0.0,0.0,0.0,0.0,0.0,0.0,0.0,0.0,0.0,0.0,0.0,-0.0401,-0.0,-0.0,0.0,0.0,0.0,0.0,0.0,0.0,0.0,0.0,0.0,0.0,0.1001,-0.2017,-0.5639,-0.8044,-0.7985,-0.7965,-0.835,-0.9221,-0.8568,-0.821,-0.9068,0.0,0.0,0.0,0.0,0.0,0.0,0.0,0.0,0.0,0.0,0.0,0.0,0.0,0.0,0.0,0.0,0.0,0.0,0.0,0.0,0.0,0.0,0.0,0.0,0.0,0.0,0.0,0.0,0.0,0.0,-0.1661,0.0,0.0,0.0,0.0,0.0,0.0,0.0,0.0,0.0,0.0,0.0,0.0,0.0,0.0,0.0,0.0,0.0,0.0,0.0,0.0,0.0,0.0,-0.9777,-0.9776,-1.2606,-1.4071,-1.4138,-1.5746,-1.6155,-1.5361,-1.7846,-1.8798,-1.7561,0.0,0.0,0.0,0.0,0.0,0.0,0.0,0.0,0.0,0.0,0.0,0.0,0.0,0.0,0.0,0.0,0.0,0.0,0.0,0.0,0.0,0.0,0.0,0.0,0.0,0.0,-0.368,-0.1422,-0.0,0.0,0.0,0.0,0.0,0.0,0.0,0.0,0.0,0.0,0.0,0.2496,0.0204,-0.7015,-0.7981,-0.8037,-0.7979,-0.8045,-0.8045,-0.8052,-0.8167,-0.816,0.0,0.0,0.0,0.0,0.0,0.0,0.0,0.0,0.0,0.0,0.0,0.0,0.0,0.0,0.0,0.0,0.0,0.0,0.0,0.0,0.0,0.0,0.0,0.0,0.0,0.0,0.0,-0.4102,-0.5839,0.0,0.0,0.0,0.0,0.0,0.0,0.0,0.0,0.0,0.0,0.0,-1.5157,-1.4251,0.0,0.0,0.0,0.0,0.0,0.0,0.0,0.0,0.0,0.0,0.0,0.0,-1.0803,-1.1462,-1.3412,-1.4636,-1.5253,-1.5459,-1.5889,-1.6593,-1.7227,-1.7298,-1.6718,0.0,0.0,0.0,0.0,0.0,0.0,0.0,0.0,0.0,0.0,0.0,0.0,0.0,0.0,0.0,0.0,0.0,0.0,0.0,0.0,0.0,0.0,0.0,0.0,0.0,-0.6361,0.0,0.0,0.0,0.0,0.0,0.0,0.0,0.0,0.0,0.0,0.0,0.1294,0.0397,-0.1133,-0.3578,-0.7782,-0.8364,-0.8294,0.0,0.0,0.0,0.0,0.0,0.0,0.0,0.0,0.0,0.0,0.0,0.0,0.0,0.0,-0.5461,-0.3341,-0.2951,-0.3019,-0.2965,0.0,0.0,0.0,0.0,0.0,0.0,0.0,0.0,0.0,0.0,0.0,0.0,0.0,0.0,-0.8452,0.0,-0.8876,0.0,0.0,0.0,0.0,0.0,0.0,0.0,0.0,-1.353,-1.5092,-1.5797,-1.5778,-1.5447,0.0,-1.4062,-1.3066,0.0,0.0,0.0,0.0,0.0,0.0,0.0,0.0,-1.1727,-1.2326,-1.3991,-1.517,-1.5769,-1.5467,-1.5819,-1.6831,-1.6758,-1.6835,-1.6976,-1.6379,-1.5294,0.0,0.0,0.0,0.0,0.0,0.0,0.0,0.0,0.0,0.0,0.0,0.0,0.0,0.0,0.0,0.0,0.0,0.0,0.0,0.0,0.0,0.0,0.0,-0.6987,0.0,0.0,0.0,0.0,0.0,0.0,0.0,0.0,0.0,-0.1699,-0.1763,-0.2551,-0.3476,-0.5058,-0.6737,-0.8322,0.0,0.0,0.0,0.0,0.0,0.0,0.0,-0.8533,-0.8628,-0.8648,-0.8703,-0.8838,-0.9069,-0.9211,-0.9164,0.0,0.0,-0.6474,-0.619,-0.6241,-0.621,-0.4579,-0.2924,-0.1879,-0.4752,-0.6711,0.0,0.0,0.0,0.0,0.0,0.0,0.0,0.0,-1.3582,-1.4321,0.0,-1.3082,0.0,0.0,0.0,0.0,0.0,0.0,0.0,0.0,-1.4721,-1.5779,-1.5814,-1.5814,-1.5828,-1.5814,-1.5483,-1.5438,-1.5599,-1.3203,0.0,0.0,0.0,0.0,0.0,0.0,-1.2685,-1.2409,-1.4347,-1.5538,-1.5805,-1.5818,-1.5818,-1.5805,-1.6529,-1.7295,-1.8024,-1.7669,-1.6755,-1.5131,-1.448,0.0,0.0,0.0,0.0,0.0,0.0,0.0,0.0,0.0,0.0,0.0,0.0,0.0,0.0,0.0,0.0,0.0,0.0,0.0,0.0,-0.7285,0.0,0.0,0.0,0.0,0.0,0.0,0.0,0.0,0.0,0.0,-0.9115,-0.6968,-0.6184,-0.9057,0.0,0.0,0.0,0.0,-0.8513,-0.852,-0.8513,-0.8567,-0.8716,-0.8852,-0.894,-0.8954,0.0,0.0,-0.9191,-0.93,-0.9367,-0.9211,-0.9334,-0.9415,-0.9189,-0.9158,-0.9184,-0.9305,-0.9069,-0.832,-0.5815,-0.5361,-0.6163,-1.2204,0.0,0.0,0.0,0.0,-0.8426,-1.0849,-1.4825,-1.5147,-1.5218,-1.4983,-1.488,0.0,0.0,0.0,0.0,0.0,0.0,-1.2443,-1.3636,-1.5166,-1.5805,-1.5806,-1.5806,-1.5806,-1.5819,-1.5712,-1.5683,-1.5743,-1.4892,-1.3654,-1.2352,0.0,0.0,0.0,0.0,-1.3652,-1.3699,-1.476,-1.5538,-1.5818,-1.5832,-1.5832,-1.5832,-1.6021,-1.6206,-1.648,-1.6182,-1.5754,-1.5113,-1.4434,0.0,0.0,0.0,0.0,0.0,0.0,0.0,0.0,0.0,0.0,0.0,0.0,0.0,0.0,0.0,0.0,0.0,0.0,0.0,-0.7441,-0.7414,-0.7581,0.0,0.0,0.0,0.0,0.0,0.0,0.0,0.0,0.0,-1.004,-0.9149,-0.8602,0.0,0.0,-0.9225,-0.911,-0.9015,-0.9001,-0.9103,0.0,0.0,0.0,-0.9137,-0.913,-0.9239,-0.9415,-0.953,-0.9483,-0.9686,-0.9842,-0.9795,-0.9917,-1.0025,-1.0005,-0.9646,-0.9483,-0.9449,-0.9428,-0.9293,-0.8468,-0.8305,-0.874,-1.4308,-1.2802,-1.2492,-1.2167,-1.1843,-1.1802,-1.3336,-1.5777,-1.581,-1.5641,-1.5301,-1.5662,-1.4922,-1.336,-1.3427,0.0,0.0,0.0,-1.4257,-1.4799,-1.5484,-1.5833,-1.5787,-1.6005,-1.6005,-1.5787,-1.5896,-1.5967,-1.5778,-1.5671,-1.4977,-1.3911,0.0,0.0,-1.3734,-1.4202,-1.4454,-1.4501,-1.5206,-1.5658,-1.5832,-1.5832,-1.5832,-1.5832,-1.5832,-1.5832,-1.5832,-1.5658,-1.5484,-1.5311,-1.475,-1.4082,0.0,0.0,0.0,0.0,0.0,0.0,0.0,0.0,0.0,0.0,0.0,-0.6084,-0.6324,0.0,0.0,0.0,-0.7326,-0.7685,-0.7831,-0.7977,0.0,0.0,0.0,0.0,0.0,0.0,0.0,-1.0047,-1.0293,-1.0404,-1.0404,-1.0121,-0.9827,-0.9551,-0.9544,-0.9503,-0.9354,0.0,-0.9279,-0.9367,-0.9381,-0.9401,-0.9462,-0.9395,-0.9388,-0.953,-0.9686,-0.9781,-0.9788,-0.9985,-1.0134,-1.0154,-1.0215,-1.0276,-1.0276,-0.9978,-0.9741,-0.9741,-0.9747,-0.9761,-0.9882,-0.9957,-1.0026,-1.6059,-1.6233,-1.5431,-1.5097,-1.5033,-1.5074,-1.5299,-1.5817,-1.5817,-1.5859,-1.5872,-1.5832,-1.5562,-1.5084,-1.4816,0.0,-1.511,-1.5074,-1.5324,-1.579,-1.579,-1.5827,-1.5856,-1.6424,-1.6522,-1.5967,-1.6202,-1.6166,-1.5912,-1.5899,-1.5765,-1.5498,-1.4963,-1.4656,-1.4603,-1.4883,-1.506,-1.5114,-1.5577,-1.5832,-1.5832,-1.5832,-1.5832,-1.5832,-1.5832,-1.5832,-1.5832,-1.5832,-1.5832,-1.5818,-1.5324,-1.4763,-1.4175,0.0,0.0,0.0,0.0,0.0,0.0,0.0,0.0,0.0,0.0,0.0,0.0,0.0,0.0,0.0,-0.8058,0.0,-0.8428,-0.8682,0.0,0.0,0.0,-0.9205,-0.9239,-0.9605,-0.9863,-0.9869,0.0,0.0,-1.0317,0.0,-1.0256,-1.01,-0.9951,-0.9808,-0.968,-0.9551,-0.9449,-0.9462,-0.9456,-0.9503,-0.9639,-0.9666,-0.972,-0.9842,-0.9978,-1.0053,-1.0066,-1.0188,-1.0283,-1.0297,-1.0304,-1.0324,-1.0317,-1.031,-1.0317,-1.0297,-1.0276,-1.0263,-1.0243,-1.0256,-1.027,-1.654,-1.658,-1.638,-1.6064,-1.5635,-1.5588,-1.5725,-1.5836,-1.5836,-1.6098,-1.6486,-1.6531,-1.6464,-1.6286,-1.6219,-1.6219,-1.6299,-1.581,-1.5652,-1.5828,-1.5828,-1.5767,-1.5818,-1.6833,-1.7285,-1.7172,-1.6819,-1.6567,-1.65,-1.65,-1.646,-1.6393,-1.6246,-1.5858,-1.5231,-1.5471,-1.5658,-1.5617,-1.5697,-1.5832,-1.5832,-1.5832,-1.5832,-1.5832,-1.5832,-1.5832,-1.5832,-1.5832,-1.5832,-1.5832,-1.5698,-1.5364,-1.479,-1.4122,0.0,0.0,0.0,0.0,0.0,0.0,0.0,0.0,0.0,-0.8552,-0.8432,0.0,-0.832,0.0,-0.852,-0.8886,-0.9144,-0.913,0.0,0.0,-0.9808,-0.9639,-0.9971,-1.0107,-1.0215,-1.0324,-1.05,-1.0616,-1.0616,-1.0616,-1.0555,-1.0405,-1.0263,-1.0154,-1.012,-1.0093,-1.0025,-0.9917,-0.9971,-1.0039,-0.9958,-1.0046,-1.012,-1.0168,-1.0202,-1.0222,-1.0229,-1.0344,-1.0439,-1.0446,-1.0541,-1.0602,-1.0609,-1.0616,-1.0616,-1.0602,-1.0439,-1.0276,-1.0283,-1.0365,-1.0439,-1.678,-1.6901,-1.6901,-1.6751,-1.6612,-1.6351,-1.636,-1.6587,-1.66,-1.6814,-1.7055,-1.6814,-1.67,-1.67,-1.67,-1.67,-1.67,-1.636,-1.6147,-1.6247,-1.6473,-1.6553,-1.6658,-1.7245,-1.759,-1.759,-1.713,-1.6948,-1.7055,-1.6827,-1.67,-1.67,-1.67,-1.646,-1.6005,-1.6139,-1.6056,-1.5813,-1.579,-1.5832,-1.5832,-1.5832,-1.5832,-1.5832,-1.5832,-1.5832,-1.5832,-1.5832,-1.5832,-1.5832,-1.5832,-1.5685,-1.5364,-1.4923,-1.4522,0.0,0.0,0.0,0.0,0.0,0.0,0.0,0.0,0.0,0.0,0.0,-0.9133,0.0,-0.911,-0.9429,-0.9659,-0.972,-0.9998,-1.0447,-1.028,-1.0202,-1.0453,-1.0473,-1.0507,-1.0582,-1.067,-1.0717,-1.0717,-1.0717,-1.069,-1.0602,-1.0527,-1.0426,-1.0304,-1.0276,-1.0249,-1.0175,-1.0222,-1.0256,-1.0161,-1.0222,-1.0276,-1.0283,-1.0331,-1.0378,-1.0378,-1.0493,-1.0588,-1.0602,-1.0663,-1.0717,-1.0717,-1.0717,-1.0717,-1.0697,-1.0595,-1.0493,-1.048,-1.0534,-1.0588,-1.7034,-1.7275,-1.7301,-1.7462,-1.7543,-1.7038,-1.7117,-1.7622,-1.7622,-1.7622,-1.7622,-1.7049,-1.682,-1.682,-1.682,-1.682,-1.682,-1.682,-1.682,-1.682,-1.7379,-1.7645,-1.7661,-1.7558,-1.7558,-1.7558,-1.7324,-1.7408,-1.7622,-1.7049,-1.682,-1.682,-1.682,-1.682,-1.682,-1.682,-1.6534,-1.5895,-1.5963,-1.5939,-1.5939,-1.5939,-1.5925,-1.5885,-1.5885,-1.5872,-1.5832,-1.5858,-1.5885,-1.5899,-1.5965,-1.5979,-1.5939,-1.5738,-1.5591,0.0,-1.5297,0.0,0.0,0.0,0.0,0.0,0.0,0.0,0.0,-0.956,-0.9831,-0.949,-0.9761,-0.9998,-1.0148,-1.0399,-1.0609,-1.0758,-1.0778,-1.0778,-1.0778,-1.0758,-1.0751,-1.0751,-1.0738,-1.0717,-1.0717,-1.0717,-1.0717,-1.0711,-1.0704,-1.0609,-1.0405,-1.0351,-1.0351,-1.0317,-1.031,-1.0331,-1.0344,-1.0344,-1.0351,-1.0358,-1.0446,-1.0521,-1.0521,-1.0622,-1.0717,-1.0717,-1.0711,-1.0717,-1.0717,-1.0717,-1.0731,-1.0751,-1.0744,-1.0731,-1.0704,-1.0697,-1.0717,-1.7822,-1.7903,-1.813,-1.8018,-1.7566,-1.7463,-1.7515,-1.7644,-1.7644,-1.7644,-1.7539,-1.7526,-1.7408,-1.7422,-1.7408,-1.7422,-1.7422,-1.7408,-1.7422,-1.7422,-1.7539,-1.7566,-1.7607,-1.7607,-1.762,-1.762,-1.7502,-1.758,-1.7644,-1.7526,-1.7422,-1.7422,-1.7422,-1.7422,-1.7422,0.0,0.0,0.0,-1.6567,-1.654,-1.654,-1.654,-1.642,-1.6206,-1.6192,0.0,-1.5845,-1.6059,-1.6192,-1.6206,-1.6647,0.0,0.0,0.0,0.0,0.0,0.0,0.0,0.0,0.0,0.0,0.0,-1.1885,-1.0456,-1.0623,-1.035,-1.0204,-1.0114,-1.0378,-1.0616,-1.0765,-1.0826,-1.0921,-1.1056,-1.1077,-1.1077,-1.1077,-1.0975,-1.0907,-1.09,-1.0799,-1.0724,-1.0724,-1.0717,-1.0724,-1.0717,-1.0717,-1.0697,-1.0643,-1.0622,-1.0582,-1.048,-1.0453,-1.05,-1.0616,-1.0622,-1.0609,-1.0643,-1.0649,-1.067,-1.067,-1.069,-1.0717,-1.0717,-1.0717,-1.0717,-1.0724,-1.0717,-1.0765,-1.088,-1.0907,-1.0867,-1.0744,-1.0724,-1.0717,-1.8263,0.0,-1.8424,-1.8366,0.0,-1.7994,-1.8194,-1.8415,-1.7901,-1.778,-1.8023,-1.778,-1.778,-1.8036,-1.7915,-1.7915,-1.8023,-1.7915,-1.778,-1.7659,-1.7659,-1.7659,-1.7659,-1.7635,-1.7582,-1.7569,-1.7649,-1.7582,-1.7582,-1.7582,-1.7582,-1.7582,-1.7582,-1.7582,-1.7582,-1.7582,-1.7368,-1.6927,-1.7109,-1.7041,-1.67,-1.67,-1.6633,-1.65,0.0,0.0,0.0,0.0,0.0,0.0,0.0,0.0,0.0,0.0,0.0,-1.7809,-1.8076,-1.7682,-1.6351,-1.4876,-1.366,-1.2581,-1.115,-1.044,-1.0929,-1.0545,-1.0453,-1.0595,-1.0751,-1.0894,-1.1036,-1.1056,-1.1084,-1.1151,-1.1165,-1.1165,-1.1151,-1.1097,-1.1056,-1.105,-1.0989,-1.0914,-1.0839,-1.0833,-1.0799,-1.0731,-1.0717,-1.0724,-1.0717,-1.0717,-1.0683,-1.0616,-1.0602,-1.0629,-1.0704,-1.0717,-1.0717,-1.0717,-1.0717,-1.0717,-1.0717,-1.0717,-1.0717,-1.0717,-1.0717,-1.0738,-1.0819,-1.0833,-1.088,-1.1016,-1.1056,-1.1036,-1.0955,-1.0941,-1.0941,-1.8571,-1.8571,-1.8624,-1.8637,-1.8651,-1.8637,-1.8901,-1.9277,0.0,0.0,0.0,-1.8118,-1.8118,-1.849,-1.8366,-1.8366,-1.849,-1.8366,-1.8118,-1.7747,-1.7747,-1.7857,-1.7857,-1.7882,-1.7886,-1.7751,-1.7742,-1.7742,-1.7742,-1.7742,-1.7716,-1.7662,-1.7662,-1.7635,-1.7595,-1.7582,-1.7462,-1.7235,-1.7456,-1.7319,-1.686,-1.686,-1.6834,-1.678,-1.6834,-1.6834,-1.678,-1.6887,-1.7061,-1.7288,-1.7408,-1.7689,-1.817,-1.8531,-1.8945,-1.9412,-1.947,-1.8397,-1.5918,-1.5182,-1.3645,-1.0781,-1.0649,-1.0754,-1.077,-1.0596,-1.0649,-1.0928,-1.0948,-1.1016,-1.1185,-1.1199,-1.1212,-1.124,-1.124,-1.1246,-1.1246,-1.1212,-1.1206,-1.1206,-1.1172,-1.1118,-1.1002,-1.0989,-1.0941,-1.0833,-1.0792,-1.0744,-1.0724,-1.0717,-1.0717,-1.0704,-1.0697,-1.0711,-1.0717,-1.0717,-1.0717,-1.0717,-1.0717,-1.0717,-1.0717,-1.0717,-1.0731,-1.0772,-1.0758,-1.0826,-1.0948,-1.0989,-1.1043,-1.1172,-1.1206,-1.1212,-1.124,-1.1267,-1.1253,-1.8865,-1.8878,-1.9145,-1.9252,-1.9239,-1.9239,-1.9367,-1.934,-1.922,-1.9251,-1.9251,-1.9126,-1.8877,-1.849,-1.8628,-1.8628,-1.849,-1.849,-1.849,0.0,-1.8366,-1.8628,-1.9126,-1.9195,-1.8919,-1.8424,-1.8384,-1.8357,-1.8357,-1.8357,-1.8237,-1.8009,-1.7983,-1.7849,-1.7609,-1.7582,-1.7569,-1.7515,-1.7593,-1.7566,-1.7462,-1.7462,-1.7341,-1.7114,-1.7328,-1.7341,-1.7101,-1.7582,-1.7876,-1.7929,-1.8287,-1.8592,-1.8811,-1.9319,-1.9666,-1.9628,-1.8651,-1.7796,-1.7667,-1.4906,-1.2451,-1.0934,-1.0711,-1.0697,-1.067,-1.0677,-1.0765,-1.0928,-1.0962,-1.1063,-1.1314,-1.1355,-1.1409,-1.1525,-1.1552,-1.1552,-1.1531,-1.143,-1.1355,-1.1355,-1.124,-1.1172,-1.1145,-1.1131,-1.1124,-1.1077,-1.0975,-1.0873,-1.0778,-1.0717,-1.0717,-1.0717,-1.0717,-1.0717,-1.0717,-1.0724,-1.0731,-1.0717,-1.0738,-1.0751,-1.0758,-1.0758,-1.0792,-1.0894,-1.0914,-1.0975,-1.1104,-1.1131,-1.1199,-1.1321,-1.1362,-1.1396,-1.1511,-1.1626,-1.1606,-1.9158,-1.9172,-1.9305,-1.9372,-1.9372,-1.9372,-1.9372,-1.9461,-1.9462,-1.9353,-1.9353,-1.9353,-1.9226,-1.8971,-1.9085,-1.9085,-1.8958,-1.8958,-1.8971,-1.8958,-1.8971,-1.9098,-1.9339,-1.9443,-1.9234,-1.8982,-1.8682,-1.849,-1.849,-1.849,-1.8424,-1.829,-1.829,-1.821,-1.809,-1.7711,-1.7711,-1.8063,-1.7756,-1.7662,-1.7822,-1.7849,-1.797,-1.7876,-1.8009,-1.8009,-1.7889,-1.8143,-1.8357,-1.8517,-1.8678,-1.8981,-1.9399,-1.9947,-2.0267,-2.0281,-1.8902,-1.7702,-1.6914,-1.3717,-1.1425,-1.0711,-1.0717,-1.0758,-1.0839,-1.0846,-1.0907,-1.105,-1.1138,-1.128,-1.1491,-1.1518,-1.1545,-1.1613,-1.1619,-1.1619,-1.1613,-1.1565,-1.1518,-1.1511,-1.1457,-1.1382,-1.1294,-1.1287,-1.1246,-1.1179,-1.1097,-1.1029,-1.0968,-1.0955,-1.0894,-1.0758,-1.0717,-1.0717,-1.0731,-1.0799,-1.0839,-1.0846,-1.0907,-1.0948,-1.0962,-1.0962,-1.0989,-1.1043,-1.1063,-1.1124,-1.126,-1.1287,-1.1355,-1.147,-1.1518,-1.1579,-1.1708,-1.185,-1.187,-1.9519,-1.9466,-1.9466,-1.9426,-1.9372,-1.9372,-1.9372,-1.9372,-1.9359,-1.9372,-1.9372,-1.9372,-1.9372,-1.9372,-1.9372,-1.9359,-1.9372,-1.9372,-1.9359,-1.9372,-1.9372,-1.9372,-1.9461,-1.9388,-1.9407,-1.938,-1.8924,-1.8677,-1.8691,-1.8691,-1.8651,-1.8597,-1.8531,-1.849,-1.849,-1.7994,-1.7994,-1.834,-1.8144,-1.8023,-1.813,-1.8265,-1.8386,-1.8477,-1.8544,-1.8584,-1.8584,-1.8651,-1.8824,-1.9105,-1.8958,-1.9233,-1.9973,-2.0414,-2.0695,-2.065,-1.8915,-1.6947,-1.4874,-1.2281,-1.0717,-1.0724,-1.0751,-1.0819,-1.0934,-1.1009,-1.109,-1.1206,-1.1314,-1.1443,-1.1579,-1.1613,-1.1619,-1.1619,-1.1619,-1.1619,-1.1619,-1.1619,-1.1619,-1.1619,-1.1619,-1.1565,-1.1477,-1.1443,-1.1382,-1.126,-1.1212,-1.1206,-1.1172,-1.1165,-1.1056,-1.0907,-1.0819,-1.0833,-1.0826,-1.0914,-1.0989,-1.0995,-1.1077,-1.1124,-1.1138,-1.1151,-1.1185,-1.1199,-1.1212,-1.128,-1.1402,-1.1443,-1.1504,-1.1626,-1.1667,-1.1721,-1.1911,-1.2026,-1.2088,-1.9987,-1.9773,-1.976,-1.9599,-1.9399,-1.9386,-1.9386,-1.9386,-1.9372,-1.9372,-1.9399,-1.9372,-1.9372,-1.9372,-1.9372,-1.9372,-1.9372,-1.9372,-1.9372,-1.9372,-1.9372,-1.9372,-1.9372,-1.9448,-1.9448,-1.9435,-1.9265,-1.9225,-1.9239,-1.9252,-1.9132,-1.8878,-1.8624,-1.8517,-1.8504,-1.8504,-1.838,-1.8242,-1.8933,-1.9043,-1.845,-1.8698,-1.8712,-1.849,-1.8758,-1.8891,-1.8905,-1.9145,-1.9412,-1.9693,-1.9483,-1.9747,-2.0521,-2.0916,-2.1078,-2.0916,-1.7976,-1.4754,-1.163,-1.085,-1.0724,-1.0731,-1.0846,-1.0934,-1.0968,-1.1192,-1.1348,-1.1375,-1.1389,-1.147,-1.1599,-1.1619,-1.1619,-1.1619,-1.1619,-1.1619,-1.1619,-1.1619,-1.1619,-1.1619,-1.1619,-1.1613,-1.1586,-1.1579,-1.1525,-1.1396,-1.1369,-1.1335,-1.1233,-1.1212,-1.1206,-1.1138,-1.1124,-1.1118,-1.1104,-1.1124,-1.1145,-1.1145,-1.1158,-1.1199,-1.1219,-1.1212,-1.1212,-1.1389,-1.1369,-1.143,-1.1538,-1.1599,-1.1633,-1.1748,-1.1816,-1.1898,-1.2155,-1.225,-1.223,-2.0174,-2.0201,-2.0067,-1.9854,-1.9483,-1.935,-1.9469,-1.9469,-1.9469,-1.9602,-1.9853,-1.9561,-1.9389,-1.9372,-1.9372,-1.9372,-1.9372,-1.9372,-1.9372,-1.9372,-1.9372,-1.9372,-1.9372,-1.9372,-1.9372,-1.9372,-1.9372,-1.9372,-1.9372,-1.9372,-1.9305,-1.9185,-1.9065,-1.9011,-1.9011,-1.9011,-1.8998,-1.8884,-1.9253,-1.9266,-1.9112,-1.909,-1.909,-1.9011,-1.9118,-1.9279,-1.9426,-1.9559,-1.976,-2.004,-1.9945,-2.0143,-2.0668,-2.098,-2.0611,-1.9534,-1.6302,-1.3325,-1.085,-1.0717,-1.0758,-1.0987,-1.0914,-1.1016,-1.1192,-1.1328,-1.1423,-1.1511,-1.1525,-1.1558,-1.1606,-1.1619,-1.1619,-1.1619,-1.1619,-1.1619,-1.1619,-1.1619,-1.1619,-1.1619,-1.1619,-1.1619,-1.1619,-1.1619,-1.1592,-1.1538,-1.1525,-1.1484,-1.1436,-1.143,-1.143,-1.143,-1.1436,-1.1348,-1.1233,-1.1246,-1.1287,-1.1314,-1.1375,-1.143,-1.1416,-1.143,-1.1484,-1.1619,-1.1572,-1.1586,-1.1714,-1.1667,-1.166,-1.1809,-1.2026,-1.2149,-1.2271,-1.2359,-1.2366,-2.0563,-2.0618,-2.0281,-1.9958,-1.9689,-1.9824,-1.9837,-1.9837,-1.9837,-2.0093,-2.0362,-2.0013,-1.98,-1.9599,-1.9439,-1.9372,-1.9372,-1.9372,-1.9372,-1.9372,-1.9372,-1.9372,-1.9372,-1.9372,-1.9372,-1.9372,-1.9372,-1.9372,-1.9372,-1.9372,-1.9372,-1.9372,-1.9372,-1.9372,-1.9372,-1.9372,-1.9372,-1.9359,-1.9372,-1.9372,-1.9461,-1.951,-1.9496,-1.9372,-1.9452,-1.9586,-1.9786,-1.988,-2.0054,-2.0347,-2.0275,-2.0433,-2.0802,-2.1002,-2.0068,-1.7859,-1.5014,-1.2545,-1.085,-1.0717,-1.0792,-1.107,-1.1118,-1.1111,-1.1335,-1.143,-1.1504,-1.1592,-1.1653,-1.1667,-1.1619,-1.1653,-1.1674,-1.1681,-1.1681,-1.1687,-1.1735,-1.1742,-1.1755,-1.1742,-1.1769,-1.1742,-1.1735,-1.1714,-1.1694,-1.1742,-1.1674,-1.1647,-1.1653,-1.164,-1.1606,-1.1619,-1.1613,-1.1531,-1.1341,-1.1382,-1.1443,-1.147,-1.1545,-1.1586,-1.1619,-1.1613,-1.1619,-1.1633,-1.166,-1.1708,-1.1789,-1.1742,-1.1789,-1.1952,-1.2149,-1.2325,-1.2366,-1.2447,-1.2481,-2.1047,-2.1039,-2.0483,-2.0267,-2.0241,-2.0686,-2.0956,-2.0862,-2.0956,-2.0956,-2.097,-2.0929,-2.0631,-2.0147,-1.9653,-1.9386,-1.9386,-1.9399,-1.9399,-1.9386,-1.9372,-1.9372,-1.9372,-1.9372,-1.9372,-1.9372,-1.9372,-1.9372,-1.9372,-1.9372,-1.9372,-1.9372,-1.9372,-1.9372,-1.9386,-1.9399,-1.9386,-1.9426,-1.9426,-1.9399,-1.9426,-1.9902,-1.9888,-1.9582,-1.9639,-1.98,-1.9853,-2.008,-2.0347,-2.0655,-2.0407,-2.0526,-2.1042,-2.0969,-1.9419,-1.6302,-1.4232,-1.2545,-1.0982,-1.0731,-1.0799,-1.1083,-1.1221,-1.1219,-1.1396,-1.1518,-1.1599,-1.1626,-1.1755,-1.1775,-1.1681,-1.1762,-1.1823,-1.1823,-1.1823,-1.1884,-1.2013,-1.1993,-1.2033,-1.202,-1.1999,-1.1993,-1.2013,-1.1911,-1.1898,-1.1918,-1.1796,-1.1674,-1.1755,-1.1701,-1.1647,-1.1619,-1.1619,-1.1606,-1.1592,-1.1558,-1.1579,-1.1586,-1.1579,-1.1626,-1.1619,-1.1619,-1.164,-1.1687,-1.1775,-1.183,-1.1857,-1.1938,-1.206,-1.2196,-1.2318,-1.244,-1.244,-1.2474,-1.2501,-2.1056,-2.1088,-2.0842,-2.0802,-2.0802,-2.1078,-2.1078,-2.1078,-2.1078,-2.1078,-2.1051,-2.1026,-2.0931,-2.0494,-2.0107,-1.992,-1.9907,-1.9733,-1.9508,-1.9482,-1.9439,-1.9372,-1.9372,-1.9372,-1.9372,-1.9372,-1.9372,-1.9372,-1.9372,-1.9372,-1.9372,-1.9372,-1.9372,-1.9452,-1.9613,-1.9508,-1.9457,-1.9363,-1.9376,-1.9389,-1.9509,-1.9893,-2.016,-2.008,-2.0027,-2.016,-2.0361,-2.0468,-2.0655,-2.0949,-2.081,-2.0863,-2.0829,-1.9024,-1.6689,-1.4493,-1.2545,-1.1372,-1.0864,-1.0812,-1.0928,-1.1214,-1.1226,-1.1369,-1.1511,-1.1592,-1.1653,-1.1755,-1.1891,-1.1945,-1.1932,-1.1952,-1.1979,-1.1979,-1.1979,-1.1999,-1.204,-1.206,-1.206,-1.206,-1.206,-1.206,-1.2067,-1.2013,-1.1999,-1.204,-1.1965,-1.1891,-1.183,-1.1782,-1.1735,-1.1647,-1.1619,-1.1619,-1.1619,-1.1613,-1.1613,-1.1613,-1.1626,-1.1681,-1.1701,-1.1728,-1.1755,-1.1932,-1.1999,-1.202,-1.2067,-1.2128,-1.2257,-1.2284,-1.242,-1.2488,-1.2501,-1.2501,-1.2501,-2.1109,-2.1109,-2.1109,-2.1109,-2.1109,-2.1109,-2.1109,-2.1109,-2.1109,-2.1109,-2.1069,-2.1047,-2.0967,-2.0788,-2.0601,-2.0521,-2.0468,-2.012,-1.9761,-1.9391,-1.9455,-1.9452,-1.9372,-1.9372,-1.9372,-1.9372,-1.9372,-1.9372,-1.9386,-1.9466,-1.9506,-1.9506,-1.9586,-1.9733,-1.9907,-1.9801,-1.9773,-1.9797,-1.9837,-1.9824,-1.9824,-2.0199,-2.051,-2.0523,-2.0468,-2.0548,-2.0681,-2.0762,-2.0895,-2.1069,-2.1109,-2.0563,-1.9357,-1.6679,-1.4493,-1.3325,-1.1637,-1.0717,-1.0738,-1.086,-1.1009,-1.1289,-1.1307,-1.1457,-1.1599,-1.1619,-1.1674,-1.1775,-1.1952,-1.206,-1.2081,-1.2142,-1.2182,-1.2149,-1.2135,-1.2155,-1.2196,-1.221,-1.221,-1.2216,-1.2223,-1.2216,-1.2196,-1.2162,-1.2169,-1.2196,-1.2135,-1.202,-1.1993,-1.1925,-1.1884,-1.1789,-1.1782,-1.1789,-1.1803,-1.1816,-1.1701,-1.1667,-1.166,-1.1721,-1.1809,-1.1843,-1.1932,-1.2128,-1.223,-1.2244,-1.2284,-1.2338,-1.2359,-1.2359,-1.2413,-1.2494,-1.2501,-1.2501,-1.2515,-2.1109,-2.1109,-2.1109,-2.1109,-2.1109,-2.1109,-2.1109,-2.1109,-2.1109,-2.1109,-2.1096,-2.1082,-2.1056,-2.1082,-2.1015,-2.1056,-2.0935,-2.0508,-2.0013,-1.9628,-1.943,-1.9391,-1.9412,-1.9412,-1.9386,-1.9372,-1.9372,-1.9372,-1.9372,-1.9613,-1.976,-1.984,-2.0027,-2.016,-2.0227,-2.0375,-2.0389,-2.0578,-2.0754,-2.0713,-2.0294,-2.0684,-2.0819,-2.0571,-2.0909,-2.081,-2.0584,-2.0949,-2.0956,-2.0969,-2.0982,-1.9484,-1.6306,-1.4308,-1.3325,-1.2931,-1.1637,-1.085,-1.0744,-1.088,-1.1173,-1.1462,-1.1461,-1.1477,-1.1592,-1.1619,-1.164,-1.1728,-1.1904,-1.2067,-1.2128,-1.2311,-1.2413,-1.2318,-1.2291,-1.2338,-1.2433,-1.2488,-1.2494,-1.2467,-1.2454,-1.2488,-1.2467,-1.2372,-1.2332,-1.2372,-1.2271,-1.2142,-1.2196,-1.2128,-1.2067,-1.2033,-1.1986,-1.1952,-1.1999,-1.2033,-1.187,-1.1735,-1.1721,-1.1748,-1.1891,-1.1965,-1.204,-1.221,-1.2311,-1.2338,-1.2386,-1.2433,-1.2447,-1.2454,-1.2494,-1.2501,-1.2508,-1.2515,-1.2542,-2.1109,-2.1109,-2.1109,-2.1109,-2.1109,-2.1109,-2.1109,-2.1109,-2.1109,-2.1109,-2.1109,-2.1109,-2.1109,-2.1109,-2.1109,-2.1109,-2.1082,-2.0909,-2.0681,-2.0401,-1.9784,-1.9402,-1.9443,-1.9404,-1.9415,-1.9399,-1.9372,-1.9372,-1.9426,-1.9679,-1.98,-1.9867,-2.0094,-2.0334,-2.0535,-2.0548,-2.0615,-2.0953,-2.098,-2.098,-2.0842,-2.1047,-2.0975,-2.0975,-2.1069,-2.0537,-1.9308,-2.041,-2.0462,-1.9419,-2.0425,-1.8419,-1.3743,-1.3012,-1.2676,-1.163,-1.1115,-1.0778,-1.088,-1.1016,-1.1296,-1.1454,-1.1605,-1.1558,-1.1606,-1.1619,-1.1708,-1.187,-1.2013,-1.2128,-1.2332,-1.2433,-1.2474,-1.244,-1.2433,-1.244,-1.2488,-1.2501,-1.2501,-1.2501,-1.2501,-1.2501,-1.2494,-1.244,-1.2447,-1.2481,-1.2406,-1.2359,-1.2291,-1.2264,-1.2162,-1.2094,-1.2081,-1.2101,-1.2128,-1.2149,-1.206,-1.1945,-1.1898,-1.1884,-1.2006,-1.2088,-1.2169,-1.2264,-1.2366,-1.2427,-1.2481,-1.2501,-1.2501,-1.2508,-1.2515,-1.2515,-1.2515,-1.2562,-1.263,-2.1109,-2.1109,-2.1109,-2.1109,-2.1109,-2.1109,-2.1109,-2.1109,-2.1109,-2.1109,-2.1109,-2.1109,-2.1109,-2.1109,-2.1109,-2.1109,-2.1109,-2.1109,-2.1155,-2.0953,-2.0398,-1.9971,-1.9987,-1.9827,-1.9536,-1.9469,-1.9639,-1.9757,-1.969,-1.9933,-2.0134,-2.0174,-2.0414,-2.0655,-2.0815,-2.0828,-2.081,-2.1082,-2.1096,-2.1109,-2.1096,-2.1109,-2.1109,-2.1109,-2.1109,-2.0195,-1.8768,-1.9546,-1.9291,-1.7871,-1.8079,-1.5674,-1.1264,-1.1709,-1.1894,-1.0989,-1.0778,-1.0853,-1.0955,-1.1131,-1.128,-1.1543,-1.1531,-1.1613,-1.1619,-1.1619,-1.1735,-1.1925,-1.2033,-1.2162,-1.2372,-1.2474,-1.2494,-1.2501,-1.2494,-1.2501,-1.2501,-1.2501,-1.2501,-1.2501,-1.2501,-1.2501,-1.2501,-1.2501,-1.2501,-1.2501,-1.2501,-1.2488,-1.2393,-1.2372,-1.2291,-1.2244,-1.2271,-1.2271,-1.2244,-1.2244,-1.2244,-1.2176,-1.2108,-1.2115,-1.2176,-1.221,-1.2264,-1.2366,-1.2461,-1.2461,-1.2501,-1.2501,-1.2501,-1.2515,-1.2528,-1.2596,-1.2644,-1.2739,-1.2807,-2.1109,-2.1109,-2.1109,-2.1109,-2.1109,-2.1109,-2.1109,-2.1109,-2.1109,-2.1109,-2.1109,-2.1109,-2.1109,-2.1109,-2.1109,-2.1109,-2.1109,-2.1109,-2.1096,-2.1141,-2.0953,-2.0958,-2.0848,-2.0483,-2.0054,-1.9761,-1.9933,-2.0187,-2.0264,-2.0469,-2.0668,-2.0628,-2.0869,-2.1082,-2.1056,-2.1096,-2.1082,-2.1096,-2.1109,-2.1109,-2.1109,-2.1109,-2.1109,-2.1109,-2.0843,-1.9928,-1.8372,-1.7731,-1.7216,-1.5923,-1.4642,-1.2775,-1.103,-1.0683,-1.085,-1.0724,-1.0719,-1.0786,-1.1009,-1.1185,-1.1369,-1.1578,-1.1545,-1.1619,-1.1619,-1.1647,-1.1728,-1.1884,-1.2013,-1.2155,-1.2318,-1.2427,-1.2494,-1.2501,-1.2501,-1.2501,-1.2501,-1.2501,-1.2501,-1.2501,-1.2501,-1.2501,-1.2501,-1.2501,-1.2501,-1.2501,-1.2501,-1.2488,-1.2481,-1.2461,-1.2488,-1.2461,-1.2413,-1.24,-1.2366,-1.2366,-1.2359,-1.2332,-1.2284,-1.2291,-1.2305,-1.2325,-1.2345,-1.2447,-1.2501,-1.2501,-1.2501,-1.2501,-1.2501,-1.2508,-1.2576,-1.2684,-1.2773,-1.2834,-1.2935,-2.1109,-2.1109,-2.1109,-2.1109,-2.1109,-2.1109,-2.1109,-2.1109,-2.1109,-2.1109,-2.1109,-2.1109,-2.1109,-2.1109,-2.1109,-2.1109,-2.1109,-2.1109,-2.1109,-2.1096,-2.1042,-2.1118,-2.1108,-2.0903,-2.0766,-2.0563,-2.0362,-2.047,-2.0832,-2.078,-2.0681,-2.0695,-2.0975,-2.1109,-2.1109,-2.1109,-2.1109,-2.1109,-2.1109,-2.1109,-2.1109,-2.0982,-2.1109,-2.0982,-1.9814,-1.8372,-1.6431,-1.4101,-1.4006,-1.5643,-1.2964,-1.1233,-1.0822,-1.0711,-1.0717,-1.0731,-1.0772,-1.0894,-1.1077,-1.1192,-1.1328,-1.1538,-1.1592,-1.1619,-1.1619,-1.1714,-1.1837,-1.1986,-1.2142,-1.2284,-1.2413,-1.2481,-1.2501,-1.2501,-1.2522,-1.2522,-1.2515,-1.2501,-1.2501,-1.2501,-1.2508,-1.2501,-1.2501,-1.2501,-1.2501,-1.2501,-1.2501,-1.2501,-1.2501,-1.2501,-1.2501,-1.2501,-1.2474,-1.2488,-1.2488,-1.2488,-1.2481,-1.2467,-1.244,-1.2427,-1.2433,-1.244,-1.2454,-1.2501,-1.2501,-1.2501,-1.2501,-1.2501,-1.2501,-1.2501,-1.2556,-1.2644,-1.2752,-1.284,-1.299,-2.1109,-2.1109,-2.1109,-2.1109,-2.1109,-2.1109,-2.1109,-2.1109,-2.1109,-2.1109,-2.1109,-2.1109,-2.1109,-2.1109,-2.1109,-2.1109,-2.1109,-2.1109,-2.1109,-2.1109,-2.1096,-2.1141,-2.1118,-2.108,-2.1108,-2.1135,-2.0808,-2.0808,-2.104,-2.0983,-2.0842,-2.0895,-2.1029,-2.1096,-2.1109,-2.1109,-2.1109,-2.1109,-2.1109,-2.1109,-2.1109,-2.0335,-2.0068,-1.9674,-1.8384,-1.656,-1.4744,-1.215,-1.1791,-1.2856,-1.1784,-1.0717,-1.0717,-1.0717,-1.0717,-1.0724,-1.0826,-1.0995,-1.1138,-1.1274,-1.143,-1.1579,-1.1619,-1.1619,-1.164,-1.1748,-1.1891,-1.204,-1.2203,-1.2345,-1.2481,-1.2556,-1.2589,-1.261,-1.2651,-1.2664,-1.261,-1.2603,-1.2596,-1.2583,-1.2542,-1.2501,-1.2501,-1.2501,-1.2501,-1.2501,-1.2501,-1.2501,-1.2501,-1.2501,-1.2501,-1.2501,-1.2501,-1.2501,-1.2501,-1.2501,-1.2501,-1.2494,-1.2494,-1.2501,-1.2501,-1.2501,-1.2501,-1.2501,-1.2501,-1.2501,-1.2501,-1.2501,-1.2501,-1.2515,-1.2549,-1.2617,-1.2732,-1.2874,-1.3024,-2.1109,-2.1109,-2.1109,-2.1109,-2.1109,-2.1109,-2.1109,-2.1109,-2.1109,-2.1109,-2.1109,-2.1109,-2.1109,-2.1109,-2.1109,-2.1109,-2.1109,-2.1109,-2.1109,-2.1109,-2.1109,-2.1082,-2.1056,-2.1029,-2.1047,-2.1051,-2.1128,-2.1061,-2.1091,-2.1115,-2.1082,-2.1069,-2.1096,-2.1109,-2.1109,-2.1109,-2.1109,-2.1109,-2.1109,-2.0703,-2.0322,-1.9279,-1.8768,-1.7988,-1.656,-1.4874,-1.3193,-1.1505,-1.085,-1.0717,-1.0717,-1.0717,-1.0717,-1.0717,-1.0738,-1.0785,-1.0819,-1.0967,-1.1212,-1.1423,-1.1599,-1.164,-1.1653,-1.166,-1.1714,-1.1843,-1.1979,-1.2101,-1.2223,-1.2372,-1.2481,-1.2617,-1.2678,-1.2712,-1.2847,-1.2874,-1.2807,-1.2752,-1.2732,-1.2718,-1.2596,-1.2515,-1.2501,-1.2501,-1.2501,-1.2501,-1.2501,-1.2501,-1.2501,-1.2501,-1.2501,-1.2501,-1.2501,-1.2501,-1.2501,-1.2501,-1.2501,-1.2501,-1.2501,-1.2501,-1.2501,-1.2501,-1.2501,-1.2501,-1.2501,-1.2501,-1.2501,-1.2501,-1.2501,-1.2515,-1.2542,-1.263,-1.2745,-1.2908,-1.3064,-2.1109,-2.1109,-2.1109,-2.1109,-2.1109,-2.1109,-2.1109,-2.1109,-2.1109,-2.1109,-2.1109,-2.1109,-2.1109,-2.1109,-2.1109,-2.1109,-2.1109,-2.1109,-2.1109,-2.1109,-2.1109,-2.1109,-2.1109,-2.1109,-2.1069,-2.1029,-2.1069,-2.1069,-2.1042,-2.1056,-2.1109,-2.1109,-2.1109,-2.1109,-2.1109,-2.1109,-2.1109,-2.1109,-2.1109,-2.0043,-1.8732,-1.8361,-1.7602,-1.6302,-1.4754,-1.3062,-1.1637,-1.085,-1.0717,-1.0717,-1.0717,-1.0717,-1.0717,-1.0731,-1.0778,-1.088,-1.0962,-1.1111,-1.1301,-1.1416,-1.1545,-1.1735,-1.1616,-1.169,-1.1965,-1.1931,-1.2025,-1.2264,-1.2372,-1.2454,-1.2501,-1.2528,-1.2623,-1.2896,-1.3027,-1.299,-1.3017,-1.2868,-1.2759,-1.2712,-1.2603,-1.2501,-1.2501,-1.2501,-1.2501,-1.2501,-1.2501,-1.2501,-1.2501,-1.2501,-1.2501,-1.2501,-1.2501,-1.2501,-1.2501,-1.2501,-1.2501,-1.2501,-1.2501,-1.2501,-1.2501,-1.2501,-1.2501,-1.2501,-1.2501,-1.2501,-1.2501,-1.2501,-1.2501,-1.2522,-1.2542,-1.2617,-1.2732,-1.2915,-1.3064,-2.1109,-2.1109,-2.1109,-2.1109,-2.1109,-2.1109,-2.1109,-2.1109,-2.1109,-2.1109,-2.1109,-2.1109,-2.1109,-2.1109,-2.1109,-2.1109,-2.1109,-2.1109,-2.1109,-2.1109,-2.1109,-2.1109,-2.1109,-2.1109,-2.1109,-2.1109,-2.1109,-2.1109,-2.1109,-2.1109,-2.1109,-2.1109,-2.1109,-2.1109,-2.1109,-2.1109,-2.1149,-2.0795,-2.0221,-1.8884,-1.7183,-1.6291,-1.5265,-1.3709,-1.2545,-1.1505,-1.085,-1.0717,-1.0717,-1.0717,-1.0717,-1.0717,-1.0738,-1.0792,-1.0873,-1.0941,-1.1104,-1.1199,-1.1362,-1.1463,-1.1572,-1.1728,-1.1636,-1.1717,-1.1993,-1.1998,-1.2126,-1.2318,-1.2406,-1.2501,-1.2508,-1.2589,-1.2657,-1.2883,-1.3027,-1.299,-1.303,-1.2929,-1.284,-1.2793,-1.2644,-1.2542,-1.2501,-1.2501,-1.2501,-1.2501,-1.2501,-1.2501,-1.2501,-1.2501,-1.2501,-1.2501,-1.2501,-1.2501,-1.2501,-1.2501,-1.2501,-1.2501,-1.2501,-1.2501,-1.2501,-1.2501,-1.2501,-1.2501,-1.2501,-1.2501,-1.2501,-1.2501,-1.2501,-1.2508,-1.2535,-1.2596,-1.2684,-1.282,-1.2976,-2.1109,-2.1109,-2.1109,-2.1109,-2.1109,-2.1109,-2.1109,-2.1109,-2.1109,-2.1109,-2.1109,-2.1109,-2.1109,-2.1109,-2.1109,-2.1109,-2.1109,-2.1109,-2.1109,-2.1109,-2.1109,-2.1109,-2.1109,-2.1109,-2.1109,-2.1109,-2.1109,-2.1109,-2.1109,-2.1109,-2.1109,-2.1109,-2.1109,-2.1109,-2.1109,-2.0729,-2.0781,-2.0886,-1.9084,-1.7345,-1.5794,-1.4371,-1.2931,-1.1505,-1.1115,-1.0982,-1.0717,-1.0717,-1.0717,-1.0717,-1.0717,-1.0731,-1.0785,-1.086,-1.0968,-1.0989,-1.1219,-1.1369,-1.145,-1.1545,-1.1633,-1.1667,-1.1643,-1.175,-1.1858,-1.2189,-1.2311,-1.2372,-1.244,-1.2501,-1.2515,-1.2576,-1.2671,-1.2739,-1.2854,-1.2929,-1.2956,-1.2949,-1.2895,-1.2861,-1.2664,-1.2522,-1.2501,-1.2501,-1.2501,-1.2501,-1.2501,-1.2501,-1.2501,-1.2501,-1.2501,-1.2501,-1.2501,-1.2501,-1.2501,-1.2501,-1.2501,-1.2501,-1.2501,-1.2501,-1.2501,-1.2501,-1.2501,-1.2501,-1.2501,-1.2501,-1.2501,-1.2501,-1.2501,-1.2501,-1.2515,-1.2556,-1.2637,-1.2725,-1.2888,-2.1109,-2.1109,-2.1109,-2.1109,-2.1109,-2.1109,-2.1109,-2.1109,-2.1109,-2.1109,-2.1109,-2.1109,-2.1109,-2.1109,-2.1109,-2.1109,-2.1109,-2.1109,-2.1109,-2.1109,-2.1109,-2.1109,-2.1109,-2.1109,-2.1109,-2.1109,-2.1109,-2.1109,-2.1109,-2.1109,-2.1109,-2.1109,-2.1109,-2.1109,-2.0462,-1.9814,-1.9749,-1.9848,-1.7798,-1.5674,-1.439,-1.3464,-1.2413,-1.085,-1.0717,-1.0717,-1.0717,-1.0717,-1.0717,-1.0717,-1.0717,-1.0792,-1.088,-1.0941,-1.1029,-1.1145,-1.1307,-1.1457,-1.1545,-1.1592,-1.1755,-1.1911,-1.1837,-1.1835,-1.2139,-1.2406,-1.2433,-1.2454,-1.2474,-1.2501,-1.2501,-1.2542,-1.2603,-1.2527,-1.2745,-1.2813,-1.2881,-1.284,-1.2773,-1.2752,-1.2603,-1.2501,-1.2501,-1.2501,-1.2501,-1.2501,-1.2501,-1.2501,-1.2501,-1.2501,-1.2501,-1.2501,-1.2501,-1.2501,-1.2501,-1.2501,-1.2501,-1.2501,-1.2501,-1.2501,-1.2501,-1.2501,-1.2501,-1.2501,-1.2501,-1.2501,-1.2501,-1.2501,-1.2501,-1.2501,-1.2508,-1.2508,-1.2617,-1.2725,-1.2813,-2.1853,-2.1109,-2.1109,-2.1109,-2.1109,-2.1109,-2.1109,-2.1109,-2.1109,-2.1109,-2.1109,-2.1109,-2.1109,-2.1109,-2.1109,-2.1109,-2.1109,-2.1109,-2.1109,-2.1109,-2.1109,-2.1109,-2.1109,-2.1109,-2.1109,-2.1109,-2.1109,-2.1109,-2.1109,-2.1109,-2.1109,-2.1109,-2.1109,-2.0716,-1.9801,-1.9036,-1.8454,-1.8125,-1.5984,-1.3849,-1.2568,-1.2157,-1.1372,-1.0982,-1.0717,-1.0717,-1.0717,-1.0717,-1.0717,-1.0738,-1.0799,-1.0873,-1.0968,-1.1097,-1.1206,-1.1294,-1.1423,-1.1531,-1.1606,-1.1626,-1.1714,-1.1904,-1.1858,-1.2005,-1.2345,-1.2433,-1.2494,-1.2501,-1.2501,-1.2501,-1.2501,-1.2501,-1.2535,-1.2583,-1.2617,-1.2657,-1.2691,-1.2651,-1.2637,-1.2623,-1.2556,-1.2501,-1.2501,-1.2501,-1.2501,-1.2501,-1.2501,-1.2501,-1.2501,-1.2508,-1.2508,-1.2508,-1.2515,-1.2508,-1.2508,-1.2508,-1.2501,-1.2501,-1.2508,-1.2508,-1.2501,-1.2501,-1.2501,-1.2501,-1.2501,-1.2508,-1.2501,-1.2501,-1.2501,-1.2501,-1.2508,-1.2528,-1.263,-1.2725,-1.2813,-2.2341,-2.1109,-2.1109,-2.1109,-2.1109,-2.1109,-2.1109,-2.1109,-2.1109,-2.1109,-2.1109,-2.1109,-2.1109,-2.1109,-2.1109,-2.1109,-2.1109,-2.1109,-2.1109,-2.1109,-2.1109,-2.1109,-2.1109,-2.1109,-2.1109,-2.1109,-2.1109,-2.1109,-2.1109,-2.1109,-2.1109,-2.1109,-2.1109,-2.0195,-1.8896,-1.8116,-1.7033,-1.5753,-1.3761,-1.2025,-1.1115,-1.0717,-1.0717,-1.0717,-1.0717,-1.0717,-1.0717,-1.0717,-1.0717,-1.0758,-1.0846,-1.0962,-1.1029,-1.1246,-1.1396,-1.145,-1.1552,-1.1606,-1.1619,-1.1619,-1.1687,-1.1843,-1.1979,-1.2128,-1.2277,-1.242,-1.2501,-1.2501,-1.2501,-1.2528,-1.2556,-1.2522,-1.2528,-1.2556,-1.2542,-1.2508,-1.2535,-1.2535,-1.2542,-1.2528,-1.2501,-1.2501,-1.2508,-1.2501,-1.2501,-1.2501,-1.2501,-1.2515,-1.2515,-1.2522,-1.2522,-1.2528,-1.2528,-1.2522,-1.2522,-1.2522,-1.2515,-1.2501,-1.2508,-1.2522,-1.2508,-1.2501,-1.2508,-1.2515,-1.2522,-1.2522,-1.2515,-1.2515,-1.2522,-1.2522,-1.2508,-1.2535,-1.2603,-1.2698,-1.28,-2.1235,-2.1109,-2.1109,-2.1109,-2.1109,-2.1109,-2.1109,-2.1109,-2.1109,-2.1109,-2.1109,-2.1109,-2.1109,-2.1109,-2.1109,-2.1109,-2.1109,-2.1109,-2.1109,-2.1109,-2.1109,-2.1109,-2.1109,-2.1109,-2.1109,-2.1109,-2.1109,-2.1109,-2.1109,-2.1109,-2.1109,-2.1109,-2.0843,-2.0195,-1.8244,-1.6829,-1.6114,-1.526,-1.2716,-1.0982,-1.0717,-1.0717,-1.0717,-1.0717,-1.0717,-1.0717,-1.0717,-1.0717,-1.0717,-1.0738,-1.0873,-1.1009,-1.1276,-1.1294,-1.1457,-1.1552,-1.1613,-1.1619,-1.1619,-1.1619,-1.1701,-1.1843,-1.1986,-1.2128,-1.2291,-1.242,-1.2501,-1.2501,-1.2501,-1.2542,-1.2603,-1.2562,-1.2589,-1.2583,-1.2556,-1.2522,-1.2508,-1.2515,-1.2515,-1.2522,-1.2528,-1.2522,-1.2515,-1.2508,-1.2501,-1.2501,-1.2508,-1.2522,-1.2057,-1.1746,-1.1274,-1.0958,-1.1119,-1.1113,-1.2549,-1.2549,-1.1585,-1.1882,-1.2212,-1.238,-1.2535,-1.2528,-1.2528,-1.2542,-1.238,-1.2232,-1.2393,-1.2393,-1.2549,-1.207,-1.1585,-1.1908,-1.2549,-1.2664,-1.2793,-2.1109,-2.1109,-2.1109,-2.1109,-2.1109,-2.1109,-2.1109,-2.1109,-2.1109,-2.1109,-2.1109,-2.1109,-2.1109,-2.1109,-2.1109,-2.1109,-2.1109,-2.1109,-2.1109,-2.1109,-2.1109,-2.1109,-2.1109,-2.1109,-2.1109,-2.1109,-2.1109,-2.1109,-2.1109,-2.1109,-2.1109,-2.0843,-2.0068,-1.864,-1.7087,-1.5265,-1.3997,-1.284,-1.1519,-1.0717,-1.0717,-1.0717,-1.0717,-1.0717,-1.0717,-1.0717,-1.0717,-1.0717,-1.0717,-1.0765,-1.0928,-1.109,-1.1351,-1.1375,-1.1558,-1.1599,-1.1619,-1.1619,-1.1619,-1.1619,-1.1735,-1.1898,-1.1884,-1.2005,-1.2352,-1.2454,-1.2501,-1.2501,-1.2501,-1.2542,-1.2589,-1.2542,-1.2549,-1.2556,-1.2562,-1.2549,-1.2528,-1.2528,-1.2535,-1.2549,-1.2393,-1.1908,-1.1578,-1.1727,-1.1889,-1.2373,-1.2218,-1.207,-1.0969,-0.9708,-0.908,-0.8457,-0.8925,-0.9397,-1.1305,-1.2427,-1.0186,-1.0175,-1.1448,-1.1772,-1.2414,-1.2569,-1.2089,-1.1131,-1.0186,-1.067,-1.1797,-1.0987,-0.9864,-1.0025,-1.0503,-1.1137,-1.1622,-1.2527,-1.2185,-2.1042,-2.1096,-2.1109,-2.1109,-2.1109,-2.1109,-2.1109,-2.1109,-2.1109,-2.1109,-2.1109,-2.1109,-2.1109,-2.1109,-2.1109,-2.1109,-2.1109,-2.1109,-2.1109,-2.1109,-2.1109,-2.1109,-2.1109,-2.1109,-2.1109,-2.1109,-2.1109,-2.1109,-2.0969,-2.0589,-2.0195,-2.0449,-1.9291,-1.7345,-1.5394,-1.4101,-1.2808,-1.1247,-1.0857,-1.0717,-1.0717,-1.0717,-1.0717,-1.0717,-1.0717,-1.0717,-1.0717,-1.0717,-1.0717,-1.0765,-1.0995,-1.1151,-1.1344,-1.143,-1.1586,-1.1619,-1.1619,-1.1619,-1.1619,-1.164,-1.1748,-1.1884,-1.1918,-1.2018,-1.2433,-1.2501,-1.2501,-1.2501,-1.2501,-1.2522,-1.2542,-1.2542,-1.2556,-1.2569,-1.2562,-1.2556,-1.2238,-1.1604,-1.0653,-0.9864,-0.9713,-1.0197,-1.0025,-1.048,-1.1113,-1.2083,-1.2096,-1.146,-0.9885,-0.7838,-0.0,-0.0,-0.0,-0.0,-0.7361,-0.8627,-0.7677,-0.7994,-0.9261,-0.9891,-0.9885,-1.052,-1.0676,-0.9568,-0.8466,-1.0225,-1.2318,-0.9584,-0.7045,-0.7838,-0.8788,-0.9891,-1.071,-1.1597,-1.0259,-2.0869,-2.1109,-2.1096,-2.1082,-2.1096,-2.1109,-2.1096,-2.1042,-2.1082,-2.1096,-2.1109,-2.1109,-2.1109,-2.1109,-2.1109,-2.1109,-2.1109,-2.1109,-2.1109,-2.1109,-2.1109,-2.1109,-2.1109,-2.1109,-2.1109,-2.1109,-2.1109,-2.1109,-2.0716,-1.9674,-1.9024,-1.8512,-1.7859,-1.6172,-1.4493,-1.3193,-1.215,-1.0982,-1.0717,-1.0717,-1.0717,-1.0717,-1.0717,-1.0717,-1.0717,-1.0717,-1.0717,-1.0717,-1.0717,-1.0731,-1.1002,-1.1158,-1.1358,-1.1463,-1.1599,-1.1619,-1.1619,-1.1619,-1.1619,-1.1619,-1.164,-1.1728,-1.1925,-1.2203,-1.2467,-1.2501,-1.2501,-1.2501,-1.2501,-1.2556,-1.2596,-1.261,-1.2583,-1.2284,-1.2115,-1.1778,-1.1149,-0.9724,-0.8774,-0.7201,-0.6889,-0.7053,-0.911,-0.9729,-1.1143,-1.2122,-0.7833,-0.7053,-0.7377,-0.0,-0.0,-0.0,-0.0,-0.0,-0.0,-0.313,-0.5486,-0.5014,-0.4855,-0.5636,-0.6105,-0.0,-0.0,-0.848,-0.7698,-1.0252,-1.1227,-0.7385,-0.517,-0.5968,-0.6758,-0.6904,-0.7694,-0.8678,-0.6221,-2.0468,-2.0575,-2.0575,-2.0819,-2.1118,-2.1118,-2.1024,-2.1039,-2.1051,-2.1088,-2.1096,-2.1109,-2.1109,-2.1109,-2.1109,-2.1109,-2.1109,-2.1109,-2.1109,-2.1109,-2.1109,-2.1109,-2.1109,-2.1109,-2.1109,-2.1109,-2.1109,-2.1109,-2.0843,-1.9152,-1.7859,-1.7076,-1.6043,-1.4874,-1.3325,-1.2281,-1.1372,-1.0982,-1.0717,-1.0717,-1.0717,-1.0717,-1.0717,-1.0717,-1.0717,-1.0717,-1.0717,-1.0717,-1.0717,-1.0792,-1.1016,-1.1118,-1.1344,-1.1463,-1.1599,-1.1619,-1.1619,-1.1619,-1.1619,-1.164,-1.1694,-1.1911,-1.2088,-1.2284,-1.2481,-1.2501,-1.2501,-1.2501,-1.2501,-1.2556,-1.2576,-1.2569,-1.2407,-1.1985,-1.1516,-1.1173,-0.9735,-0.8002,-0.6271,-0.4542,-0.3762,-0.3609,-0.6285,-0.8978,-1.0722,-1.1835,-0.6751,-0.0,-0.0,-0.0,-0.0,-0.0,-0.0,-0.0,-0.0,-0.0,-0.0,-0.0,-0.0,-0.0,-0.0,-0.0,-0.0,-0.0,-0.0,-0.0,-0.0,-0.0,-0.0,-0.0,-0.0,-0.2668,-0.3925,-0.0,-0.0,-2.016,-2.0227,-2.0241,-2.0496,-2.1094,-2.0958,-2.0713,-2.0578,-2.059,-2.0846,-2.1128,-2.1056,-2.1109,-2.1109,-2.1109,-2.1109,-2.1109,-2.1109,-2.1109,-2.1109,-2.1109,-2.1109,-2.1109,-2.1109,-2.1109,-2.1109,-2.0969,-2.0843,-1.9079,-1.8221,-1.6689,-1.5005,-1.3456,-1.2676,-1.2281,-1.1505,-1.0717,-1.0717,-1.0717,-1.0717,-1.0717,-1.0717,-1.0717,-1.0717,-1.0717,-1.0717,-1.0717,-1.0717,-1.0717,-1.0812,-1.0968,-1.1131,-1.1267,-1.1416,-1.1586,-1.1619,-1.1619,-1.1619,-1.1626,-1.1687,-1.1796,-1.1999,-1.2176,-1.2338,-1.2454,-1.2501,-1.2501,-1.2501,-1.2501,-1.2515,-1.2549,-1.2549,-1.2569,-1.2148,-1.1354,-1.0699,-0.7381,-0.5335,-0.3452,-0.157,-0.0,-0.0,-0.0,-0.0,-0.0,-0.0,-0.0,-0.0,-0.0,-0.0,-0.0,-0.0,-0.0,-0.0,-0.0,-0.0,-0.0,-0.0,-0.0,-0.0,-0.0,-0.0,-0.0,-0.0,-0.0,-0.0,-0.0,-0.0,-0.0,-0.0,-0.0,-0.0,-0.0,-0.0,-0.0,-1.996,-2.0227,-2.0201,-2.0497,-2.0901,-2.051,-1.9958,-1.9611,-1.9542,-2.013,-2.097,-2.0922,-2.1029,-2.1029,-2.0989,-2.1029,-2.1056,-2.1082,-2.1109,-2.1109,-2.1109,-2.1109,-2.1109,-2.1109,-2.1109,-2.1109,-2.0589,-1.9103,-1.653,-1.6121,-1.4995,-1.3578,-1.215,-1.1108,-1.085,-1.0717,-1.0717,-1.0717,-1.0717,-1.0717,-1.0717,-1.0717,-1.0717,-1.0717,-1.0717,-1.0717,-1.0717,-1.0717,-1.0717,-1.0765,-1.1009,-1.1145,-1.1199,-1.1457,-1.1606,-1.1619,-1.1619,-1.1619,-1.1633,-1.1755,-1.1904,-1.2047,-1.2203,-1.2345,-1.2461,-1.2501,-1.2508,-1.2508,-1.2508,-1.2522,-1.2542,-1.2576,-1.246,-1.0386,-0.9286,-0.8028,-0.4719,-0.0,-0.0,-0.0,-0.0,-0.0,-0.0,-0.0,-0.0,-0.0,-0.0,-0.0,-0.0,-0.0,-0.0,-0.0,-0.0,-0.0,-0.0,-0.0,-0.0,-0.0,-0.0,-0.0,-0.0,-0.0,-0.0,-0.0,-0.0,-0.0,-0.0,-0.0,-0.0,-0.0,-0.0,-0.0,-0.0,-0.0,-0.0,-1.9573,-1.9666,-1.9666,-1.9797,-1.9956,-2.0145,-1.9853,-1.9443,-1.9456,-1.9839,-2.0347,-2.0099,-2.0249,-2.0438,-2.0611,-2.0815,-2.0842,-2.1069,-2.1109,-2.1096,-2.1096,-2.1109,-2.1109,-2.1109,-2.1109,-2.0716,-2.0055,-1.8442,-1.6008,-1.4957,-1.4092,-1.2931,-1.163,-1.085,-1.0717,-1.0717,-1.0717,-1.0717,-1.0717,-1.0717,-1.0717,-1.0717,-1.0717,-1.0717,-1.0717,-1.0717,-1.0717,-1.0717,-1.0717,-1.0758,-1.1002,-1.1145,-1.1212,-1.145,-1.1606,-1.1619,-1.1619,-1.1523,-1.1616,-1.1744,-1.1999,-1.2094,-1.221,-1.2366,-1.2474,-1.2501,-1.2508,-1.2367,-1.2057,-1.2083,-1.244,-1.2554,-1.1142,-0.4884,-0.2991,-0.2839,-0.0,-0.0,-0.0,-0.0,-0.0,-0.0,-0.0,-0.0,-0.0,-0.0,-0.0,-0.0,-0.0,-0.0,-0.0,-0.0,-0.0,-0.0,-0.0,-0.0,-0.0,-0.0,-0.0,-0.0,-0.0,-0.0,-0.0,-0.0,-0.0,-0.0,-0.0,-0.0,-0.0,-0.0,-0.0,-0.0,-0.0,-0.0,-0.0,-1.9372,-1.9372,-1.9372,-1.9372,-1.9515,-1.9821,-1.9663,-1.9439,-1.9404,-1.9641,-1.98,-1.9516,-1.9702,-2.0172,-2.0292,-2.0385,-2.0561,-2.0815,-2.0949,-2.0975,-2.1082,-2.1096,-2.1109,-2.1109,-2.1022,-2.0628,-1.9164,-1.7279,-1.3958,-1.3535,-1.2923,-1.215,-1.1372,-1.085,-1.0717,-1.0717,-1.0717,-1.0717,-1.0717,-1.0717,-1.0717,-1.0717,-1.0717,-1.0717,-1.0717,-1.0717,-1.0717,-1.0717,-1.0724,-1.0806,-1.0826,-1.1007,-1.1246,-1.1416,-1.1592,-1.1619,-1.1626,-1.1667,-1.1603,-1.1952,-1.2033,-1.2088,-1.225,-1.24,-1.2494,-1.2522,-1.2542,-1.2238,-1.1448,-1.1473,-1.1691,-1.1811,-0.8581,-0.2363,-0.0,-0.0,-0.0,-0.0,-0.0,-0.0,-0.0,-0.0,-0.0,-0.0,-0.0,-0.0,-0.0,-0.0,-0.0,-0.0,-0.0,-0.0,-0.0,-0.0,-0.0,-0.0,-0.0,-0.0,-0.0,-0.0,-0.0,-0.0,-0.0,-0.0,-0.0,-0.0,-0.0,-0.0,-0.0,-0.0,-0.0,-0.0,-0.0,-0.0,-0.0,-1.9372,-1.9372,-1.9372,-1.9372,-1.9372,-1.9515,-1.9386,-1.9386,-1.9391,-1.9378,-1.9404,-1.9507,-1.9679,-2.0026,-2.0201,-2.0227,-2.0281,-2.0535,-2.0628,-2.0748,-2.0909,-2.1002,-2.1069,-2.1096,-2.1049,-2.0451,-1.898,-1.6012,-1.1657,-1.2111,-1.2018,-1.124,-1.085,-1.0717,-1.0717,-1.0717,-1.0717,-1.0717,-1.0717,-1.0717,-1.0717,-1.0717,-1.0717,-1.0717,-1.0717,-1.0717,-1.0717,-1.0717,-1.0717,-1.0812,-1.0853,-1.0967,-1.1253,-1.1457,-1.1558,-1.1619,-1.1619,-1.1633,-1.1714,-1.1938,-1.2088,-1.2012,-1.1734,-1.2165,-1.2218,-1.1914,-1.1454,-1.1311,-1.0843,-1.0537,-1.0414,-0.8997,-0.7582,-0.0,-0.0,-0.0,-0.0,-0.0,-0.0,-0.0,-0.0,-0.0,-0.0,-0.0,-0.0,-0.0,-0.0,-0.0,-0.0,-0.0,-0.0,-0.0,-0.0,-0.0,-0.0,-0.0,-0.0,-0.0,-0.0,-0.0,-0.0,-0.0,-0.0,-0.0,-0.0,-0.0,-0.0,-0.0,-0.0,-0.0,-0.0,-0.0,-0.0,-0.0,-0.0,-1.9372,-1.9372,-1.9372,-1.9372,-1.9372,-1.9372,-1.9372,-1.9386,-1.9452,-1.9362,-1.9362,-1.9442,-1.9535,-1.9626,-1.9826,-1.9907,-2.0027,-2.0187,-2.0456,-2.0617,-2.0832,-2.1051,-2.102,-2.0889,-2.1049,-2.0349,-1.8489,-1.5394,-1.1811,-1.1468,-1.1505,-1.085,-1.0717,-1.0717,-1.0717,-1.0717,-1.0717,-1.0717,-1.0717,-1.0717,-1.0717,-1.0717,-1.0717,-1.0717,-1.0717,-1.0717,-1.0717,-1.0717,-1.0717,-1.0772,-1.073,-1.0869,-1.1185,-1.1436,-1.1619,-1.1619,-1.1626,-1.166,-1.163,-1.1817,-1.2128,-1.1618,-1.0229,-1.0314,-1.067,-1.0837,-1.0047,-0.9422,-0.9115,-0.865,-0.0,-0.0,-0.0,-0.0,-0.0,-0.0,-0.0,-0.0,-0.0,-0.0,-0.0,-0.0,-0.0,-0.0,-0.0,-0.0,-0.0,-0.0,-0.0,-0.0,-0.0,-0.0,-0.0,-0.0,-0.0,-0.0,-0.0,-0.0,-0.0,-0.0,-0.0,-0.0,-0.0,-0.0,-0.0,-0.0,-0.0,-0.0,-0.0,-0.0,-0.0,-0.0,-0.0,-0.0,-0.0,-1.9372,-1.9372,-1.9372,-1.9372,-1.9372,-1.9372,-1.9372,-1.9372,-1.9372,-1.9372,-1.9372,-1.9386,-1.9372,-1.9412,-1.9559,-1.9639,-1.9653,-1.992,-2.0067,-2.0295,-2.0604,-2.0916,-2.0913,-2.0029,-1.9864,-1.945,-1.7748,-1.425,-1.1454,-1.0683,-1.0717,-1.0717,-1.0717,-1.0717,-1.0717,-1.0717,-1.0717,-1.0717,-1.0717,-1.0717,-1.0717,-1.0717,-1.0717,-1.0717,-1.0717,-1.0717,-1.0717,-1.0717,-1.0717,-1.0758,-1.0723,-1.0869,-1.1212,-1.1443,-1.1613,-1.1619,-1.1633,-1.1667,-1.1603,-1.1616,-1.2094,-1.1795,-1.007,-1.0641,-1.0849,-1.1185,-0.8802,-0.6911,-0.6598,-0.0,-0.0,-0.0,-0.0,-0.0,-0.0,-0.0,-0.0,-0.0,-0.0,-0.0,-0.0,-0.0,-0.0,-0.0,-0.0,-0.0,-0.0,-0.0,-0.0,-0.0,-0.0,-0.0,-0.0,-0.0,-0.0,-0.0,-0.0,-0.0,-0.0,-0.0,-0.0,-0.0,-0.0,-0.0,-0.0,-0.0,-0.0,-0.0,-0.0,-0.0,-0.0,-0.0,-0.0,-0.0,-0.0,-1.9372,-1.9372,-1.9372,-1.9372,-1.9372,-1.9372,-1.9372,-1.9372,-1.9372,-1.9372,-1.9372,-1.9372,-1.9372,-1.9372,-1.9426,-1.9426,-1.9492,-1.9679,-1.9773,-1.98,-2.0011,-2.0398,-2.006,-1.8289,-1.8372,-1.8289,-1.7304,-1.4866,-1.1644,-1.0717,-1.0717,-1.0717,-1.0717,-1.0717,-1.0717,-1.0717,-1.0717,-1.0717,-1.0717,-1.0717,-1.0717,-1.0717,-1.0717,-1.0717,-1.0717,-1.0717,-1.0717,-1.0717,-1.0717,-1.0678,-1.069,-1.0862,-1.1181,-1.1457,-1.1586,-1.1633,-1.1647,-1.1667,-1.1583,-1.157,-1.0637,-1.1089,-1.2013,-1.0549,-0.9656,-0.848,-0.5651,-0.0,-0.0,-0.0,-0.0,-0.0,-0.0,-0.0,-0.0,-0.0,-0.0,-0.0,-0.0,-0.0,-0.0,-0.0,-0.0,-0.0,-0.0,-0.0,-0.0,-0.0,-0.0,-0.0,-0.0,-0.0,-0.0,-0.0,-0.0,-0.0,-0.0,-0.0,-0.0,-0.0,-0.0,-0.0,-0.0,-0.0,-0.0,-0.0,-0.0,-0.0,-0.0,-0.0,-0.0,-0.0,-0.0,-0.0,-0.0,-1.9372,-1.9372,-1.9372,-1.9372,-1.9372,-1.9372,-1.9372,-1.9372,-1.9372,-1.9372,-1.9372,-1.9372,-1.9372,-1.9372,-1.9372,-1.9372,-1.9412,-1.9466,-1.9466,-1.9508,-1.9614,-2.0117,-2.0601,-1.8908,-1.7139,-1.5704,-1.541,-1.5478,-1.1799,-1.0717,-1.0717,-1.0717,-1.0717,-1.0717,-1.0717,-1.0717,-1.0717,-1.0717,-1.0717,-1.0717,-1.0717,-1.0717,-1.0717,-1.0717,-1.0717,-1.0717,-1.0717,-1.0717,-1.0717,-1.0772,-1.0736,-1.0968,-1.1504,-1.1592,-1.1633,-1.1647,-1.1378,-1.1543,-1.1286,-1.048,-0.8336,-0.7186,-0.6954,-0.6546,-0.5532,-0.0,-0.0,-0.0,-0.0,-0.0,-0.0,-0.0,-0.0,-0.0,-0.0,-0.0,-0.0,-0.0,-0.0,-0.0,-0.0,-0.0,-0.0,-0.0,-0.0,-0.0,-0.0,-0.0,-0.0,-0.0,-0.0,-0.0,-0.0,-0.0,-0.0,-0.0,-0.0,-0.0,-0.0,-0.0,-0.0,-0.0,-0.0,-0.0,-0.0,-0.0,-0.0,-0.0,-0.0,-0.0,-0.0,-0.0,-0.0,-0.0,-0.0,-1.9179,-1.9428,-1.9435,-1.9372,-1.9372,-1.9372,-1.9372,-1.9372,-1.9372,-1.9372,-1.9372,-1.9372,-1.9372,-1.9372,-1.9372,-1.9359,-1.9359,-1.9372,-1.9439,-1.9442,-1.9272,-1.9732,-1.9555,-1.8022,-1.4728,-1.2645,-1.4041,-1.3707,-1.1122,-1.0717,-1.0717,-1.0717,-1.0717,-1.0717,-1.0717,-1.0717,-1.0717,-1.0717,-1.0717,-1.0717,-1.0717,-1.0717,-1.0717,-1.0717,-1.0717,-1.0717,-1.0717,-1.0717,-1.0717,-1.0799,-1.0866,-1.1107,-1.1463,-1.1592,-1.0612,-1.0047,-1.0221,-1.1576,-1.0565,-0.8236,-0.0,-0.0,-0.0,-0.0,-0.0,-0.0,-0.0,-0.0,-0.0,-0.0,-0.0,-0.0,-0.0,-0.0,-0.0,-0.0,-0.0,-0.0,-0.0,-0.0,-0.0,-0.0,-0.0,-0.0,-0.0,-0.0,-0.0,-0.0,-0.0,-0.0,-0.0,-0.0,-0.0,-0.0,-0.0,-0.0,-0.0,-0.0,-0.0,-0.0,-0.0,-0.0,-0.0,-0.0,-0.0,-0.0,-0.0,-0.0,-0.0,-0.0,-0.0,-0.0,-0.0,-0.0,-0.0,-1.8803,-1.9326,-1.934,-1.9461,-1.9372,-1.9372,-1.9372,-1.9372,-1.9372,-1.9372,-1.9372,-1.9372,-1.9372,-1.9372,-1.9372,-1.9243,-1.901,-1.8648,-1.8829,-1.8724,-1.8426,-1.8943,-1.7234,-1.4201,-1.2012,-1.0998,-1.1702,-1.1769,-1.0857,-1.0717,-1.0717,-1.0717,-1.0717,-1.0717,-1.0717,-1.0717,-1.0717,-1.0717,-1.0717,-1.0717,-1.0717,-1.0717,-1.0717,-1.0717,-1.0717,-1.0717,-1.0717,-1.0717,-1.0717,-1.0839,-1.1002,-1.124,-1.1443,-1.1592,-1.0185,-0.9184,-0.7733,-0.8624,-0.8043,-0.409,-0.0,-0.0,-0.0,-0.0,-0.0,-0.0,-0.0,-0.0,-0.0,-0.0,-0.0,-0.0,-0.0,-0.0,-0.0,-0.0,-0.0,-0.0,-0.0,-0.0,-0.0,-0.0,-0.0,-0.0,-0.0,-0.0,-0.0,-0.0,-0.0,-0.0,-0.0,-0.0,-0.0,-0.0,-0.0,-0.0,-0.0,-0.0,-0.0,-0.0,-0.0,-0.0,-0.0,-0.0,-0.0,-0.0,-0.0,-0.0,-0.0,-0.0,-0.0,-0.0,-0.0,-0.0,-0.0,-1.8664,-1.9058,-1.9253,-1.9401,-1.9461,-1.9359,-1.9372,-1.9372,-1.9372,-1.9372,-1.9372,-1.9372,-1.9372,-1.9372,-1.9372,-1.8997,-1.7923,-1.7689,-1.715,-1.677,-1.6504,-1.7502,-1.6664,-1.2665,-1.0912,-1.0575,-1.0747,-1.0697,-1.0717,-1.0717,-1.0717,-1.0717,-1.0717,-1.0717,-1.0717,-1.0717,-1.0717,-1.0717,-1.0717,-1.0717,-1.0717,-1.0717,-1.0717,-1.0717,-1.0717,-1.0717,-1.0717,-1.0717,-1.0717,-1.0812,-1.073,-1.0955,-1.0696,-1.0855,-1.0209,-0.7289,-0.5839,-0.0,-0.0,-0.0,-0.0,-0.0,-0.0,-0.0,-0.0,-0.0,-0.0,-0.0,-0.0,-0.0,-0.0,-0.0,-0.0,-0.0,-0.0,-0.0,-0.0,-0.0,-0.0,-0.0,-0.0,-0.0,-0.0,-0.0,-0.0,-0.0,-0.0,-0.0,-0.0,-0.0,-0.0,-0.0,-0.0,-0.0,-0.0,-0.0,-0.0,-0.0,-0.0,-0.0,-0.0,-0.0,-0.0,-0.0,-0.0,-0.0,-0.0,-0.0,-0.0,-0.0,-0.0,-0.0,-0.0,-0.0,-0.0]},{"header":{"parameterUnit":"m.s-1","parameterCategory":1,"la1":31.0,"la2":29.5877,"lo1":-88.7671,"lo2":-86.6584,"dy":0.0162,"dx":0.0185,"nx":115,"ny":88,"refTime":"2024-08-07T18:00:00:Z","depth":0,"parameterNumber":3,"parameterNumberName":"V-component_of_WINDS"},"data":[0.0,0.0,0.0,0.0,0.0,0.0,0.0,0.0,0.0,0.0,0.0,0.0,0.0,0.0,0.0,0.0,0.0,0.0,0.0,0.0,0.0,0.0,0.0,0.0,0.0,0.0,0.0,0.0,0.0,0.0,0.0,0.0,0.0,0.0,0.0,0.0,0.0,0.0,0.0,0.0,0.0,0.0,0.0,0.0,0.0,0.0,0.0,0.0,0.0,0.0,0.0,0.0,0.0,0.0,0.0,0.0,0.0,0.0,0.0,0.0,0.0,0.0,0.0,0.0,0.0,0.0,0.0,0.0,0.0,0.0,0.0,0.0,0.0,0.0,0.0,0.0,0.0,0.0,0.0,0.0,0.0,0.0,0.0,0.0,0.0,0.0,0.0,0.0,0.0,0.0,0.0,0.0,0.0,0.0,0.0,0.0,0.0,0.0,0.0,0.0,0.0,0.0,0.0,0.0,0.0,0.0,0.0,0.0,0.0,0.0,0.0,0.0,0.0,0.0,0.0,0.0,0.0,0.0,0.0,0.0,0.0,0.0,0.0,0.0,0.0,0.0,0.0,0.0,0.0,0.0,0.0,0.0,0.0,0.0,0.0,0.0,0.0,0.0,0.0,0.0,0.0,0.0,0.0,0.0,0.0,0.0,0.0,0.0,0.0,0.0,0.0,0.0,0.0,0.0,0.0,0.0,0.0,0.0,0.0,0.0,0.0,0.0,0.0,0.0,0.0,0.0,0.0,0.0,0.0,0.0,0.0,0.0,0.0,0.0,0.0,0.0,0.0,0.0,0.0,0.0,0.0,0.0,0.0,0.0,0.0,0.0,0.0,0.0,0.0,0.0,0.0,0.0,0.0,0.0,0.0,0.0,0.0,0.0,0.0,0.0,0.0,0.0,0.0,0.0,0.0,0.0,0.0,0.0,0.0,0.0,0.0,0.0,0.0,0.0,0.0,0.0,0.0,0.0,0.0,0.0,0.0,0.0,0.0,0.0,0.0,0.0,0.0,0.0,0.0,0.0,0.0,0.0,0.0,0.0,0.0,0.0,0.0,0.0,0.0,0.0,0.0,0.0,0.0,0.0,0.0,0.0,0.0,0.0,0.0,0.0,0.0,0.0,0.0,0.0,0.0,0.0,0.0,0.0,0.0,0.0,0.0,0.0,0.0,0.0,0.0,0.0,0.0,0.0,0.0,0.0,0.0,0.0,0.0,0.0,0.0,0.0,0.0,0.0,0.0,0.0,0.0,0.0,0.0,0.0,0.0,0.0,0.0,0.0,0.0,0.0,0.0,0.0,0.0,0.0,0.0,0.0,0.0,0.0,0.0,0.0,0.0,0.0,0.0,0.0,0.0,0.0,0.0,0.0,0.0,0.0,0.0,0.0,0.0,0.0,0.0,0.0,0.0,0.0,0.0,0.0,0.0,0.0,0.0,0.0,0.0,0.0,0.0,0.0,0.0,0.0,0.0,0.0,0.0,0.0,0.0,0.0,0.0,0.0,0.0,0.0,0.0,0.0,0.0,0.0,0.0,0.0,0.0,0.0,0.0,0.0,0.0,0.0,0.0,0.0,0.0,0.0,0.0,0.0,0.0,0.0,0.0,0.0,0.0,0.0,0.0,0.0,0.0,0.0,0.0,0.0,0.0,0.0,0.0,0.0,0.0,0.0,0.0,0.0,0.0,0.0,0.0,0.0,0.0,0.0,0.0,0.0,0.0,0.0,0.0,0.0,0.0,0.0,0.0,0.0,0.0,0.0,0.0,0.0,0.0,0.0,0.0,0.0,0.0,0.0,0.0,0.0,0.0,0.0,0.0,0.0,0.0,0.0,0.0,0.0,0.0,0.0,0.0,0.0,0.0,0.0,0.0,0.0,0.0,0.0,0.0,0.0,0.0,0.0,0.0,0.0,0.0,0.0,0.0,0.0,0.0,0.0,0.0,0.0,0.0,0.0,0.0,0.0,0.0,0.0,0.0,0.0,0.0,0.0,0.0,0.0,0.0,0.0,0.0,0.0,0.0,0.0,0.0,0.0,0.0,0.0,0.0,0.0,0.0,0.0,0.0,0.0,0.0,0.0,0.0,0.0,0.0,0.0,0.0,0.0,0.0,0.0,0.0,0.0,0.0,0.0,0.0,0.0,0.0,0.0,0.0,0.0,0.0,0.0,0.0,0.0,0.0,0.0,0.0,0.0,0.0,0.0,0.0,0.0,0.0,0.0,0.0,0.0,0.0,0.0,0.0,0.0,0.0,0.0,0.0,0.0,0.0,0.0,0.0,0.0,0.0,0.0,0.0,0.0,0.0,0.0,0.0,0.0,0.0,0.0,0.0,0.0,0.0,0.0,0.0,0.0,0.0,0.0,0.0,0.0,0.0,0.0,0.0,0.0,0.0,0.0,0.0,0.0,0.0,0.0,0.0,0.0,0.0,0.0,0.0,0.0,0.0,0.0,0.0,0.0,0.0,0.0,0.0,0.0,0.0,0.0,0.0,0.0,0.0,0.0,0.0,0.0,0.0,0.0,0.0,0.0,0.0,0.0,0.0,0.0,0.0,0.0,0.0,0.0,0.0,0.0,0.0,0.0,0.0,0.0,0.0,0.0,0.0,0.0,0.0,0.0,0.0,0.0,0.0,0.0,0.0,0.0,0.0,0.0,0.0,0.0,0.0,0.0,0.0,0.0,0.0,0.0,0.0,0.0,0.0,0.0,0.0,0.0,0.0,0.0,0.0,0.0,0.0,0.0,0.0,0.0,0.0,0.0,0.0,0.0,0.0,0.0,0.0,0.0,0.0,0.0,0.0,0.0,0.0,0.0,0.0,0.0,0.0,0.0,0.0,0.0,0.0,0.0,0.0,0.0,0.0,0.0,0.0,0.0,0.0,0.0,0.0,0.0,0.0,0.0,0.0,0.0,0.0,0.0,0.0,0.0,0.0,0.0,0.0,0.0,0.0,0.0,0.0,0.0,0.0,0.0,0.0,0.0,0.0,0.0,0.0,0.0,0.0,0.0,0.0,0.0,0.0,0.0,0.0,0.0,0.0,0.0,0.0,0.0,0.0,0.0,0.0,0.0,0.0,0.0,0.0,0.0,0.0,0.0,0.0,0.0,0.0,0.0,0.0,0.0,0.0,0.0,0.0,0.0,0.0,0.0,0.0,0.0,0.0,0.0,0.0,0.0,0.0,0.0,0.0,0.0,0.0,0.0,0.0,0.0,0.0,0.0,0.0,0.0,0.0,0.0,0.0,0.0,0.0,0.0,0.0,0.0,0.0,0.0,0.0,0.0,0.0,0.0,0.0,0.0,0.0,0.0,0.0,0.0,0.0,0.0,0.0,0.0,0.0,0.0,0.0,0.0,0.0,0.0,0.0,0.0,0.0,0.0,0.0,0.0,0.0,0.0,0.0,0.0,0.0,0.0,0.0,0.0,0.0,0.0,0.0,0.0,0.0,0.0,0.0,0.0,0.0,0.0,0.0,0.0,0.0,0.0,0.0,0.0,0.0,0.0,0.0,0.0,0.0,0.0,0.0,0.0,0.0,0.0,0.0,0.0,0.0,0.0,0.0,0.0,0.0,0.0,0.0,0.0,0.0,0.0,0.0,0.0,0.0,0.0,0.0,0.0,0.0,0.0,0.0,0.0,0.0,0.0,0.0,0.0,0.0,0.0,0.0,0.0,0.0,0.0,0.0,0.0,0.0,0.0,0.0,0.0,0.0,0.0,0.0,0.0,0.0,0.0,0.0,0.0,0.0,0.0,0.0,0.0,0.0,0.0,0.0,0.0,0.0,0.0,0.0,0.0,0.0,0.0,0.0,0.0,0.0,0.0,0.0,0.0,0.0,0.0,0.0,0.0,0.0,0.0,0.0,0.0,0.0,0.0,0.0,0.0,0.0,0.0,0.0,0.0,0.0,0.0,0.0,0.0,0.0,0.0,0.0,0.0,0.0,0.0,0.0,0.0,0.0,0.0,0.0,0.0,0.0,0.0,0.0,0.0,0.0,0.0,0.0,0.0,0.0,0.0,0.0,0.0,0.0,0.0,0.0,0.0,0.0,0.0,0.0,0.0,0.0,0.0,0.0,0.0,0.0,0.0,0.0,0.0,0.0,0.0,0.0,0.0,0.0,0.0,0.0,0.0,0.0,0.0,0.0,0.0,0.0,0.0,0.0,0.0,0.0,0.0,0.0,0.0,0.0,0.0,0.0,0.0,0.0,0.0,0.0,0.0,0.0,0.0,0.0,0.0,0.0,0.0,0.0,0.0,0.0,0.0,0.0,0.0,0.0,0.0,-2.5731,0.0,0.0,0.0,0.0,0.0,0.0,0.0,0.0,0.0,0.0,0.0,0.0,0.0,0.0,0.0,0.0,0.0,0.0,0.0,0.0,0.0,0.0,0.0,0.0,0.0,0.0,0.0,0.0,0.0,0.0,0.0,0.0,0.0,0.0,0.0,0.0,0.0,0.0,0.0,0.0,0.0,0.0,0.0,0.0,0.0,0.0,0.0,0.0,0.0,0.0,0.0,0.0,0.0,0.0,0.0,0.0,0.0,0.0,0.0,0.0,0.0,0.0,0.0,0.0,0.0,0.0,0.0,0.0,0.0,0.0,0.0,0.0,0.0,0.0,0.0,0.0,0.0,0.0,0.0,0.0,0.0,0.0,0.0,0.0,0.0,0.0,0.0,0.0,0.0,0.0,0.0,0.0,0.0,0.0,0.0,0.0,0.0,0.0,0.0,0.0,0.0,0.0,0.0,0.0,0.0,0.0,0.0,0.0,0.0,0.0,-2.5393,-2.5075,-2.5568,-2.57,-2.537,0.0,0.0,0.0,0.0,0.0,0.0,0.0,0.0,0.0,0.0,0.0,0.0,0.0,0.0,0.0,0.0,0.0,0.0,0.0,0.0,0.0,0.0,0.0,0.0,0.0,0.0,0.0,0.0,0.0,0.0,0.0,0.0,0.0,0.0,0.0,0.0,0.0,0.0,0.0,0.0,0.0,0.0,0.0,0.0,0.0,0.0,0.0,0.0,0.0,0.0,0.0,0.0,0.0,0.0,0.0,0.0,0.0,0.0,0.0,0.0,0.0,0.0,0.0,0.0,0.0,0.0,0.0,0.0,0.0,0.0,0.0,0.0,0.0,0.0,0.0,0.0,0.0,0.0,0.0,0.0,0.0,0.0,0.0,0.0,0.0,0.0,0.0,0.0,0.0,0.0,0.0,0.0,0.0,0.0,0.0,0.0,0.0,0.0,0.0,0.0,0.0,0.0,0.0,0.0,0.0,0.0,0.0,0.0,0.0,0.0,0.0,0.0,-2.6503,-2.654,-2.5801,0.0,0.0,0.0,0.0,0.0,0.0,0.0,0.0,0.0,0.0,0.0,0.0,0.0,0.0,0.0,0.0,0.0,0.0,0.0,0.0,0.0,0.0,0.0,0.0,0.0,0.0,0.0,0.0,0.0,0.0,0.0,0.0,0.0,0.0,0.0,0.0,0.0,0.0,0.0,0.0,0.0,0.0,0.0,0.0,0.0,0.0,0.0,0.0,0.0,0.0,0.0,0.0,0.0,0.0,0.0,0.0,0.0,0.0,0.0,0.0,0.0,0.0,0.0,0.0,0.0,0.0,0.0,0.0,0.0,0.0,0.0,0.0,0.0,0.0,0.0,0.0,0.0,0.0,0.0,0.0,0.0,0.0,0.0,0.0,0.0,0.0,0.0,0.0,0.0,0.0,0.0,0.0,0.0,0.0,0.0,0.0,0.0,0.0,0.0,0.0,0.0,0.0,0.0,0.0,0.0,0.0,0.0,0.0,0.0,0.0,-2.6934,-2.9522,-2.9576,0.0,-2.8768,0.0,0.0,0.0,0.0,0.0,0.0,0.0,0.0,0.0,0.0,0.0,0.0,0.0,0.0,0.0,0.0,0.0,0.0,0.0,0.0,0.0,0.0,0.0,0.0,0.0,0.0,0.0,0.0,0.0,0.0,0.0,0.0,0.0,0.0,0.0,0.0,0.0,0.0,0.0,0.0,0.0,0.0,0.0,0.0,0.0,0.0,0.0,0.0,0.0,0.0,0.0,0.0,0.0,0.0,0.0,0.0,0.0,0.0,0.0,0.0,0.0,0.0,0.0,0.0,0.0,0.0,0.0,0.0,0.0,0.0,0.0,0.0,0.0,0.0,0.0,0.0,0.0,0.0,0.0,0.0,0.0,0.0,0.0,0.0,0.0,0.0,0.0,0.0,0.0,0.0,0.0,0.0,0.0,0.0,0.0,0.0,0.0,0.0,0.0,0.0,0.0,0.0,0.0,0.0,0.0,0.0,0.0,0.0,0.0,0.0,-2.8063,-2.9291,-2.9435,-2.9397,0.0,0.0,0.0,0.0,0.0,0.0,0.0,0.0,0.0,0.0,0.0,0.0,0.0,0.0,0.0,0.0,0.0,0.0,0.0,0.0,0.0,0.0,0.0,0.0,0.0,0.0,0.0,0.0,0.0,0.0,0.0,0.0,0.0,0.0,0.0,0.0,0.0,0.0,0.0,0.0,0.0,0.0,0.0,0.0,0.0,0.0,0.0,0.0,0.0,0.0,0.0,0.0,0.0,0.0,0.0,0.0,0.0,0.0,0.0,0.0,0.0,0.0,0.0,0.0,0.0,0.0,0.0,0.0,0.0,0.0,0.0,0.0,0.0,0.0,0.0,0.0,0.0,0.0,0.0,0.0,0.0,0.0,0.0,0.0,0.0,0.0,0.0,0.0,0.0,0.0,0.0,0.0,0.0,0.0,0.0,0.0,0.0,0.0,0.0,0.0,0.0,0.0,0.0,0.0,0.0,0.0,0.0,0.0,0.0,0.0,-2.8009,-2.9125,-2.9947,-3.016,-2.996,-2.9279,0.0,0.0,0.0,0.0,0.0,0.0,0.0,0.0,0.0,0.0,0.0,0.0,0.0,0.0,0.0,0.0,0.0,0.0,0.0,0.0,0.0,0.0,0.0,0.0,0.0,0.0,0.0,0.0,0.0,0.0,0.0,0.0,0.0,0.0,0.0,0.0,0.0,0.0,0.0,0.0,0.0,0.0,0.0,0.0,0.0,0.0,0.0,0.0,0.0,0.0,0.0,0.0,0.0,0.0,0.0,0.0,0.0,0.0,0.0,0.0,0.0,0.0,0.0,0.0,0.0,0.0,0.0,0.0,0.0,0.0,0.0,0.0,0.0,0.0,0.0,0.0,0.0,0.0,0.0,0.0,0.0,0.0,0.0,0.0,0.0,0.0,0.0,0.0,0.0,0.0,0.0,0.0,0.0,0.0,0.0,0.0,0.0,0.0,0.0,0.0,0.0,0.0,0.0,0.0,0.0,0.0,0.0,0.0,0.0,-2.9805,-3.0083,-3.2904,-3.3014,-3.1824,0.0,0.0,0.0,0.0,0.0,0.0,0.0,0.0,0.0,0.0,0.0,0.0,0.0,0.0,0.0,0.0,0.0,0.0,0.0,0.0,0.0,0.0,0.0,0.0,0.0,0.0,0.0,0.0,0.0,0.0,0.0,0.0,0.0,0.0,0.0,0.0,0.0,0.0,0.0,0.0,0.0,0.0,0.0,0.0,0.0,0.0,0.0,0.0,0.0,0.0,0.0,0.0,0.0,0.0,0.0,0.0,0.0,0.0,0.0,0.0,0.0,0.0,0.0,0.0,0.0,0.0,0.0,0.0,0.0,0.0,0.0,0.0,0.0,0.0,0.0,0.0,0.0,0.0,0.0,0.0,0.0,0.0,0.0,0.0,0.0,0.0,0.0,0.0,0.0,0.0,0.0,0.0,0.0,0.0,0.0,0.0,0.0,0.0,0.0,0.0,0.0,0.0,0.0,0.0,0.0,0.0,0.0,0.0,0.0,-2.7151,-2.8387,-3.1202,-3.5476,-3.2505,-3.1053,0.0,0.0,0.0,0.0,0.0,0.0,0.0,0.0,0.0,0.0,0.0,0.0,0.0,0.0,0.0,0.0,0.0,0.0,0.0,0.0,0.0,0.0,0.0,0.0,0.0,0.0,0.0,0.0,0.0,0.0,0.0,0.0,0.0,0.0,0.0,0.0,0.0,0.0,0.0,0.0,0.0,0.0,0.0,0.0,0.0,0.0,0.0,0.0,0.0,0.0,0.0,0.0,0.0,0.0,0.0,0.0,0.0,0.0,0.0,0.0,0.0,0.0,0.0,0.0,0.0,0.0,0.0,0.0,0.0,0.0,0.0,0.0,0.0,0.0,0.0,0.0,0.0,0.0,0.0,0.0,0.0,0.0,0.0,0.0,0.0,0.0,0.0,0.0,0.0,0.0,0.0,0.0,0.0,0.0,0.0,0.0,0.0,0.0,0.0,0.0,0.0,0.0,0.0,0.0,0.0,0.0,0.0,0.0,0.0,-2.6983,0.0,-3.3134,0.0,-3.2494,-3.0657,0.0,0.0,0.0,0.0,0.0,0.0,0.0,0.0,0.0,0.0,0.0,0.0,0.0,0.0,0.0,0.0,0.0,0.0,0.0,0.0,0.0,0.0,0.0,0.0,0.0,0.0,0.0,0.0,0.0,0.0,0.0,0.0,0.0,0.0,0.0,0.0,0.0,0.0,0.0,0.0,0.0,0.0,0.0,0.0,0.0,0.0,0.0,0.0,0.0,0.0,0.0,0.0,0.0,0.0,0.0,0.0,0.0,0.0,0.0,0.0,0.0,0.0,0.0,0.0,0.0,0.0,0.0,0.0,0.0,0.0,0.0,0.0,0.0,0.0,0.0,0.0,0.0,0.0,0.0,0.0,0.0,0.0,0.0,0.0,0.0,0.0,0.0,0.0,0.0,0.0,0.0,0.0,0.0,0.0,0.0,0.0,0.0,0.0,0.0,0.0,0.0,0.0,0.0,0.0,0.0,0.0,0.0,0.0,-2.6364,-3.2321,-3.5242,-3.5625,-3.3593,-3.3206,-3.0834,0.0,0.0,0.0,0.0,0.0,0.0,0.0,0.0,0.0,0.0,0.0,0.0,0.0,0.0,0.0,0.0,0.0,0.0,0.0,0.0,0.0,0.0,0.0,0.0,0.0,0.0,0.0,0.0,0.0,0.0,0.0,0.0,0.0,0.0,0.0,0.0,0.0,0.0,0.0,0.0,0.0,0.0,0.0,0.0,0.0,0.0,0.0,0.0,0.0,0.0,0.0,0.0,0.0,0.0,0.0,0.0,0.0,0.0,0.0,0.0,0.0,0.0,0.0,0.0,0.0,0.0,0.0,0.0,0.0,0.0,0.0,0.0,0.0,0.0,0.0,0.0,0.0,0.0,0.0,0.0,0.0,0.0,0.0,0.0,0.0,0.0,0.0,0.0,0.0,0.0,0.0,0.0,0.0,0.0,0.0,0.0,0.0,0.0,0.0,0.0,0.0,0.0,0.0,0.0,0.0,0.0,0.0,0.0,0.0,-2.9872,-3.2842,-3.4892,-3.5699,-3.2421,-3.0633,0.0,0.0,0.0,0.0,0.0,0.0,0.0,0.0,0.0,0.0,0.0,0.0,0.0,0.0,0.0,0.0,0.0,0.0,0.0,0.0,0.0,0.0,0.0,0.0,0.0,0.0,0.0,0.0,0.0,0.0,0.0,0.0,0.0,0.0,0.0,0.0,0.0,0.0,0.0,0.0,0.0,0.0,0.0,0.0,0.0,0.0,0.0,0.0,0.0,0.0,0.0,0.0,0.0,0.0,0.0,0.0,0.0,0.0,0.0,0.0,0.0,0.0,0.0,0.0,0.0,0.0,0.0,0.0,0.0,0.0,0.0,0.0,0.0,0.0,0.0,0.0,0.0,0.0,0.0,0.0,0.0,0.0,0.0,0.0,0.0,0.0,0.0,0.0,0.0,0.0,0.0,0.0,0.0,0.0,0.0,0.0,0.0,0.0,0.0,0.0,0.0,0.0,0.0,0.0,0.0,0.0,0.0,0.0,0.0,-3.132,-3.4241,-3.619,-3.6832,-3.2976,-3.091,-3.0926,0.0,0.0,0.0,0.0,0.0,0.0,0.0,0.0,0.0,0.0,0.0,0.0,0.0,0.0,0.0,0.0,0.0,0.0,0.0,0.0,0.0,0.0,0.0,0.0,0.0,0.0,0.0,0.0,0.0,0.0,0.0,0.0,0.0,0.0,0.0,0.0,0.0,0.0,0.0,0.0,0.0,0.0,0.0,0.0,0.0,0.0,0.0,0.0,0.0,0.0,0.0,0.0,0.0,0.0,0.0,0.0,0.0,0.0,0.0,0.0,0.0,0.0,0.0,0.0,0.0,0.0,0.0,0.0,0.0,0.0,0.0,0.0,0.0,0.0,0.0,0.0,0.0,0.0,0.0,0.0,0.0,0.0,0.0,0.0,0.0,0.0,0.0,0.0,0.0,0.0,0.0,0.0,0.0,0.0,0.0,0.0,0.0,0.0,0.0,0.0,0.0,0.0,0.0,0.0,0.0,0.0,0.0,0.0,-3.5427,-3.8643,-3.9166,-3.6901,-3.4588,-3.16,0.0,0.0,0.0,0.0,0.0,0.0,0.0,0.0,0.0,0.0,0.0,0.0,0.0,0.0,0.0,0.0,0.0,0.0,0.0,0.0,0.0,0.0,0.0,0.0,0.0,0.0,0.0,0.0,0.0,0.0,0.0,0.0,0.0,0.0,0.0,0.0,0.0,0.0,0.0,0.0,0.0,0.0,0.0,0.0,0.0,0.0,0.0,0.0,0.0,0.0,0.0,0.0,0.0,0.0,0.0,0.0,0.0,0.0,0.0,0.0,0.0,0.0,0.0,0.0,0.0,0.0,0.0,0.0,0.0,0.0,0.0,0.0,0.0,0.0,0.0,0.0,0.0,0.0,0.0,0.0,0.0,0.0,0.0,0.0,0.0,0.0,0.0,0.0,0.0,0.0,0.0,0.0,0.0,0.0,0.0,0.0,0.0,0.0,0.0,0.0,0.0,0.0,0.0,0.0,0.0,0.0,0.0,0.0,0.0,-3.4934,-3.7828,-3.9288,-3.9085,-3.4835,-3.1821,0.0,0.0,0.0,0.0,0.0,0.0,0.0,0.0,0.0,0.0,0.0,0.0,0.0,0.0,0.0,0.0,0.0,0.0,0.0,0.0,0.0,0.0,0.0,0.0,0.0,0.0,0.0,0.0,0.0,0.0,0.0,0.0,0.0,0.0,0.0,0.0,0.0,0.0,0.0,0.0,0.0,0.0,0.0,0.0,0.0,0.0,0.0,0.0,0.0,0.0,0.0,0.0,0.0,0.0,0.0,0.0,0.0,0.0,0.0,0.0,0.0,0.0,0.0,0.0,0.0,0.0,0.0,0.0,0.0,0.0,0.0,0.0,0.0,0.0,0.0,0.0,0.0,0.0,0.0,0.0,0.0,0.0,0.0,0.0,0.0,0.0,0.0,0.0,0.0,0.0,0.0,0.0,0.0,0.0,0.0,0.0,0.0,0.0,0.0,0.0,0.0,0.0,0.0,0.0,0.0,0.0,0.0,0.0,-3.4477,-3.6611,-3.7978,-3.8867,-3.9341,-3.5344,-3.2314,0.0,0.0,0.0,0.0,0.0,0.0,0.0,0.0,0.0,0.0,0.0,0.0,0.0,0.0,0.0,0.0,0.0,0.0,0.0,0.0,0.0,0.0,0.0,0.0,0.0,0.0,0.0,0.0,0.0,0.0,0.0,0.0,0.0,0.0,0.0,0.0,0.0,0.0,0.0,0.0,0.0,0.0,0.0,0.0,0.0,0.0,0.0,0.0,0.0,0.0,0.0,0.0,0.0,0.0,0.0,0.0,0.0,0.0,0.0,0.0,0.0,0.0,0.0,0.0,0.0,0.0,0.0,0.0,0.0,0.0,0.0,0.0,0.0,0.0,0.0,0.0,0.0,0.0,0.0,0.0,0.0,0.0,0.0,0.0,0.0,0.0,0.0,0.0,0.0,0.0,0.0,0.0,0.0,0.0,0.0,0.0,0.0,0.0,0.0,0.0,0.0,0.0,0.0,0.0,0.0,0.0,0.0,0.0,-3.5513,-3.8751,-3.8386,-3.8173,-3.8125,-3.5857,-3.2861,0.0,0.0,0.0,0.0,0.0,0.0,0.0,0.0,0.0,0.0,0.0,0.0,0.0,0.0,0.0,0.0,0.0,0.0,0.0,0.0,0.0,0.0,0.0,0.0,0.0,0.0,0.0,0.0,0.0,0.0,0.0,0.0,0.0,0.0,0.0,0.0,0.0,0.0,0.0,0.0,0.0,0.0,0.0,0.0,0.0,0.0,0.0,0.0,0.0,0.0,0.0,0.0,0.0,0.0,0.0,0.0,0.0,0.0,0.0,0.0,0.0,0.0,0.0,0.0,0.0,0.0,0.0,0.0,0.0,0.0,0.0,0.0,0.0,0.0,0.0,0.0,0.0,0.0,0.0,0.0,0.0,0.0,0.0,0.0,0.0,0.0,0.0,0.0,0.0,0.0,0.0,0.0,0.0,0.0,0.0,0.0,0.0,0.0,0.0,0.0,0.0,0.0,0.0,0.0,0.0,0.0,0.0,0.0,-3.5435,-3.6051,-3.7124,-3.7447,-3.6824,-3.4788,-3.2574,0.0,0.0,0.0,0.0,0.0,0.0,0.0,0.0,0.0,0.0,0.0,0.0,0.0,0.0,0.0,0.0,0.0,0.0,0.0,0.0,0.0,0.0,0.0,0.0,0.0,0.0,0.0,0.0,0.0,0.0,0.0,0.0,0.0,0.0,0.0,0.0,0.0,0.0,0.0,0.0,0.0,0.0,0.0,0.0,0.0,0.0,0.0,0.0,-3.215,0.0,0.0,0.0,0.0,0.0,0.0,0.0,0.0,0.0,0.0,0.0,0.0,0.0,0.0,0.0,0.0,0.0,0.0,0.0,0.0,0.0,0.0,0.0,0.0,0.0,0.0,0.0,0.0,0.0,0.0,0.0,0.0,0.0,0.0,0.0,0.0,0.0,0.0,0.0,0.0,0.0,0.0,0.0,0.0,0.0,0.0,0.0,0.0,0.0,0.0,0.0,0.0,0.0,0.0,0.0,0.0,0.0,0.0,0.0,-3.6007,-3.706,-3.7431,-3.7216,-3.6416,-3.482,-3.2807,0.0,0.0,0.0,0.0,0.0,0.0,0.0,0.0,0.0,0.0,0.0,0.0,0.0,0.0,0.0,0.0,0.0,0.0,0.0,0.0,0.0,0.0,0.0,0.0,0.0,0.0,0.0,0.0,0.0,0.0,0.0,0.0,0.0,0.0,0.0,0.0,0.0,0.0,0.0,0.0,0.0,0.0,0.0,0.0,0.0,0.0,0.0,0.0,0.0,0.0,0.0,0.0,0.0,0.0,0.0,0.0,0.0,0.0,0.0,0.0,0.0,0.0,0.0,0.0,0.0,0.0,0.0,0.0,0.0,0.0,0.0,0.0,0.0,0.0,0.0,0.0,0.0,0.0,0.0,0.0,0.0,0.0,0.0,0.0,0.0,0.0,0.0,0.0,0.0,0.0,0.0,0.0,0.0,0.0,0.0,0.0,0.0,0.0,0.0,0.0,0.0,0.0,0.0,0.0,0.0,0.0,0.0,-3.4444,-3.6522,-3.8899,-3.8047,-3.7114,-3.6284,-3.517,-3.325,-3.0408,0.0,0.0,0.0,0.0,0.0,0.0,0.0,0.0,0.0,0.0,0.0,0.0,0.0,0.0,0.0,0.0,0.0,0.0,0.0,0.0,0.0,0.0,0.0,0.0,0.0,0.0,0.0,0.0,0.0,0.0,0.0,0.0,0.0,0.0,0.0,0.0,0.0,0.0,-3.2206,-3.4587,0.0,0.0,0.0,0.0,0.0,0.0,0.0,0.0,-3.3981,0.0,0.0,0.0,0.0,0.0,0.0,0.0,0.0,0.0,0.0,0.0,0.0,0.0,0.0,0.0,0.0,0.0,0.0,0.0,0.0,0.0,0.0,0.0,0.0,0.0,0.0,0.0,0.0,0.0,0.0,0.0,0.0,0.0,0.0,0.0,0.0,0.0,0.0,0.0,0.0,0.0,0.0,0.0,0.0,0.0,0.0,0.0,0.0,0.0,0.0,0.0,0.0,0.0,0.0,0.0,0.0,-3.5532,-3.4786,-3.5669,-3.8431,-3.7725,-3.6769,-3.5756,-3.4971,-3.3483,-3.1078,0.0,0.0,0.0,0.0,0.0,0.0,0.0,0.0,0.0,0.0,0.0,0.0,0.0,0.0,0.0,0.0,0.0,0.0,0.0,0.0,0.0,0.0,0.0,0.0,0.0,0.0,0.0,0.0,0.0,0.0,0.0,0.0,0.0,0.0,0.0,0.0,0.0,0.0,0.0,-3.8294,-3.9656,0.0,0.0,0.0,0.0,0.0,0.0,0.0,0.0,-3.5228,0.0,0.0,0.0,0.0,0.0,0.0,0.0,0.0,0.0,0.0,0.0,0.0,0.0,0.0,0.0,0.0,0.0,0.0,0.0,0.0,0.0,0.0,0.0,0.0,0.0,0.0,0.0,0.0,0.0,0.0,0.0,0.0,0.0,0.0,0.0,0.0,0.0,0.0,0.0,0.0,0.0,0.0,0.0,0.0,0.0,0.0,0.0,0.0,0.0,0.0,0.0,0.0,0.0,0.0,0.0,-3.428,-3.5174,-3.6427,-3.8182,-3.7595,-3.6719,-3.5588,-3.386,-3.2056,0.0,0.0,0.0,0.0,0.0,0.0,0.0,0.0,0.0,0.0,0.0,0.0,0.0,0.0,0.0,0.0,0.0,0.0,0.0,0.0,0.0,0.0,0.0,0.0,0.0,0.0,0.0,0.0,0.0,0.0,0.0,0.0,0.0,0.0,0.0,0.0,0.0,0.0,0.0,0.0,-3.87,-3.9877,-4.1091,0.0,0.0,0.0,0.0,0.0,0.0,-3.7117,-3.7188,0.0,0.0,0.0,0.0,0.0,0.0,0.0,0.0,0.0,0.0,0.0,0.0,0.0,0.0,0.0,0.0,0.0,0.0,0.0,0.0,0.0,0.0,0.0,0.0,0.0,0.0,0.0,0.0,0.0,0.0,0.0,0.0,0.0,0.0,0.0,0.0,0.0,0.0,0.0,0.0,0.0,0.0,0.0,0.0,0.0,0.0,0.0,0.0,0.0,0.0,0.0,0.0,0.0,0.0,0.0,-3.2713,-3.5081,-3.6929,-3.8003,-3.7532,-3.6666,-3.5599,-3.3217,-3.1172,0.0,0.0,0.0,0.0,0.0,0.0,0.0,0.0,0.0,0.0,0.0,0.0,0.0,0.0,0.0,0.0,0.0,0.0,0.0,0.0,0.0,0.0,0.0,0.0,0.0,0.0,0.0,0.0,0.0,0.0,0.0,0.0,0.0,0.0,0.0,0.0,0.0,0.0,0.0,0.0,0.0,-4.0405,-4.2167,-4.1254,0.0,0.0,0.0,0.0,-3.8809,-3.9294,0.0,0.0,0.0,0.0,0.0,0.0,0.0,0.0,0.0,0.0,0.0,0.0,0.0,0.0,0.0,0.0,0.0,0.0,0.0,0.0,0.0,0.0,0.0,0.0,0.0,0.0,0.0,0.0,0.0,0.0,0.0,0.0,0.0,0.0,0.0,0.0,0.0,0.0,0.0,0.0,0.0,0.0,0.0,0.0,0.0,0.0,0.0,0.0,0.0,0.0,0.0,0.0,0.0,0.0,0.0,0.0,-3.2365,-3.3945,-3.5752,-3.768,-3.7388,-3.6666,-3.5667,-3.4665,-3.2832,0.0,0.0,0.0,0.0,0.0,0.0,0.0,0.0,0.0,0.0,0.0,0.0,0.0,0.0,0.0,0.0,0.0,0.0,0.0,0.0,0.0,0.0,0.0,0.0,0.0,0.0,0.0,0.0,0.0,0.0,0.0,0.0,0.0,0.0,0.0,0.0,0.0,0.0,0.0,0.0,0.0,-4.3818,-4.3634,-4.2255,-4.1532,0.0,0.0,-4.0498,-4.1611,-4.1618,0.0,0.0,0.0,0.0,0.0,0.0,0.0,0.0,0.0,0.0,0.0,0.0,0.0,0.0,0.0,0.0,0.0,0.0,0.0,0.0,0.0,0.0,0.0,0.0,0.0,0.0,0.0,0.0,0.0,0.0,0.0,0.0,0.0,0.0,0.0,0.0,0.0,0.0,0.0,0.0,0.0,0.0,0.0,0.0,0.0,0.0,0.0,0.0,0.0,0.0,0.0,0.0,0.0,0.0,0.0,-3.0304,-3.2457,-3.4824,-3.6567,-3.7642,-3.7352,-3.6666,-3.5622,-3.366,-3.163,0.0,0.0,0.0,0.0,0.0,0.0,0.0,0.0,0.0,0.0,0.0,0.0,0.0,0.0,0.0,0.0,0.0,0.0,0.0,0.0,0.0,0.0,0.0,0.0,0.0,0.0,0.0,0.0,0.0,0.0,0.0,0.0,0.0,0.0,0.0,0.0,0.0,0.0,0.0,0.0,0.0,0.0,-4.4471,-4.3846,0.0,0.0,0.0,-4.265,-4.2524,0.0,0.0,0.0,0.0,0.0,0.0,0.0,0.0,0.0,0.0,0.0,0.0,0.0,0.0,0.0,0.0,0.0,0.0,0.0,0.0,0.0,0.0,0.0,0.0,0.0,0.0,0.0,0.0,0.0,0.0,0.0,0.0,0.0,0.0,0.0,0.0,0.0,0.0,0.0,0.0,0.0,0.0,0.0,0.0,0.0,0.0,0.0,0.0,0.0,0.0,0.0,0.0,0.0,0.0,0.0,0.0,0.0,-3.2436,-3.5496,-3.7177,-3.7463,-3.7317,-3.6666,-3.5633,-3.3085,0.0,0.0,0.0,0.0,0.0,0.0,0.0,0.0,0.0,0.0,0.0,0.0,0.0,0.0,0.0,0.0,0.0,0.0,0.0,0.0,0.0,0.0,0.0,0.0,0.0,0.0,0.0,-2.9099,0.0,0.0,0.0,0.0,0.0,0.0,0.0,0.0,0.0,0.0,0.0,0.0,0.0,0.0,-4.2745,-4.4841,-4.5032,-4.4955,0.0,0.0,-4.4343,-4.3569,-4.3674,-4.3294,0.0,0.0,0.0,0.0,0.0,0.0,0.0,0.0,0.0,0.0,0.0,0.0,0.0,0.0,0.0,0.0,0.0,0.0,0.0,0.0,0.0,0.0,0.0,0.0,0.0,0.0,0.0,0.0,0.0,0.0,0.0,0.0,0.0,0.0,0.0,0.0,0.0,0.0,0.0,0.0,0.0,0.0,0.0,0.0,0.0,0.0,0.0,0.0,0.0,0.0,0.0,0.0,0.0,0.0,0.0,-3.2185,-3.5168,-3.6897,-3.7212,-3.7246,-3.6666,-3.5633,-3.41,-3.1901,0.0,0.0,0.0,0.0,0.0,0.0,0.0,0.0,0.0,0.0,0.0,0.0,0.0,0.0,0.0,0.0,0.0,0.0,0.0,0.0,0.0,0.0,0.0,0.0,0.0,0.0,0.0,0.0,0.0,0.0,0.0,0.0,0.0,0.0,0.0,0.0,0.0,0.0,0.0,0.0,0.0,-4.4531,-4.4543,-4.5232,-4.574,0.0,0.0,-4.4616,-4.5456,-4.5488,-4.4624,-4.22,0.0,0.0,0.0,0.0,0.0,0.0,0.0,0.0,0.0,0.0,0.0,0.0,0.0,0.0,0.0,0.0,0.0,0.0,0.0,0.0,0.0,0.0,0.0,0.0,0.0,0.0,0.0,0.0,0.0,0.0,0.0,0.0,0.0,0.0,0.0,0.0,0.0,0.0,0.0,0.0,0.0,0.0,0.0,0.0,0.0,0.0,0.0,0.0,0.0,0.0,0.0,0.0,0.0,-3.1352,-3.2596,-3.5802,-3.7505,-3.7631,-3.7647,-3.7126,-3.6129,-3.5095,-3.3214,0.0,0.0,0.0,0.0,0.0,0.0,0.0,0.0,0.0,0.0,0.0,0.0,0.0,0.0,0.0,0.0,0.0,0.0,0.0,0.0,0.0,0.0,0.0,0.0,0.0,0.0,0.0,0.0,-3.4336,-3.4531,-3.4531,0.0,0.0,0.0,0.0,0.0,0.0,0.0,0.0,0.0,0.0,-4.5172,-4.535,-4.6118,0.0,0.0,-4.548,-4.5256,-4.5342,-4.5035,-4.4418,-4.3216,-4.2846,0.0,0.0,0.0,0.0,0.0,0.0,0.0,0.0,0.0,0.0,0.0,0.0,0.0,0.0,0.0,0.0,0.0,0.0,0.0,0.0,0.0,0.0,0.0,0.0,0.0,0.0,0.0,0.0,0.0,0.0,0.0,0.0,0.0,0.0,0.0,0.0,0.0,0.0,0.0,0.0,0.0,0.0,0.0,0.0,0.0,0.0,0.0,0.0,0.0,0.0,0.0,0.0,-3.1751,-3.3264,-3.6496,-3.8264,-3.8615,-3.8637,-3.822,-3.7359,-3.647,-3.4772,0.0,0.0,0.0,0.0,0.0,0.0,0.0,0.0,0.0,0.0,0.0,0.0,0.0,0.0,0.0,0.0,0.0,0.0,0.0,0.0,0.0,0.0,0.0,0.0,0.0,0.0,0.0,0.0,-3.6716,-3.6641,-3.6367,0.0,0.0,0.0,0.0,0.0,0.0,0.0,0.0,0.0,0.0,-4.5887,-4.6206,-4.6771,-4.6814,-4.5873,-4.5757,-4.5609,-4.5321,-4.5131,-4.4841,-4.4077,0.0,0.0,0.0,0.0,0.0,0.0,0.0,0.0,0.0,0.0,0.0,0.0,0.0,0.0,0.0,0.0,0.0,0.0,0.0,0.0,0.0,0.0,0.0,0.0,0.0,0.0,0.0,0.0,0.0,0.0,-2.5336,0.0,0.0,0.0,0.0,0.0,0.0,0.0,0.0,0.0,0.0,0.0,0.0,0.0,0.0,0.0,0.0,0.0,0.0,0.0,0.0,0.0,0.0,-3.1731,-3.4095,-3.7137,-3.9191,-4.0204,-4.0231,-3.9985,-3.9501,-3.827,-3.6498,-3.4279,0.0,0.0,0.0,0.0,0.0,0.0,0.0,0.0,0.0,0.0,0.0,0.0,0.0,0.0,0.0,0.0,0.0,0.0,0.0,0.0,0.0,0.0,0.0,0.0,0.0,0.0,-3.8222,-3.8333,-3.8047,0.0,0.0,0.0,0.0,0.0,0.0,0.0,0.0,0.0,0.0,-4.5713,-4.6835,-4.694,-4.7062,-4.6775,-4.5834,-4.5624,-4.5624,-4.5663,-4.6317,-4.6278,0.0,0.0,0.0,0.0,0.0,0.0,0.0,0.0,0.0,0.0,0.0,0.0,0.0,0.0,0.0,0.0,0.0,0.0,0.0,0.0,0.0,0.0,0.0,0.0,0.0,0.0,0.0,-2.8732,-2.7472,0.0,0.0,0.0,0.0,0.0,0.0,0.0,0.0,0.0,0.0,0.0,-3.5493,-3.6412,0.0,0.0,0.0,0.0,0.0,0.0,0.0,0.0,0.0,0.0,0.0,0.0,-3.325,-3.5541,-3.814,-3.9942,-4.0796,-4.0802,-4.0595,-4.0059,-3.962,-3.8178,-3.5649,0.0,0.0,0.0,0.0,0.0,0.0,0.0,0.0,0.0,0.0,0.0,0.0,0.0,0.0,0.0,0.0,0.0,0.0,0.0,0.0,0.0,0.0,0.0,0.0,0.0,-3.9056,0.0,0.0,0.0,0.0,0.0,0.0,0.0,0.0,0.0,0.0,0.0,-4.5607,-4.5467,-4.7213,-4.8148,-4.7135,-4.7432,-4.7643,0.0,0.0,0.0,0.0,0.0,0.0,0.0,0.0,0.0,0.0,0.0,0.0,0.0,0.0,-4.8875,-4.4954,-4.3572,-4.3176,-4.3767,0.0,0.0,0.0,0.0,0.0,0.0,0.0,0.0,0.0,0.0,0.0,0.0,0.0,0.0,-3.1543,0.0,-3.0207,0.0,0.0,0.0,0.0,0.0,0.0,0.0,0.0,-3.7684,-3.8809,-3.8612,-3.9547,-3.9467,0.0,-3.7863,-3.5899,0.0,0.0,0.0,0.0,0.0,0.0,0.0,0.0,-3.4796,-3.7108,-3.951,-4.1119,-4.1896,-4.1925,-4.1752,-4.1397,-4.0962,-3.9661,-3.7466,-3.615,-3.4965,0.0,0.0,0.0,0.0,0.0,0.0,0.0,0.0,0.0,0.0,0.0,0.0,0.0,0.0,0.0,0.0,0.0,0.0,0.0,0.0,0.0,0.0,0.0,-4.0138,0.0,0.0,0.0,0.0,0.0,0.0,0.0,0.0,0.0,-4.5789,-4.7506,-4.8683,-4.8195,-4.9154,-4.9504,-4.8431,0.0,0.0,0.0,0.0,0.0,0.0,0.0,-4.8394,-4.8933,-4.9048,-4.9356,-5.0125,-5.1433,-5.2241,-5.1972,0.0,0.0,-4.8358,-4.7016,-4.6615,-4.7171,-4.7553,-4.7801,-4.7815,-4.8243,-4.8522,0.0,0.0,0.0,0.0,0.0,0.0,0.0,0.0,-3.4702,-3.4573,0.0,-3.364,0.0,0.0,0.0,0.0,0.0,0.0,0.0,0.0,-4.1862,-4.3059,-4.2297,-4.2297,-4.2333,-4.2297,-4.2252,-4.1019,-3.8608,-3.4848,0.0,0.0,0.0,0.0,0.0,0.0,-3.6325,-3.8765,-4.1083,-4.269,-4.3424,-4.3461,-4.3461,-4.3424,-4.2232,-4.0993,-3.9779,-3.8996,-3.8078,-3.6985,-3.5395,0.0,0.0,0.0,0.0,0.0,0.0,0.0,0.0,0.0,0.0,0.0,0.0,0.0,0.0,0.0,0.0,0.0,0.0,0.0,0.0,-4.1316,0.0,0.0,0.0,0.0,0.0,0.0,0.0,0.0,0.0,0.0,-4.8009,-5.038,-5.2252,-5.203,0.0,0.0,0.0,0.0,-4.8279,-4.8317,-4.8279,-4.8586,-4.9433,-5.0202,-5.0702,-5.0779,0.0,0.0,-5.2125,-5.2741,-5.3126,-5.2241,-5.2933,-5.3395,-5.3474,-5.2607,-5.2087,-5.2105,-5.1433,-5.1085,-5.1037,-5.1008,-5.1114,-3.7559,0.0,0.0,0.0,0.0,-3.6862,-3.7526,-3.862,-3.8452,-3.7667,-3.6624,-3.6371,0.0,0.0,0.0,0.0,0.0,0.0,-3.9165,-4.0459,-4.1952,-4.2842,-4.3133,-4.3133,-4.3133,-4.3169,-4.3167,-4.2512,-4.128,-4.0097,-3.7514,-3.3707,0.0,0.0,0.0,0.0,-3.8552,-4.0355,-4.1682,-4.269,-4.3461,-4.3497,-4.3497,-4.3497,-4.3137,-4.2775,-4.2377,-4.1613,-4.0773,-3.9889,-3.835,0.0,0.0,0.0,0.0,0.0,0.0,0.0,0.0,0.0,0.0,0.0,0.0,0.0,0.0,0.0,0.0,0.0,0.0,0.0,-4.22,-4.2047,-4.2453,0.0,0.0,0.0,0.0,0.0,0.0,0.0,0.0,0.0,-5.3519,-5.3243,-5.282,0.0,0.0,-5.2318,-5.1664,-5.1125,-5.1048,-5.1625,0.0,0.0,0.0,-5.1818,-5.1779,-5.2395,-5.3395,-5.4049,-5.378,-5.4934,-5.5818,-5.5549,-5.6242,-5.6857,-5.6742,-5.4703,-5.3105,-5.2913,-5.2797,-5.2702,-5.2723,-5.3184,-5.3668,-4.1261,-3.9993,-3.9026,-3.8883,-3.935,-3.9526,-4.0148,-4.1099,-4.0919,-4.0482,-3.9859,-3.9509,-3.8372,-3.6707,-3.689,0.0,0.0,0.0,-4.0824,-4.2083,-4.2543,-4.3206,-4.397,-4.3975,-4.3975,-4.397,-4.3973,-4.3573,-4.2768,-4.2766,-4.1148,-3.7961,0.0,0.0,-3.7734,-3.9019,-4.0257,-4.1525,-4.2353,-4.302,-4.3497,-4.3497,-4.3497,-4.3497,-4.3497,-4.3497,-4.3497,-4.302,-4.2543,-4.2066,-4.0524,-3.8689,0.0,0.0,0.0,0.0,0.0,0.0,0.0,0.0,0.0,0.0,0.0,-3.7359,-3.6329,0.0,0.0,0.0,-4.1546,-4.3585,-4.4987,-4.524,0.0,0.0,0.0,0.0,0.0,0.0,0.0,-5.3558,-5.5538,-5.6829,-5.6829,-5.5967,-5.5028,-5.4164,-5.4126,-5.3895,-5.3049,0.0,-5.2626,-5.3126,-5.3203,-5.3318,-5.3664,-5.328,-5.3241,-5.4049,-5.4934,-5.5472,-5.5511,-5.6626,-5.7473,-5.7588,-5.7934,-5.828,-5.828,-5.6588,-5.5241,-5.5241,-5.528,-5.5357,-5.5335,-5.5758,-5.6143,-4.4121,-4.4599,-4.2396,-4.1479,-4.1585,-4.2276,-4.261,-4.2587,-4.2587,-4.2988,-4.3608,-4.2915,-4.2182,-4.1442,-4.0708,0.0,-4.1515,-4.2276,-4.2975,-4.3679,-4.3679,-4.4081,-4.4775,-4.482,-4.4784,-4.4777,-4.4818,-4.4415,-4.3718,-4.3681,-4.3314,-4.258,-4.1111,-4.0267,-4.012,-4.0891,-4.1658,-4.2386,-4.3091,-4.3497,-4.3497,-4.3497,-4.3497,-4.3497,-4.3497,-4.3497,-4.3497,-4.3497,-4.3497,-4.3461,-4.2103,-4.0561,-3.8946,0.0,0.0,0.0,0.0,0.0,0.0,0.0,0.0,0.0,0.0,0.0,0.0,0.0,0.0,0.0,-4.5701,0.0,-4.8412,-4.9875,0.0,0.0,0.0,-5.2202,-5.2395,-5.4472,-5.5934,-5.5972,0.0,0.0,-5.8511,0.0,-5.8165,-5.728,-5.6434,-5.5626,-5.4895,-5.4164,-5.3587,-5.3664,-5.3626,-5.3895,-5.4664,-5.4818,-5.5126,-5.5818,-5.6588,-5.7011,-5.7088,-5.778,-5.8319,-5.8396,-5.8434,-5.855,-5.8511,-5.8473,-5.8511,-5.8396,-5.828,-5.8204,-5.8088,-5.8165,-5.8242,-4.5443,-4.5553,-4.5002,-4.4743,-4.477,-4.4952,-4.5029,-4.5031,-4.5031,-4.5145,-4.5296,-4.5113,-4.493,-4.4745,-4.4562,-4.4562,-4.4782,-4.4957,-4.5137,-4.5324,-4.5324,-4.5469,-4.5616,-4.5627,-4.5624,-4.5625,-4.559,-4.5516,-4.5333,-4.5333,-4.5223,-4.5039,-4.4635,-4.3571,-4.1846,-4.2506,-4.302,-4.3201,-4.3422,-4.3497,-4.3497,-4.3497,-4.3497,-4.3497,-4.3497,-4.3497,-4.3497,-4.3497,-4.3497,-4.3497,-4.313,-4.2213,-4.0634,-3.8799,0.0,0.0,0.0,0.0,0.0,0.0,0.0,0.0,0.0,-4.2508,-4.01,0.0,-4.6011,0.0,-4.8317,-5.0394,-5.1856,-5.1779,0.0,0.0,-5.4237,-5.4664,-5.6549,-5.7319,-5.7934,-5.855,-5.955,-6.0204,-6.0204,-6.0204,-5.9858,-5.9011,-5.8204,-5.7588,-5.7396,-5.7242,-5.6857,-5.6242,-5.6549,-5.6934,-5.6472,-5.6973,-5.7396,-5.7665,-5.7857,-5.7973,-5.8011,-5.8665,-5.9204,-5.9242,-5.9781,-6.0127,-6.0165,-6.0204,-6.0204,-6.0127,-5.9204,-5.828,-5.8319,-5.8781,-5.9204,-4.6104,-4.6434,-4.6434,-4.6654,-4.6911,-4.6175,-4.5881,-4.5883,-4.592,-4.5883,-4.592,-4.5883,-4.5883,-4.5883,-4.5883,-4.5883,-4.5883,-4.5881,-4.5915,-4.588,-4.5882,-4.6103,-4.6397,-4.6432,-4.6428,-4.6428,-4.6433,-4.625,-4.592,-4.592,-4.5883,-4.5883,-4.5883,-4.5223,-4.3975,-4.4342,-4.4413,-4.4044,-4.3679,-4.3497,-4.3497,-4.3497,-4.3497,-4.3497,-4.3497,-4.3497,-4.3497,-4.3497,-4.3497,-4.3497,-4.3497,-4.3094,-4.2213,-4.1001,-3.99,0.0,0.0,0.0,0.0,0.0,0.0,0.0,0.0,0.0,0.0,0.0,-4.9278,0.0,-5.1664,-5.3472,-5.478,-5.5126,-5.5989,-5.7774,-5.7566,-5.7857,-5.9281,-5.9396,-5.9588,-6.0012,-6.0512,-6.0781,-6.0781,-6.0781,-6.0627,-6.0127,-5.9704,-5.9127,-5.8434,-5.828,-5.8127,-5.7703,-5.7973,-5.8165,-5.7627,-5.7973,-5.828,-5.8319,-5.8588,-5.8858,-5.8858,-5.9511,-6.005,-6.0127,-6.0473,-6.0781,-6.0781,-6.0781,-6.0781,-6.0666,-6.0089,-5.9511,-5.9435,-5.9742,-6.005,-4.6801,-4.7462,-4.7535,-4.7976,-4.8528,-4.7132,-4.6396,-4.6207,-4.6207,-4.6207,-4.6207,-4.6213,-4.6214,-4.6214,-4.6214,-4.6214,-4.6214,-4.6214,-4.6214,-4.6214,-4.6174,-4.6574,-4.7236,-4.7274,-4.7274,-4.7274,-4.7277,-4.6872,-4.6207,-4.6213,-4.6214,-4.6214,-4.6214,-4.6214,-4.6214,-4.6214,-4.5736,-4.4886,-4.4156,-4.3791,-4.3791,-4.3791,-4.3754,-4.3644,-4.3644,-4.3608,-4.3497,-4.3571,-4.3644,-4.3681,-4.3864,-4.3901,-4.3791,-4.324,-4.2837,0.0,-4.2029,0.0,0.0,0.0,0.0,0.0,0.0,0.0,0.0,-5.1582,-5.3042,-5.3818,-5.5357,-5.6703,-5.755,-5.8973,-6.0165,-6.1012,-6.1127,-6.1127,-6.1127,-6.1012,-6.0973,-6.0973,-6.0896,-6.0781,-6.0781,-6.0781,-6.0781,-6.0742,-6.0704,-6.0165,-5.9011,-5.8704,-5.8704,-5.8511,-5.8473,-5.8588,-5.8665,-5.8665,-5.8704,-5.8742,-5.9242,-5.9665,-5.9665,-6.0242,-6.0781,-6.0781,-6.0742,-6.0781,-6.0781,-6.0781,-6.0858,-6.0973,-6.0935,-6.0858,-6.0704,-6.0666,-6.0781,-4.8967,-4.9187,-4.9811,-5.0184,-5.0302,-5.0007,-4.9119,-4.7826,-4.7826,-4.7826,-4.7864,-4.7827,-4.7829,-4.7865,-4.7829,-4.7865,-4.7865,-4.7829,-4.7865,-4.7865,-4.7864,-4.7937,-4.8047,-4.8047,-4.8084,-4.8084,-4.8086,-4.7974,-4.7826,-4.7827,-4.7865,-4.7865,-4.7865,-4.7865,-4.7865,0.0,0.0,0.0,-4.5516,-4.5443,-4.5443,-4.5443,-4.5112,-4.4525,-4.4488,0.0,-4.3534,-4.4121,-4.4488,-4.4525,-4.5736,0.0,0.0,0.0,0.0,0.0,0.0,0.0,0.0,0.0,0.0,0.0,-5.306,-5.2564,-5.2211,-5.517,-5.7143,-5.7357,-5.8858,-6.0204,-6.105,-6.1396,-6.1935,-6.2704,-6.282,-6.282,-6.282,-6.2243,-6.1858,-6.182,-6.1243,-6.0819,-6.0819,-6.0781,-6.0819,-6.0781,-6.0781,-6.0666,-6.0358,-6.0242,-6.0012,-5.9435,-5.9281,-5.955,-6.0204,-6.0242,-6.0165,-6.0358,-6.0396,-6.0512,-6.0512,-6.0627,-6.0781,-6.0781,-6.0781,-6.0781,-6.0819,-6.0781,-6.105,-6.1704,-6.1858,-6.1627,-6.0935,-6.0819,-6.0781,-5.0178,0.0,-5.0618,-5.0805,0.0,-5.0814,-5.0328,-4.9581,-4.952,-4.9522,-4.9517,-4.9522,-4.9522,-4.9554,-4.9556,-4.9556,-4.9517,-4.9556,-4.9522,-4.9524,-4.9524,-4.9524,-4.9524,-4.9118,-4.897,-4.8934,-4.8489,-4.8306,-4.8306,-4.8306,-4.8306,-4.8306,-4.8306,-4.8306,-4.8306,-4.8306,-4.7719,-4.6507,-4.6066,-4.5883,-4.5883,-4.5883,-4.57,-4.5333,0.0,0.0,0.0,0.0,0.0,0.0,0.0,0.0,0.0,0.0,0.0,-4.893,-4.9664,-5.0634,-5.1858,-5.2747,-5.4284,-5.6747,-5.7364,-5.7021,-5.5576,-5.7597,-5.9281,-6.0089,-6.0973,-6.1781,-6.2589,-6.2704,-6.2858,-6.3243,-6.332,-6.332,-6.3243,-6.2935,-6.2704,-6.2666,-6.232,-6.1897,-6.1473,-6.1435,-6.1243,-6.0858,-6.0781,-6.0819,-6.0781,-6.0781,-6.0589,-6.0204,-6.0127,-6.0281,-6.0704,-6.0781,-6.0781,-6.0781,-6.0781,-6.0781,-6.0781,-6.0781,-6.0781,-6.0781,-6.0781,-6.0896,-6.1358,-6.1435,-6.1704,-6.2474,-6.2704,-6.2589,-6.2127,-6.205,-6.205,-5.1022,-5.1022,-5.1169,-5.1206,-5.1242,-5.1206,-5.1234,-5.1219,0.0,0.0,0.0,-5.0812,-5.0812,-5.0802,-5.0805,-5.0805,-5.0802,-5.0805,-5.0812,-5.0818,-5.0818,-5.078,-5.078,-5.0149,-4.9816,-4.9781,-4.9079,-4.8746,-4.8746,-4.8746,-4.8673,-4.8526,-4.8526,-4.8453,-4.8343,-4.8306,-4.7976,-4.7352,-4.6687,-4.6321,-4.6324,-4.6324,-4.625,-4.6104,-4.625,-4.625,-4.6104,-4.6397,-4.6874,-4.7498,-4.7829,-4.86,-4.9921,-5.0912,-5.205,-5.3335,-5.4228,-5.5384,-5.6917,-5.7159,-5.7946,-5.9619,-6.0396,-6.0219,-5.8827,-5.9335,-6.0396,-6.1973,-6.2089,-6.2474,-6.3435,-6.3512,-6.3589,-6.3743,-6.3743,-6.3782,-6.3782,-6.3589,-6.3551,-6.3551,-6.3358,-6.3051,-6.2397,-6.232,-6.205,-6.1435,-6.1204,-6.0935,-6.0819,-6.0781,-6.0781,-6.0704,-6.0666,-6.0742,-6.0781,-6.0781,-6.0781,-6.0781,-6.0781,-6.0781,-6.0781,-6.0781,-6.0858,-6.1089,-6.1012,-6.1396,-6.2089,-6.232,-6.2627,-6.3358,-6.3551,-6.3589,-6.3743,-6.3897,-6.382,-5.183,-5.1867,-5.2601,-5.2894,-5.2858,-5.2858,-5.2852,-5.2779,-5.1407,-5.0811,-5.0811,-5.0817,-5.0826,-5.0802,-5.0835,-5.0835,-5.0802,-5.0802,-5.0802,0.0,-5.0805,-5.0835,-5.0817,-5.0665,-5.0602,-5.0618,-5.0508,-5.0435,-5.0435,-5.0435,-5.0105,-4.9481,-4.9407,-4.904,-4.8379,-4.8306,-4.8269,-4.8122,-4.8011,-4.7937,-4.7976,-4.7976,-4.7645,-4.7021,-4.7609,-4.7645,-4.6985,-4.8306,-4.9114,-4.926,-5.0585,-5.143,-5.1683,-5.3078,-5.4032,-5.4295,-5.534,-5.6441,-5.734,-5.8159,-5.9213,-6.0465,-6.0742,-6.0666,-6.0512,-6.055,-6.105,-6.1973,-6.2166,-6.2743,-6.4166,-6.4397,-6.4705,-6.5359,-6.5513,-6.5513,-6.5397,-6.482,-6.4397,-6.4397,-6.3743,-6.3358,-6.3205,-6.3128,-6.3089,-6.282,-6.2243,-6.1666,-6.1127,-6.0781,-6.0781,-6.0781,-6.0781,-6.0781,-6.0781,-6.0819,-6.0858,-6.0781,-6.0896,-6.0973,-6.1012,-6.1012,-6.1204,-6.1781,-6.1897,-6.2243,-6.2974,-6.3128,-6.3512,-6.4205,-6.4436,-6.4628,-6.5282,-6.5936,-6.582,-5.2637,-5.2674,-5.3041,-5.3225,-5.3225,-5.3225,-5.3225,-5.3109,-5.2401,-5.2108,-5.2108,-5.2108,-5.2113,-5.2123,-5.2082,-5.2082,-5.2087,-5.2087,-5.2123,-5.2087,-5.2123,-5.2119,-5.2071,-5.1658,-5.1444,-5.1454,-5.0982,-5.0802,-5.0802,-5.0802,-5.0618,-5.0251,-5.0251,-5.0031,-4.9701,-4.9671,-4.9671,-4.9627,-4.8783,-4.8526,-4.8967,-4.904,-4.9038,-4.9114,-4.9481,-4.9481,-4.915,-4.9848,-5.0435,-5.0875,-5.2022,-5.2867,-5.3298,-5.4803,-5.5684,-5.5721,-5.6904,-5.7901,-5.8502,-5.9414,-6.0175,-6.0742,-6.0781,-6.1012,-6.1473,-6.1512,-6.1858,-6.2666,-6.3166,-6.3974,-6.5166,-6.532,-6.5474,-6.5859,-6.5897,-6.5897,-6.5859,-6.559,-6.532,-6.5282,-6.4974,-6.4551,-6.4051,-6.4012,-6.3782,-6.3397,-6.2935,-6.2551,-6.2204,-6.2127,-6.1781,-6.1012,-6.0781,-6.0781,-6.0858,-6.1243,-6.1473,-6.1512,-6.1858,-6.2089,-6.2166,-6.2166,-6.232,-6.2627,-6.2743,-6.3089,-6.3858,-6.4012,-6.4397,-6.5051,-6.532,-6.5667,-6.6397,-6.7205,-6.7321,-5.3628,-5.3482,-5.3482,-5.3371,-5.3225,-5.3225,-5.3225,-5.3225,-5.3188,-5.3225,-5.3225,-5.3225,-5.3225,-5.3225,-5.3225,-5.3188,-5.3225,-5.3225,-5.3188,-5.3225,-5.3225,-5.3225,-5.3109,-5.2553,-5.2254,-5.2181,-5.1642,-5.1316,-5.1353,-5.1353,-5.1242,-5.1096,-5.0912,-5.0802,-5.0802,-5.0814,-5.0814,-5.0732,-4.9515,-4.9184,-4.9811,-4.9845,-5.0175,-5.0765,-5.0949,-5.1059,-5.1059,-5.1242,-5.172,-5.2491,-5.3166,-5.3939,-5.4876,-5.6088,-5.6859,-5.7124,-5.8215,-5.9102,-5.9658,-6.0365,-6.0781,-6.0819,-6.0973,-6.1358,-6.2012,-6.2435,-6.2897,-6.3551,-6.4166,-6.4897,-6.5667,-6.5859,-6.5897,-6.5897,-6.5897,-6.5897,-6.5897,-6.5897,-6.5897,-6.5897,-6.5897,-6.559,-6.5089,-6.4897,-6.4551,-6.3858,-6.3589,-6.3551,-6.3358,-6.332,-6.2704,-6.1858,-6.1358,-6.1435,-6.1396,-6.1897,-6.232,-6.2358,-6.282,-6.3089,-6.3166,-6.3243,-6.3435,-6.3512,-6.3589,-6.3974,-6.4666,-6.4897,-6.5243,-6.5936,-6.6167,-6.6474,-6.7552,-6.8205,-6.8552,-5.4913,-5.4326,-5.4289,-5.3849,-5.3298,-5.3261,-5.3261,-5.3261,-5.3225,-5.3225,-5.3298,-5.3225,-5.3225,-5.3225,-5.3225,-5.3225,-5.3225,-5.3225,-5.3225,-5.3225,-5.3225,-5.3225,-5.3225,-5.3072,-5.3072,-5.3036,-5.2931,-5.2821,-5.2858,-5.2894,-5.2564,-5.1867,-5.1169,-5.0875,-5.0839,-5.0839,-5.0842,-5.0809,-5.0639,-5.0597,-5.0692,-5.0684,-5.0721,-5.0802,-5.1536,-5.1903,-5.194,-5.2601,-5.3335,-5.4106,-5.4265,-5.5,-5.6381,-5.6694,-5.7134,-5.7859,-5.8798,-5.9728,-6.0533,-6.0757,-6.0819,-6.0858,-6.1512,-6.2012,-6.2204,-6.3474,-6.4359,-6.4512,-6.4589,-6.5051,-6.5782,-6.5897,-6.5897,-6.5897,-6.5897,-6.5897,-6.5897,-6.5897,-6.5897,-6.5897,-6.5897,-6.5859,-6.5705,-6.5667,-6.5359,-6.4628,-6.4474,-6.4282,-6.3705,-6.3589,-6.3551,-6.3166,-6.3089,-6.3051,-6.2974,-6.3089,-6.3205,-6.3205,-6.3281,-6.3512,-6.3628,-6.3589,-6.3589,-6.4589,-6.4474,-6.482,-6.5436,-6.5782,-6.5974,-6.6628,-6.7013,-6.7475,-6.8936,-6.9475,-6.936,-5.5427,-5.5126,-5.5133,-5.492,-5.4638,-5.4644,-5.4601,-5.4601,-5.4601,-5.4595,-5.4546,-5.4112,-5.3634,-5.3225,-5.3225,-5.3225,-5.3225,-5.3225,-5.3225,-5.3225,-5.3225,-5.3225,-5.3225,-5.3225,-5.3225,-5.3225,-5.3225,-5.3225,-5.3225,-5.3225,-5.3041,-5.2711,-5.238,-5.2234,-5.2234,-5.2234,-5.2197,-5.2238,-5.2187,-5.2223,-5.2155,-5.1747,-5.1747,-5.2234,-5.2527,-5.2968,-5.3371,-5.3739,-5.4289,-5.506,-5.5551,-5.6103,-5.6785,-5.7253,-5.7802,-5.8381,-5.9284,-6.0103,-6.0757,-6.0781,-6.1012,-6.1527,-6.1897,-6.2474,-6.3474,-6.4243,-6.4782,-6.5282,-6.5359,-6.5551,-6.582,-6.5897,-6.5897,-6.5897,-6.5897,-6.5897,-6.5897,-6.5897,-6.5897,-6.5897,-6.5897,-6.5897,-6.5897,-6.5897,-6.5743,-6.5436,-6.5359,-6.5128,-6.4859,-6.482,-6.482,-6.482,-6.4859,-6.4359,-6.3705,-6.3782,-6.4012,-6.4166,-6.4512,-6.482,-6.4743,-6.482,-6.5128,-6.5897,-6.5628,-6.5705,-6.6436,-6.6167,-6.6128,-6.6974,-6.8205,-6.8898,-6.959,-7.009,-7.0129,-5.6116,-5.5888,-5.5721,-5.5588,-5.5601,-5.5595,-5.5631,-5.5631,-5.5631,-5.5581,-5.5566,-5.4987,-5.4399,-5.3849,-5.3408,-5.3225,-5.3225,-5.3225,-5.3225,-5.3225,-5.3225,-5.3225,-5.3225,-5.3225,-5.3225,-5.3225,-5.3225,-5.3225,-5.3225,-5.3225,-5.3225,-5.3225,-5.3225,-5.3225,-5.3225,-5.3225,-5.3225,-5.3188,-5.3225,-5.3225,-5.3109,-5.2883,-5.2846,-5.3225,-5.3445,-5.3812,-5.4363,-5.462,-5.5097,-5.5904,-5.647,-5.6912,-5.7152,-5.7703,-5.8282,-5.8874,-5.9663,-6.0311,-6.0757,-6.0781,-6.1204,-6.1988,-6.2257,-6.3012,-6.4282,-6.482,-6.5243,-6.5743,-6.609,-6.6167,-6.5897,-6.609,-6.6205,-6.6244,-6.6244,-6.6282,-6.6551,-6.659,-6.6667,-6.659,-6.6744,-6.659,-6.6551,-6.6436,-6.632,-6.659,-6.6205,-6.6051,-6.609,-6.6013,-6.582,-6.5897,-6.5859,-6.5397,-6.432,-6.4551,-6.4897,-6.5051,-6.5474,-6.5705,-6.5897,-6.5859,-6.5897,-6.5974,-6.6128,-6.6397,-6.6859,-6.659,-6.6859,-6.7782,-6.8898,-6.9898,-7.0129,-7.0591,-7.0783,-5.7437,-5.6649,-5.5896,-5.5684,-5.5611,-5.5697,-5.5679,-5.5798,-5.5679,-5.5679,-5.5716,-5.5606,-5.555,-5.5354,-5.3995,-5.3261,-5.3261,-5.3298,-5.3298,-5.3261,-5.3225,-5.3225,-5.3225,-5.3225,-5.3225,-5.3225,-5.3225,-5.3225,-5.3225,-5.3225,-5.3225,-5.3225,-5.3225,-5.3225,-5.3261,-5.3298,-5.3261,-5.3371,-5.3371,-5.3298,-5.3371,-5.3946,-5.3909,-5.3439,-5.3959,-5.4399,-5.4546,-5.517,-5.5904,-5.6748,-5.6838,-5.7169,-5.7813,-5.8006,-5.8461,-5.9284,-5.9855,-6.0311,-6.0734,-6.0858,-6.1243,-6.2065,-6.2834,-6.3628,-6.4628,-6.532,-6.5782,-6.5936,-6.6667,-6.6782,-6.6244,-6.6705,-6.7051,-6.7051,-6.7051,-6.7398,-6.8129,-6.8013,-6.8244,-6.8167,-6.8052,-6.8013,-6.8129,-6.7552,-6.7475,-6.759,-6.6898,-6.6205,-6.6667,-6.6359,-6.6051,-6.5897,-6.5897,-6.582,-6.5743,-6.5551,-6.5667,-6.5705,-6.5667,-6.5936,-6.5897,-6.5897,-6.6013,-6.6282,-6.6782,-6.709,-6.7244,-6.7705,-6.8398,-6.9167,-6.986,-7.0552,-7.0552,-7.0744,-7.0898,-5.785,-5.7547,-5.7262,-5.7152,-5.7152,-5.7134,-5.7134,-5.7134,-5.7134,-5.7134,-5.7061,-5.6612,-5.6356,-5.6308,-5.5244,-5.473,-5.4693,-5.4216,-5.3965,-5.3891,-5.3408,-5.3225,-5.3225,-5.3225,-5.3225,-5.3225,-5.3225,-5.3225,-5.3225,-5.3225,-5.3225,-5.3225,-5.3225,-5.3445,-5.3885,-5.3965,-5.4191,-5.468,-5.4717,-5.4754,-5.4712,-5.503,-5.5016,-5.4796,-5.5023,-5.539,-5.5941,-5.6235,-5.6748,-5.7556,-5.7565,-5.7712,-5.8015,-5.8549,-5.9176,-5.9792,-6.0311,-6.0622,-6.0834,-6.132,-6.1973,-6.2796,-6.3666,-6.4474,-6.5282,-6.5743,-6.609,-6.6667,-6.7436,-6.7744,-6.7667,-6.7782,-6.7936,-6.7936,-6.7936,-6.8052,-6.8282,-6.8398,-6.8398,-6.8398,-6.8398,-6.8398,-6.8436,-6.8129,-6.8052,-6.8282,-6.7859,-6.7436,-6.709,-6.6821,-6.6551,-6.6051,-6.5897,-6.5897,-6.5897,-6.5859,-6.5859,-6.5859,-6.5936,-6.6244,-6.6359,-6.6513,-6.6667,-6.7667,-6.8052,-6.8167,-6.8436,-6.8783,-6.9513,-6.9667,-7.0437,-7.0821,-7.0898,-7.0898,-7.0898,-5.7997,-5.7997,-5.7997,-5.7997,-5.7997,-5.7997,-5.7997,-5.7997,-5.7997,-5.7997,-5.7886,-5.7437,-5.7217,-5.7116,-5.6602,-5.6381,-5.6235,-5.528,-5.4663,-5.4381,-5.3818,-5.3445,-5.3225,-5.3225,-5.3225,-5.3225,-5.3225,-5.3225,-5.3261,-5.3482,-5.3592,-5.3592,-5.3812,-5.4216,-5.4693,-5.4773,-5.5073,-5.5521,-5.5631,-5.5595,-5.5595,-5.5875,-5.597,-5.6006,-5.6235,-5.6455,-5.6822,-5.7042,-5.7409,-5.7886,-5.7997,-5.8068,-5.8275,-5.9138,-5.9792,-6.0103,-6.0572,-6.0781,-6.0896,-6.1589,-6.2435,-6.3218,-6.4128,-6.4974,-6.5782,-6.5897,-6.6205,-6.6782,-6.7782,-6.8398,-6.8513,-6.8859,-6.909,-6.8898,-6.8821,-6.8936,-6.9167,-6.9244,-6.9244,-6.9283,-6.9321,-6.9283,-6.9167,-6.8975,-6.9013,-6.9167,-6.8821,-6.8167,-6.8013,-6.7628,-6.7398,-6.6859,-6.6821,-6.6859,-6.6936,-6.7013,-6.6359,-6.6167,-6.6128,-6.6474,-6.6974,-6.7167,-6.7667,-6.8783,-6.936,-6.9436,-6.9667,-6.9975,-7.009,-7.009,-7.0398,-7.086,-7.0898,-7.0898,-7.0975,-5.7997,-5.7997,-5.7997,-5.7997,-5.7997,-5.7997,-5.7997,-5.7997,-5.7997,-5.7997,-5.796,-5.7923,-5.785,-5.7923,-5.774,-5.785,-5.7519,-5.6345,-5.5361,-5.4669,-5.4491,-5.4007,-5.3335,-5.3335,-5.3261,-5.3225,-5.3225,-5.3225,-5.3225,-5.3885,-5.4289,-5.4509,-5.5023,-5.539,-5.5574,-5.5603,-5.564,-5.5778,-5.588,-5.577,-5.5757,-5.6447,-5.6813,-5.6904,-5.7446,-5.7565,-5.694,-5.7556,-5.7969,-5.8006,-5.8042,-5.8233,-5.8796,-5.9596,-6.0103,-6.0189,-6.0572,-6.0757,-6.0935,-6.1704,-6.2565,-6.3386,-6.418,-6.5089,-6.5743,-6.5897,-6.6013,-6.6513,-6.7513,-6.8436,-6.8783,-6.9821,-7.0398,-6.986,-6.9706,-6.9975,-7.0514,-7.0821,-7.086,-7.0706,-7.0629,-7.0821,-7.0706,-7.0167,-6.9937,-7.0167,-6.959,-6.8859,-6.9167,-6.8783,-6.8436,-6.8244,-6.7975,-6.7782,-6.8052,-6.8244,-6.7321,-6.6551,-6.6474,-6.6628,-6.7436,-6.7859,-6.8282,-6.9244,-6.9821,-6.9975,-7.0244,-7.0514,-7.0591,-7.0629,-7.086,-7.0898,-7.0937,-7.0975,-7.1129,-5.7997,-5.7997,-5.7997,-5.7997,-5.7997,-5.7997,-5.7997,-5.7997,-5.7997,-5.7997,-5.7997,-5.7997,-5.7997,-5.7997,-5.7997,-5.7997,-5.7923,-5.7446,-5.6822,-5.6051,-5.5484,-5.4791,-5.4154,-5.4044,-5.3708,-5.3298,-5.3225,-5.3225,-5.3371,-5.4069,-5.4399,-5.4583,-5.5207,-5.5868,-5.6418,-5.6455,-5.6638,-5.718,-5.7253,-5.7253,-5.7262,-5.7437,-5.7629,-5.7629,-5.7886,-5.7994,-5.8127,-5.8039,-5.8186,-5.8461,-5.8489,-5.8865,-5.9528,-5.9932,-6.0283,-6.0533,-6.071,-6.1127,-6.1704,-6.2474,-6.3257,-6.4141,-6.4987,-6.5551,-6.582,-6.5897,-6.6397,-6.7321,-6.8129,-6.8783,-6.9937,-7.0514,-7.0744,-7.0552,-7.0514,-7.0552,-7.0821,-7.0898,-7.0898,-7.0898,-7.0898,-7.0898,-7.086,-7.0552,-7.0591,-7.0783,-7.036,-7.009,-6.9706,-6.9552,-6.8975,-6.859,-6.8513,-6.8629,-6.8783,-6.8898,-6.8398,-6.7744,-6.7475,-6.7398,-6.809,-6.8552,-6.9013,-6.9552,-7.0129,-7.0475,-7.0783,-7.0898,-7.0898,-7.0937,-7.0975,-7.0975,-7.0975,-7.1245,-7.1629,-5.7997,-5.7997,-5.7997,-5.7997,-5.7997,-5.7997,-5.7997,-5.7997,-5.7997,-5.7997,-5.7997,-5.7997,-5.7997,-5.7997,-5.7997,-5.7997,-5.7997,-5.7997,-5.773,-5.718,-5.6426,-5.5625,-5.4913,-5.4846,-5.4412,-5.3855,-5.3959,-5.3916,-5.3732,-5.4766,-5.5317,-5.5427,-5.6088,-5.6748,-5.7189,-5.7226,-5.7565,-5.7923,-5.796,-5.7997,-5.796,-5.7997,-5.7997,-5.7997,-5.7997,-5.8238,-5.8632,-5.8418,-5.8503,-5.8912,-5.9134,-5.9534,-6.0046,-6.024,-6.0482,-6.0772,-6.1127,-6.155,-6.2127,-6.3128,-6.3974,-6.4641,-6.5397,-6.5859,-6.5897,-6.5897,-6.6551,-6.7628,-6.8244,-6.8975,-7.0167,-7.0744,-7.086,-7.0898,-7.086,-7.0898,-7.0898,-7.0898,-7.0898,-7.0898,-7.0898,-7.0898,-7.0898,-7.0898,-7.0898,-7.0898,-7.0898,-7.0821,-7.0283,-7.0167,-6.9706,-6.9436,-6.959,-6.959,-6.9436,-6.9436,-6.9436,-6.9052,-6.8667,-6.8706,-6.9052,-6.9244,-6.9552,-7.0129,-7.0667,-7.0667,-7.0898,-7.0898,-7.0898,-7.0975,-7.1052,-7.1437,-7.1706,-7.2245,-7.2629,-5.7997,-5.7997,-5.7997,-5.7997,-5.7997,-5.7997,-5.7997,-5.7997,-5.7997,-5.7997,-5.7997,-5.7997,-5.7997,-5.7997,-5.7997,-5.7997,-5.7997,-5.7997,-5.796,-5.7694,-5.718,-5.6429,-5.5761,-5.5522,-5.5097,-5.4663,-5.514,-5.5089,-5.4561,-5.586,-5.6785,-5.6675,-5.7336,-5.7923,-5.785,-5.796,-5.7923,-5.796,-5.7997,-5.7997,-5.7997,-5.7997,-5.7997,-5.7997,-5.8051,-5.8289,-5.8716,-5.8913,-5.9065,-5.9427,-5.9836,-6.0102,-6.0248,-6.0589,-6.0757,-6.0819,-6.1574,-6.1959,-6.2435,-6.3435,-6.4474,-6.4834,-6.5474,-6.5897,-6.5897,-6.6051,-6.6513,-6.7398,-6.8129,-6.8936,-6.986,-7.0475,-7.086,-7.0898,-7.0898,-7.0898,-7.0898,-7.0898,-7.0898,-7.0898,-7.0898,-7.0898,-7.0898,-7.0898,-7.0898,-7.0898,-7.0898,-7.0821,-7.0783,-7.0667,-7.0821,-7.0667,-7.0398,-7.0321,-7.0129,-7.0129,-7.009,-6.9937,-6.9667,-6.9706,-6.9783,-6.9898,-7.0014,-7.0591,-7.0898,-7.0898,-7.0898,-7.0898,-7.0898,-7.0937,-7.1321,-7.1937,-7.2437,-7.2783,-7.336,-5.7997,-5.7997,-5.7997,-5.7997,-5.7997,-5.7997,-5.7997,-5.7997,-5.7997,-5.7997,-5.7997,-5.7997,-5.7997,-5.7997,-5.7997,-5.7997,-5.7997,-5.7997,-5.7997,-5.796,-5.7813,-5.7244,-5.6456,-5.5907,-5.5542,-5.5367,-5.5566,-5.5485,-5.535,-5.6328,-5.6822,-5.6859,-5.7629,-5.7997,-5.7997,-5.7997,-5.7997,-5.7997,-5.7997,-5.7997,-5.7997,-5.8042,-5.7997,-5.8042,-5.8369,-5.8716,-5.9248,-5.9885,-6.0068,-5.9946,-6.0342,-6.0608,-6.0604,-6.0742,-6.0781,-6.0858,-6.1089,-6.1781,-6.282,-6.3474,-6.4243,-6.5436,-6.5743,-6.5897,-6.5897,-6.6436,-6.7128,-6.7975,-6.8859,-6.9667,-7.0398,-7.0783,-7.0898,-7.0898,-7.1014,-7.1014,-7.0975,-7.0898,-7.0898,-7.0898,-7.0937,-7.0898,-7.0898,-7.0898,-7.0898,-7.0898,-7.0898,-7.0898,-7.0898,-7.0898,-7.0898,-7.0898,-7.0744,-7.0821,-7.0821,-7.0821,-7.0783,-7.0706,-7.0552,-7.0475,-7.0514,-7.0552,-7.0629,-7.0898,-7.0898,-7.0898,-7.0898,-7.0898,-7.0898,-7.0898,-7.1206,-7.1706,-7.2322,-7.2822,-7.3668,-5.7997,-5.7997,-5.7997,-5.7997,-5.7997,-5.7997,-5.7997,-5.7997,-5.7997,-5.7997,-5.7997,-5.7997,-5.7997,-5.7997,-5.7997,-5.7997,-5.7997,-5.7997,-5.7997,-5.7997,-5.796,-5.7694,-5.7244,-5.6759,-5.6456,-5.6154,-5.6401,-5.6401,-5.6273,-5.6878,-5.7262,-5.7409,-5.7776,-5.796,-5.7997,-5.7997,-5.7997,-5.7997,-5.7997,-5.7997,-5.7997,-5.8231,-5.8282,-5.8375,-5.8753,-5.9212,-5.969,-6.0391,-6.0661,-6.0485,-6.0623,-6.0781,-6.0781,-6.0781,-6.0781,-6.0819,-6.1396,-6.2358,-6.3166,-6.3935,-6.482,-6.5667,-6.5897,-6.5897,-6.6013,-6.6628,-6.7436,-6.8282,-6.9206,-7.0014,-7.0783,-7.1206,-7.1398,-7.1514,-7.1745,-7.1822,-7.1514,-7.1475,-7.1437,-7.136,-7.1129,-7.0898,-7.0898,-7.0898,-7.0898,-7.0898,-7.0898,-7.0898,-7.0898,-7.0898,-7.0898,-7.0898,-7.0898,-7.0898,-7.0898,-7.0898,-7.0898,-7.086,-7.086,-7.0898,-7.0898,-7.0898,-7.0898,-7.0898,-7.0898,-7.0898,-7.0898,-7.0898,-7.0898,-7.0975,-7.1168,-7.1552,-7.2206,-7.3014,-7.386,-5.7997,-5.7997,-5.7997,-5.7997,-5.7997,-5.7997,-5.7997,-5.7997,-5.7997,-5.7997,-5.7997,-5.7997,-5.7997,-5.7997,-5.7997,-5.7997,-5.7997,-5.7997,-5.7997,-5.7997,-5.7997,-5.7923,-5.785,-5.7776,-5.7437,-5.7061,-5.7657,-5.7474,-5.7171,-5.762,-5.7923,-5.7886,-5.796,-5.7997,-5.7997,-5.7997,-5.7997,-5.7997,-5.7997,-5.806,-5.8194,-5.8466,-5.8632,-5.8835,-5.9212,-5.9658,-6.0132,-6.0597,-6.0757,-6.0781,-6.0781,-6.0781,-6.0781,-6.0781,-6.0896,-6.1166,-6.2151,-6.2998,-6.3589,-6.4782,-6.5782,-6.6013,-6.609,-6.6128,-6.6436,-6.7167,-6.7936,-6.8629,-6.9321,-7.0167,-7.0783,-7.1552,-7.1898,-7.2091,-7.286,-7.3014,-7.2629,-7.2322,-7.2206,-7.2129,-7.1437,-7.0975,-7.0898,-7.0898,-7.0898,-7.0898,-7.0898,-7.0898,-7.0898,-7.0898,-7.0898,-7.0898,-7.0898,-7.0898,-7.0898,-7.0898,-7.0898,-7.0898,-7.0898,-7.0898,-7.0898,-7.0898,-7.0898,-7.0898,-7.0898,-7.0898,-7.0898,-7.0898,-7.0898,-7.0975,-7.1129,-7.1629,-7.2283,-7.3206,-7.4091,-5.7997,-5.7997,-5.7997,-5.7997,-5.7997,-5.7997,-5.7997,-5.7997,-5.7997,-5.7997,-5.7997,-5.7997,-5.7997,-5.7997,-5.7997,-5.7997,-5.7997,-5.7997,-5.7997,-5.7997,-5.7997,-5.7997,-5.7997,-5.7997,-5.7886,-5.7776,-5.7886,-5.7886,-5.7813,-5.785,-5.7997,-5.7997,-5.7997,-5.7997,-5.7997,-5.7997,-5.7997,-5.7997,-5.7997,-5.8208,-5.852,-5.8679,-5.8951,-5.9284,-5.9728,-6.0161,-6.0572,-6.0757,-6.0781,-6.0781,-6.0781,-6.0781,-6.0781,-6.0858,-6.1127,-6.1704,-6.2166,-6.3012,-6.4089,-6.4743,-6.5474,-6.6551,-6.6731,-6.7154,-6.7859,-6.8539,-6.9078,-6.9552,-7.0167,-7.0629,-7.0898,-7.1052,-7.1591,-7.2217,-7.2947,-7.3668,-7.3822,-7.2976,-7.236,-7.2091,-7.1475,-7.0898,-7.0898,-7.0898,-7.0898,-7.0898,-7.0898,-7.0898,-7.0898,-7.0898,-7.0898,-7.0898,-7.0898,-7.0898,-7.0898,-7.0898,-7.0898,-7.0898,-7.0898,-7.0898,-7.0898,-7.0898,-7.0898,-7.0898,-7.0898,-7.0898,-7.0898,-7.0898,-7.0898,-7.1014,-7.1129,-7.1552,-7.2206,-7.3245,-7.4091,-5.7997,-5.7997,-5.7997,-5.7997,-5.7997,-5.7997,-5.7997,-5.7997,-5.7997,-5.7997,-5.7997,-5.7997,-5.7997,-5.7997,-5.7997,-5.7997,-5.7997,-5.7997,-5.7997,-5.7997,-5.7997,-5.7997,-5.7997,-5.7997,-5.7997,-5.7997,-5.7997,-5.7997,-5.7997,-5.7997,-5.7997,-5.7997,-5.7997,-5.7997,-5.7997,-5.7997,-5.8107,-5.8317,-5.8312,-5.8553,-5.8953,-5.9246,-5.9559,-5.9977,-6.0311,-6.0597,-6.0757,-6.0781,-6.0781,-6.0781,-6.0781,-6.0781,-6.0896,-6.1204,-6.1666,-6.205,-6.2974,-6.3512,-6.4436,-6.5013,-6.5628,-6.6513,-6.6846,-6.7308,-6.8013,-6.8924,-6.9655,-6.986,-7.036,-7.0898,-7.0937,-7.1398,-7.1783,-7.214,-7.2947,-7.3668,-7.3899,-7.3322,-7.2822,-7.2552,-7.1706,-7.1129,-7.0898,-7.0898,-7.0898,-7.0898,-7.0898,-7.0898,-7.0898,-7.0898,-7.0898,-7.0898,-7.0898,-7.0898,-7.0898,-7.0898,-7.0898,-7.0898,-7.0898,-7.0898,-7.0898,-7.0898,-7.0898,-7.0898,-7.0898,-7.0898,-7.0898,-7.0898,-7.0898,-7.0937,-7.1091,-7.1437,-7.1937,-7.2706,-7.3591,-5.7997,-5.7997,-5.7997,-5.7997,-5.7997,-5.7997,-5.7997,-5.7997,-5.7997,-5.7997,-5.7997,-5.7997,-5.7997,-5.7997,-5.7997,-5.7997,-5.7997,-5.7997,-5.7997,-5.7997,-5.7997,-5.7997,-5.7997,-5.7997,-5.7997,-5.7997,-5.7997,-5.7997,-5.7997,-5.7997,-5.7997,-5.7997,-5.7997,-5.7997,-5.7997,-5.8133,-5.8281,-5.8575,-5.8735,-5.9028,-5.9462,-5.9861,-6.0189,-6.0597,-6.071,-6.0734,-6.0781,-6.0781,-6.0781,-6.0781,-6.0781,-6.0858,-6.1166,-6.1589,-6.2204,-6.232,-6.3628,-6.4474,-6.4936,-6.5474,-6.5974,-6.6167,-6.6885,-6.75,-6.8116,-6.9129,-6.9821,-7.0167,-7.0552,-7.0898,-7.0975,-7.1321,-7.186,-7.2245,-7.2899,-7.3322,-7.3476,-7.3437,-7.3129,-7.2937,-7.1822,-7.1014,-7.0898,-7.0898,-7.0898,-7.0898,-7.0898,-7.0898,-7.0898,-7.0898,-7.0898,-7.0898,-7.0898,-7.0898,-7.0898,-7.0898,-7.0898,-7.0898,-7.0898,-7.0898,-7.0898,-7.0898,-7.0898,-7.0898,-7.0898,-7.0898,-7.0898,-7.0898,-7.0898,-7.0898,-7.0975,-7.1206,-7.1668,-7.2168,-7.3091,-5.7997,-5.7997,-5.7997,-5.7997,-5.7997,-5.7997,-5.7997,-5.7997,-5.7997,-5.7997,-5.7997,-5.7997,-5.7997,-5.7997,-5.7997,-5.7997,-5.7997,-5.7997,-5.7997,-5.7997,-5.7997,-5.7997,-5.7997,-5.7997,-5.7997,-5.7997,-5.7997,-5.7997,-5.7997,-5.7997,-5.7997,-5.7997,-5.7997,-5.7997,-5.8186,-5.8369,-5.8597,-5.8894,-5.9137,-5.9534,-5.9937,-6.0112,-6.0338,-6.0757,-6.0781,-6.0781,-6.0781,-6.0781,-6.0781,-6.0781,-6.0781,-6.1204,-6.1704,-6.205,-6.2551,-6.3205,-6.4128,-6.4974,-6.5474,-6.5743,-6.6667,-6.7552,-6.8001,-6.8873,-6.9732,-7.036,-7.0514,-7.0629,-7.0744,-7.0898,-7.0898,-7.1129,-7.1475,-7.1964,-7.2283,-7.2668,-7.3053,-7.2822,-7.2437,-7.2322,-7.1475,-7.0898,-7.0898,-7.0898,-7.0898,-7.0898,-7.0898,-7.0898,-7.0898,-7.0898,-7.0898,-7.0898,-7.0898,-7.0898,-7.0898,-7.0898,-7.0898,-7.0898,-7.0898,-7.0898,-7.0898,-7.0898,-7.0898,-7.0898,-7.0898,-7.0898,-7.0898,-7.0898,-7.0898,-7.0898,-7.0937,-7.0937,-7.1552,-7.2168,-7.2668,-5.7679,-5.7997,-5.7997,-5.7997,-5.7997,-5.7997,-5.7997,-5.7997,-5.7997,-5.7997,-5.7997,-5.7997,-5.7997,-5.7997,-5.7997,-5.7997,-5.7997,-5.7997,-5.7997,-5.7997,-5.7997,-5.7997,-5.7997,-5.7997,-5.7997,-5.7997,-5.7997,-5.7997,-5.7997,-5.7997,-5.7997,-5.7997,-5.7997,-5.8097,-5.8332,-5.8586,-5.8977,-5.9283,-5.9653,-5.9985,-6.0425,-6.043,-6.0622,-6.0734,-6.0781,-6.0781,-6.0781,-6.0781,-6.0781,-6.0896,-6.1243,-6.1666,-6.2204,-6.2935,-6.3551,-6.4051,-6.4782,-6.5397,-6.582,-6.5936,-6.6436,-6.7513,-6.8116,-6.8963,-7.0014,-7.0514,-7.086,-7.0898,-7.0898,-7.0898,-7.0898,-7.0898,-7.1091,-7.136,-7.1552,-7.1783,-7.1975,-7.1745,-7.1668,-7.1591,-7.1206,-7.0898,-7.0898,-7.0898,-7.0898,-7.0898,-7.0898,-7.0898,-7.0898,-7.0937,-7.0937,-7.0937,-7.0975,-7.0937,-7.0937,-7.0937,-7.0898,-7.0898,-7.0937,-7.0937,-7.0898,-7.0898,-7.0898,-7.0898,-7.0898,-7.0937,-7.0898,-7.0898,-7.0898,-7.0898,-7.0937,-7.1052,-7.1629,-7.2168,-7.2668,-5.7449,-5.7997,-5.7997,-5.7997,-5.7997,-5.7997,-5.7997,-5.7997,-5.7997,-5.7997,-5.7997,-5.7997,-5.7997,-5.7997,-5.7997,-5.7997,-5.7997,-5.7997,-5.7997,-5.7997,-5.7997,-5.7997,-5.7997,-5.7997,-5.7997,-5.7997,-5.7997,-5.7997,-5.7997,-5.7997,-5.7997,-5.7997,-5.7997,-5.8238,-5.8591,-5.8796,-5.9403,-5.9836,-6.0205,-6.0456,-6.071,-6.0781,-6.0781,-6.0781,-6.0781,-6.0781,-6.0781,-6.0781,-6.0781,-6.1012,-6.1512,-6.2166,-6.2551,-6.3782,-6.4628,-6.4936,-6.5513,-6.582,-6.5897,-6.5897,-6.6282,-6.7167,-6.7936,-6.8783,-6.9629,-7.0437,-7.0898,-7.0898,-7.0898,-7.1052,-7.1206,-7.1014,-7.1052,-7.1206,-7.1129,-7.0937,-7.1091,-7.1091,-7.1129,-7.1052,-7.0898,-7.0898,-7.0937,-7.0898,-7.0898,-7.0898,-7.0898,-7.0975,-7.0975,-7.1014,-7.1014,-7.1052,-7.1052,-7.1014,-7.1014,-7.1014,-7.0975,-7.0898,-7.0937,-7.1014,-7.0937,-7.0898,-7.0937,-7.0975,-7.1014,-7.1014,-7.0975,-7.0975,-7.1014,-7.1014,-7.0937,-7.1091,-7.1475,-7.2014,-7.2591,-5.795,-5.7997,-5.7997,-5.7997,-5.7997,-5.7997,-5.7997,-5.7997,-5.7997,-5.7997,-5.7997,-5.7997,-5.7997,-5.7997,-5.7997,-5.7997,-5.7997,-5.7997,-5.7997,-5.7997,-5.7997,-5.7997,-5.7997,-5.7997,-5.7997,-5.7997,-5.7997,-5.7997,-5.7997,-5.7997,-5.7997,-5.7997,-5.8051,-5.8238,-5.8756,-5.9177,-5.9618,-6.0085,-6.0474,-6.0734,-6.0781,-6.0781,-6.0781,-6.0781,-6.0781,-6.0781,-6.0781,-6.0781,-6.0781,-6.0896,-6.1666,-6.2435,-6.3142,-6.4051,-6.4974,-6.5513,-6.5859,-6.5897,-6.5897,-6.5897,-6.6359,-6.7167,-6.7975,-6.8783,-6.9706,-7.0437,-7.0898,-7.0898,-7.0898,-7.1129,-7.1475,-7.1245,-7.1398,-7.136,-7.1206,-7.1014,-7.0937,-7.0975,-7.0975,-7.1014,-7.1052,-7.1014,-7.0975,-7.0937,-7.0898,-7.0898,-7.0937,-7.1014,-7.1094,-7.1146,-7.1183,-7.1193,-7.1207,-7.1169,-7.1168,-7.1168,-7.1133,-7.1005,-7.1068,-7.1118,-7.1091,-7.1052,-7.1052,-7.1129,-7.1118,-7.1183,-7.1195,-7.1195,-7.1168,-7.1171,-7.1133,-7.1159,-7.1168,-7.1822,-7.2552,-5.7997,-5.7997,-5.7997,-5.7997,-5.7997,-5.7997,-5.7997,-5.7997,-5.7997,-5.7997,-5.7997,-5.7997,-5.7997,-5.7997,-5.7997,-5.7997,-5.7997,-5.7997,-5.7997,-5.7997,-5.7997,-5.7997,-5.7997,-5.7997,-5.7997,-5.7997,-5.7997,-5.7997,-5.7997,-5.7997,-5.7997,-5.8051,-5.8282,-5.8673,-5.9103,-5.9559,-6.003,-6.0408,-6.0674,-6.0781,-6.0781,-6.0781,-6.0781,-6.0781,-6.0781,-6.0781,-6.0781,-6.0781,-6.0781,-6.105,-6.1973,-6.2897,-6.3565,-6.4512,-6.5551,-6.5782,-6.5897,-6.5897,-6.5897,-6.5897,-6.6551,-6.7475,-6.827,-6.8963,-7.0052,-7.0629,-7.0898,-7.0898,-7.0898,-7.1129,-7.1398,-7.1129,-7.1168,-7.1206,-7.1245,-7.1168,-7.1052,-7.1052,-7.1091,-7.1168,-7.1195,-7.1159,-7.1094,-7.103,-7.1043,-7.1079,-7.1106,-7.1171,-7.127,-7.1334,-7.1378,-7.1454,-7.1397,-7.1376,-7.1376,-7.1387,-7.1347,-7.1269,-7.1274,-7.13,-7.131,-7.1283,-7.1287,-7.1284,-7.1347,-7.1394,-7.1454,-7.1386,-7.1313,-7.133,-7.134,-7.1323,-7.1364,-7.1964,-7.2815,-5.7813,-5.796,-5.7997,-5.7997,-5.7997,-5.7997,-5.7997,-5.7997,-5.7997,-5.7997,-5.7997,-5.7997,-5.7997,-5.7997,-5.7997,-5.7997,-5.7997,-5.7997,-5.7997,-5.7997,-5.7997,-5.7997,-5.7997,-5.7997,-5.7997,-5.7997,-5.7997,-5.7997,-5.8006,-5.8142,-5.8238,-5.815,-5.8503,-5.9028,-5.9526,-5.9885,-6.0255,-6.0685,-6.0796,-6.0781,-6.0781,-6.0781,-6.0781,-6.0781,-6.0781,-6.0781,-6.0781,-6.0781,-6.0781,-6.105,-6.2358,-6.3243,-6.3526,-6.482,-6.5705,-6.5897,-6.5897,-6.5897,-6.5897,-6.6013,-6.6628,-6.7398,-6.8462,-6.904,-7.0514,-7.0898,-7.0898,-7.0898,-7.0898,-7.1014,-7.1129,-7.1129,-7.1206,-7.1283,-7.1245,-7.1206,-7.1222,-7.1249,-7.1279,-7.1313,-7.1373,-7.1424,-7.133,-7.1186,-7.1169,-7.1248,-7.1325,-7.1351,-7.1468,-7.1564,-7.1601,-7.168,-7.1562,-7.1523,-7.1536,-7.1552,-7.1542,-7.1547,-7.1551,-7.1507,-7.1468,-7.1456,-7.1433,-7.1472,-7.1532,-7.1617,-7.1684,-7.1588,-7.1529,-7.1564,-7.1572,-7.1507,-7.1665,-7.2199,-7.2993,-5.7336,-5.7997,-5.796,-5.7923,-5.796,-5.7997,-5.796,-5.7813,-5.7923,-5.796,-5.7997,-5.7997,-5.7997,-5.7997,-5.7997,-5.7997,-5.7997,-5.7997,-5.7997,-5.7997,-5.7997,-5.7997,-5.7997,-5.7997,-5.7997,-5.7997,-5.7997,-5.7997,-5.8097,-5.8375,-5.8549,-5.8713,-5.8874,-5.9319,-5.9792,-6.0132,-6.0391,-6.0734,-6.0781,-6.0781,-6.0781,-6.0781,-6.0781,-6.0781,-6.0781,-6.0781,-6.0781,-6.0781,-6.0781,-6.0858,-6.2397,-6.3281,-6.3603,-6.5013,-6.5782,-6.5897,-6.5897,-6.5897,-6.5897,-6.5897,-6.6013,-6.6513,-6.7628,-6.9206,-7.0706,-7.0898,-7.0898,-7.0898,-7.0898,-7.1206,-7.1437,-7.1514,-7.136,-7.1491,-7.1441,-7.1339,-7.14,-7.1451,-7.1455,-7.1513,-7.1544,-7.1606,-7.161,-7.1489,-7.1362,-7.1479,-7.1525,-7.1606,-7.1692,-7.1797,-7.1875,-7.1875,-7.1758,-7.168,-7.168,-7.1689,-7.1704,-7.17,-7.1672,-7.1614,-7.1576,-7.1562,-7.164,-7.1648,-7.1736,-7.1811,-7.1902,-7.1769,-7.1689,-7.1823,-7.1831,-7.1699,-7.1698,-7.1979,-7.2938,-5.6235,-5.6528,-5.6528,-5.6813,-5.7244,-5.7244,-5.6988,-5.6649,-5.7061,-5.7547,-5.796,-5.7997,-5.7997,-5.7997,-5.7997,-5.7997,-5.7997,-5.7997,-5.7997,-5.7997,-5.7997,-5.7997,-5.7997,-5.7997,-5.7997,-5.7997,-5.7997,-5.7997,-5.8051,-5.8508,-5.8874,-5.9065,-5.9354,-5.9658,-6.0103,-6.0365,-6.0622,-6.0734,-6.0781,-6.0781,-6.0781,-6.0781,-6.0781,-6.0781,-6.0781,-6.0781,-6.0781,-6.0781,-6.0781,-6.1204,-6.2474,-6.3051,-6.3526,-6.5013,-6.5782,-6.5897,-6.5897,-6.5897,-6.5897,-6.6013,-6.632,-6.7552,-6.8552,-6.9667,-7.0783,-7.0898,-7.0898,-7.0898,-7.0898,-7.1206,-7.1321,-7.1283,-7.1272,-7.1621,-7.1698,-7.1555,-7.1528,-7.1624,-7.1679,-7.1692,-7.1776,-7.1862,-7.1835,-7.1824,-7.1742,-7.1686,-7.1753,-7.1836,-7.1875,-7.1914,-7.1953,-7.1992,-7.1875,-7.1836,-7.1836,-7.1836,-7.1836,-7.1836,-7.1836,-7.1797,-7.1719,-7.1797,-7.1875,-7.1875,-7.1875,-7.1914,-7.1914,-7.1875,-7.1875,-7.1914,-7.1914,-7.1903,-7.1885,-7.1914,-7.2734,-5.539,-5.5574,-5.5611,-5.5933,-5.642,-5.6429,-5.6145,-5.5778,-5.619,-5.6887,-5.7657,-5.785,-5.7997,-5.7997,-5.7997,-5.7997,-5.7997,-5.7997,-5.7997,-5.7997,-5.7997,-5.7997,-5.7997,-5.7997,-5.7997,-5.7997,-5.8006,-5.8051,-5.8285,-5.8681,-5.9176,-5.9625,-6.0074,-6.0283,-6.0365,-6.0597,-6.0781,-6.0781,-6.0781,-6.0781,-6.0781,-6.0781,-6.0781,-6.0781,-6.0781,-6.0781,-6.0781,-6.0781,-6.0781,-6.132,-6.2204,-6.3128,-6.3897,-6.4743,-6.5705,-6.5897,-6.5897,-6.5897,-6.5936,-6.6282,-6.6898,-6.8052,-6.9052,-6.9975,-7.0629,-7.0898,-7.0898,-7.0898,-7.0898,-7.0975,-7.1168,-7.1168,-7.1283,-7.1633,-7.1684,-7.1588,-7.173,-7.1794,-7.187,-7.1936,-7.1953,-7.1953,-7.1953,-7.1914,-7.1875,-7.1836,-7.1875,-7.1914,-7.1953,-7.1953,-7.1992,-7.1992,-7.1953,-7.1953,-7.1992,-7.1953,-7.1914,-7.1914,-7.1914,-7.1953,-7.1953,-7.1992,-7.1992,-7.1953,-7.1953,-7.1992,-7.1953,-7.1914,-7.1953,-7.1992,-7.1953,-7.1953,-7.2344,-7.2422,-7.2539,-5.484,-5.5574,-5.55,-5.5558,-5.5533,-5.5595,-5.5588,-5.538,-5.557,-5.6066,-5.6841,-5.7483,-5.7776,-5.7776,-5.7666,-5.7776,-5.785,-5.7923,-5.7997,-5.7997,-5.7997,-5.7997,-5.7997,-5.7997,-5.7997,-5.7997,-5.8142,-5.8359,-5.8612,-5.9131,-5.9587,-6.0006,-6.0391,-6.0671,-6.0757,-6.0781,-6.0781,-6.0781,-6.0781,-6.0781,-6.0781,-6.0781,-6.0781,-6.0781,-6.0781,-6.0781,-6.0781,-6.0781,-6.0781,-6.105,-6.2435,-6.3205,-6.3512,-6.4974,-6.582,-6.5897,-6.5897,-6.5897,-6.5974,-6.6667,-6.7513,-6.8321,-6.9206,-7.0014,-7.0667,-7.0898,-7.0937,-7.0937,-7.0937,-7.1014,-7.1129,-7.1321,-7.158,-7.1634,-7.1745,-7.1857,-7.1994,-7.1914,-7.1953,-7.1992,-7.1992,-7.1992,-7.1992,-7.1992,-7.1992,-7.1953,-7.1992,-7.1992,-7.1992,-7.1992,-7.1992,-7.1992,-7.1992,-7.1992,-7.1992,-7.1992,-7.1992,-7.1992,-7.1992,-7.1992,-7.1992,-7.1992,-7.1992,-7.1992,-7.1992,-7.1992,-7.1992,-7.1992,-7.1992,-7.1992,-7.1992,-7.207,-7.2539,-7.2734,-7.2656,-5.3775,-5.4032,-5.4032,-5.4026,-5.4092,-5.4606,-5.4546,-5.4154,-5.4564,-5.5257,-5.5904,-5.6367,-5.6397,-5.6536,-5.7014,-5.7189,-5.7262,-5.7886,-5.7997,-5.796,-5.796,-5.7997,-5.7997,-5.7997,-5.7997,-5.8097,-5.8245,-5.849,-5.8716,-5.9436,-5.9847,-6.0189,-6.0533,-6.0757,-6.0781,-6.0781,-6.0781,-6.0781,-6.0781,-6.0781,-6.0781,-6.0781,-6.0781,-6.0781,-6.0781,-6.0781,-6.0781,-6.0781,-6.0781,-6.1012,-6.2397,-6.3205,-6.3589,-6.4936,-6.582,-6.5897,-6.5897,-6.6192,-6.6731,-6.7462,-6.8052,-6.859,-6.9244,-7.0129,-7.0744,-7.0898,-7.0937,-7.1041,-7.1094,-7.1248,-7.1464,-7.2118,-7.239,-7.21,-7.2125,-7.2249,-7.2305,-7.207,-7.1992,-7.1992,-7.1992,-7.1992,-7.1992,-7.1992,-7.1992,-7.1992,-7.1992,-7.1992,-7.1992,-7.1992,-7.1992,-7.1992,-7.1992,-7.1992,-7.1992,-7.1992,-7.1992,-7.1992,-7.1992,-7.1992,-7.1992,-7.1992,-7.1992,-7.1992,-7.1992,-7.1992,-7.1992,-7.1992,-7.1992,-7.1992,-7.1992,-7.1992,-7.2226,-7.2305,-7.2226,-5.3225,-5.3225,-5.3225,-5.3225,-5.3256,-5.3726,-5.3659,-5.3408,-5.4044,-5.4706,-5.5147,-5.5496,-5.5638,-5.5802,-5.6132,-5.6389,-5.6492,-5.7189,-5.7556,-5.7629,-5.7923,-5.796,-5.7997,-5.7997,-5.8153,-5.8252,-5.8545,-5.8803,-5.9277,-5.9816,-6.0151,-6.0391,-6.0622,-6.0757,-6.0781,-6.0781,-6.0781,-6.0781,-6.0781,-6.0781,-6.0781,-6.0781,-6.0781,-6.0781,-6.0781,-6.0781,-6.0781,-6.0781,-6.0819,-6.1281,-6.219,-6.3229,-6.3782,-6.4743,-6.5743,-6.5897,-6.5936,-6.6167,-6.6654,-6.7782,-6.8244,-6.8552,-6.9475,-7.0321,-7.086,-7.1014,-7.1129,-7.1222,-7.1274,-7.1428,-7.1788,-7.2521,-7.2502,-7.2188,-7.2265,-7.2344,-7.2265,-7.2031,-7.1992,-7.1992,-7.1992,-7.1992,-7.1992,-7.1992,-7.1992,-7.1992,-7.1992,-7.1992,-7.1992,-7.1992,-7.1992,-7.1992,-7.1992,-7.1953,-7.1953,-7.1992,-7.1992,-7.1992,-7.1992,-7.1992,-7.1992,-7.1992,-7.1992,-7.1992,-7.1992,-7.1992,-7.1992,-7.1992,-7.1992,-7.1992,-7.1992,-7.1992,-7.1992,-7.1992,-7.1992,-5.3225,-5.3225,-5.3225,-5.3225,-5.3225,-5.3256,-5.3261,-5.3261,-5.4007,-5.4344,-5.4417,-5.5085,-5.519,-5.5397,-5.55,-5.5574,-5.5721,-5.6418,-5.6675,-5.7005,-5.7446,-5.7703,-5.7886,-5.796,-5.8226,-5.8563,-5.8851,-5.9241,-5.9971,-6.02,-6.0418,-6.0647,-6.0757,-6.0781,-6.0781,-6.0781,-6.0781,-6.0781,-6.0781,-6.0781,-6.0781,-6.0781,-6.0781,-6.0781,-6.0781,-6.0781,-6.0781,-6.0781,-6.0781,-6.132,-6.2344,-6.2998,-6.382,-6.4974,-6.5551,-6.5897,-6.5897,-6.5974,-6.6436,-6.7705,-6.8552,-6.9001,-7.0119,-7.0798,-7.1106,-7.1197,-7.1312,-7.1414,-7.1487,-7.1572,-7.1827,-7.1979,-7.2142,-7.2109,-7.2187,-7.2148,-7.207,-7.1992,-7.1992,-7.1992,-7.1992,-7.1992,-7.1992,-7.1992,-7.1992,-7.1992,-7.1992,-7.1992,-7.1992,-7.1992,-7.1992,-7.1992,-7.1953,-7.1914,-7.1914,-7.1797,-7.1719,-7.164,-7.1914,-7.1953,-7.1992,-7.1875,-7.1797,-7.1797,-7.1953,-7.1992,-7.1992,-7.1992,-7.1992,-7.1992,-7.1992,-7.1992,-7.1992,-7.1992,-7.207,-5.3225,-5.3225,-5.3225,-5.3225,-5.3225,-5.3225,-5.3225,-5.3261,-5.3445,-5.3561,-5.3561,-5.3781,-5.4038,-5.3922,-5.4473,-5.4693,-5.5023,-5.5464,-5.5823,-5.6263,-5.685,-5.7061,-5.7363,-5.7785,-5.8226,-5.8681,-5.9089,-5.9526,-6.0061,-6.0405,-6.0597,-6.0757,-6.0781,-6.0781,-6.0781,-6.0781,-6.0781,-6.0781,-6.0781,-6.0781,-6.0781,-6.0781,-6.0781,-6.0781,-6.0781,-6.0781,-6.0781,-6.0781,-6.0781,-6.1089,-6.2444,-6.3253,-6.3435,-6.4859,-6.5897,-6.5897,-6.5936,-6.6128,-6.6808,-6.7885,-6.8783,-6.9425,-7.0551,-7.1131,-7.1394,-7.1448,-7.1485,-7.157,-7.1649,-7.1746,-7.1953,-7.2109,-7.2109,-7.207,-7.2187,-7.2265,-7.2148,-7.1992,-7.1992,-7.1992,-7.1992,-7.1992,-7.1992,-7.1992,-7.1992,-7.1992,-7.1992,-7.1992,-7.1992,-7.1992,-7.1992,-7.1992,-7.1719,-7.1601,-7.1523,-7.1406,-7.1328,-7.1289,-7.1562,-7.1719,-7.1601,-7.1523,-7.1523,-7.164,-7.1836,-7.1953,-7.1992,-7.1992,-7.1992,-7.1992,-7.1992,-7.1992,-7.1992,-7.1992,-7.1992,-5.3225,-5.3225,-5.3225,-5.3225,-5.3225,-5.3225,-5.3225,-5.3225,-5.3225,-5.3225,-5.3225,-5.3261,-5.3225,-5.3335,-5.3739,-5.3959,-5.3995,-5.473,-5.5133,-5.5383,-5.6226,-5.6694,-5.707,-5.7759,-5.8517,-5.8985,-5.9438,-5.9931,-6.0328,-6.0589,-6.0781,-6.0781,-6.0781,-6.0781,-6.0781,-6.0781,-6.0781,-6.0781,-6.0781,-6.0781,-6.0781,-6.0781,-6.0781,-6.0781,-6.0781,-6.0781,-6.0781,-6.0781,-6.0781,-6.1012,-6.2406,-6.3253,-6.3589,-6.4897,-6.5859,-6.5897,-6.5974,-6.6167,-6.6654,-6.7603,-6.859,-6.9554,-7.0535,-7.1201,-7.1525,-7.1632,-7.1688,-7.1777,-7.1807,-7.1875,-7.2148,-7.2344,-7.2187,-7.207,-7.2265,-7.2461,-7.2265,-7.2031,-7.1992,-7.1992,-7.1992,-7.1992,-7.1992,-7.1992,-7.1992,-7.1992,-7.1992,-7.1992,-7.1992,-7.1992,-7.1992,-7.1992,-7.1562,-7.125,-7.1133,-7.0937,-7.0781,-7.0781,-7.1094,-7.1172,-7.1133,-7.1406,-7.164,-7.1719,-7.1758,-7.1875,-7.1992,-7.1992,-7.1992,-7.1992,-7.1992,-7.1992,-7.1992,-7.1992,-7.2031,-5.3225,-5.3225,-5.3225,-5.3225,-5.3225,-5.3225,-5.3225,-5.3225,-5.3225,-5.3225,-5.3225,-5.3225,-5.3225,-5.3225,-5.3371,-5.3371,-5.3555,-5.4069,-5.4326,-5.4399,-5.5735,-5.6426,-5.7044,-5.8005,-5.8716,-5.9356,-5.9853,-6.0183,-6.061,-6.0781,-6.0781,-6.0781,-6.0781,-6.0781,-6.0781,-6.0781,-6.0781,-6.0781,-6.0781,-6.0781,-6.0781,-6.0781,-6.0781,-6.0781,-6.0781,-6.0781,-6.0781,-6.0781,-6.0781,-6.1343,-6.2213,-6.3214,-6.4229,-6.4974,-6.5705,-6.5974,-6.6051,-6.6167,-6.6538,-6.7333,-6.812,-6.9037,-6.9913,-7.0583,-7.0947,-7.1648,-7.1809,-7.1875,-7.1914,-7.168,-7.1797,-7.2031,-7.2031,-7.1875,-7.1914,-7.2109,-7.2148,-7.1992,-7.1992,-7.1992,-7.1992,-7.1992,-7.1992,-7.1992,-7.1992,-7.1992,-7.1992,-7.1992,-7.1875,-7.1875,-7.1875,-7.1875,-7.168,-7.1211,-7.0547,-7.0351,-7.0195,-7.0234,-7.0547,-7.0703,-7.0664,-7.1172,-7.1875,-7.1875,-7.1836,-7.1914,-7.1992,-7.1992,-7.1992,-7.1992,-7.1992,-7.1992,-7.1992,-7.1992,-7.1992,-5.3225,-5.3225,-5.3225,-5.3225,-5.3225,-5.3225,-5.3225,-5.3225,-5.3225,-5.3225,-5.3225,-5.3225,-5.3225,-5.3225,-5.3225,-5.3225,-5.3335,-5.3482,-5.3482,-5.3965,-5.5006,-5.6029,-5.6602,-5.7765,-5.8803,-5.9647,-6.0127,-6.0392,-6.07,-6.0781,-6.0781,-6.0781,-6.0781,-6.0781,-6.0781,-6.0781,-6.0781,-6.0781,-6.0781,-6.0781,-6.0781,-6.0781,-6.0781,-6.0781,-6.0781,-6.0781,-6.0781,-6.0781,-6.0781,-6.1089,-6.2483,-6.383,-6.5243,-6.5743,-6.5974,-6.6051,-6.6217,-6.6307,-6.655,-6.7116,-6.7888,-6.8373,-6.9065,-6.9575,-7.029,-7.1328,-7.1836,-7.1875,-7.1758,-7.1445,-7.1289,-7.1523,-7.1758,-7.164,-7.1562,-7.1758,-7.1953,-7.1992,-7.1992,-7.1992,-7.1992,-7.1992,-7.1992,-7.1992,-7.1992,-7.1992,-7.1992,-7.1914,-7.168,-7.1601,-7.1562,-7.1601,-7.1836,-7.1367,-7.0469,-6.9805,-6.9648,-6.9726,-7.0,-7.0117,-7.0273,-7.0781,-7.1406,-7.1836,-7.1992,-7.1914,-7.1875,-7.1992,-7.1992,-7.1992,-7.1992,-7.1992,-7.1992,-7.1992,-7.1992,-5.2339,-5.2663,-5.3036,-5.3225,-5.3225,-5.3225,-5.3225,-5.3225,-5.3225,-5.3225,-5.3225,-5.3225,-5.3225,-5.3225,-5.3225,-5.3188,-5.3188,-5.3225,-5.3408,-5.3781,-5.4423,-5.5337,-5.6393,-5.7598,-5.8527,-5.9491,-6.022,-6.0578,-6.0748,-6.0781,-6.0781,-6.0781,-6.0781,-6.0781,-6.0781,-6.0781,-6.0781,-6.0781,-6.0781,-6.0781,-6.0781,-6.0781,-6.0781,-6.0781,-6.0781,-6.0781,-6.0781,-6.0781,-6.0781,-6.1243,-6.2421,-6.3806,-6.5013,-6.5743,-6.6067,-6.6234,-6.6405,-6.65,-6.6707,-6.7074,-6.7656,-6.8086,-6.8398,-6.8945,-6.9648,-7.0508,-7.0547,-7.0547,-7.0586,-7.0312,-7.0273,-7.043,-7.0859,-7.0937,-7.1094,-7.1328,-7.1719,-7.1992,-7.1992,-7.1992,-7.1992,-7.1992,-7.1992,-7.1992,-7.1992,-7.1992,-7.1992,-7.1914,-7.164,-7.1015,-7.1055,-7.1094,-7.1133,-7.0898,-6.9961,-6.9414,-6.914,-6.9297,-6.9531,-7.0273,-7.0781,-7.0703,-7.0937,-7.1445,-7.1758,-7.164,-7.168,-7.1875,-7.1992,-7.1992,-7.1992,-7.1992,-7.1992,-7.1992,-7.1992,-5.1312,-5.2035,-5.2779,-5.3109,-5.3225,-5.3225,-5.3225,-5.3225,-5.3225,-5.3225,-5.3225,-5.3225,-5.3225,-5.3225,-5.3225,-5.323,-5.3314,-5.34,-5.3543,-5.3994,-5.4674,-5.5406,-5.637,-5.7491,-5.8386,-5.9341,-6.0201,-6.0546,-6.0796,-6.0781,-6.0781,-6.0781,-6.0781,-6.0781,-6.0781,-6.0781,-6.0781,-6.0781,-6.0781,-6.0781,-6.0781,-6.0781,-6.0781,-6.0781,-6.0781,-6.0781,-6.0781,-6.0781,-6.0781,-6.1473,-6.2397,-6.3743,-6.4897,-6.5743,-6.6174,-6.6399,-6.6583,-6.6632,-6.6704,-6.6867,-6.7383,-6.7773,-6.7969,-6.8359,-6.9023,-6.914,-6.918,-6.9258,-6.9297,-6.9453,-6.9414,-6.9531,-6.9961,-7.0195,-7.0469,-7.0859,-7.1328,-7.164,-7.1601,-7.1601,-7.1601,-7.1601,-7.1601,-7.164,-7.168,-7.1719,-7.1758,-7.1758,-7.1484,-7.0547,-7.0039,-6.9961,-6.9961,-6.957,-6.918,-6.9219,-6.8984,-6.8945,-6.9336,-7.043,-7.1172,-7.0937,-7.0937,-7.125,-7.1445,-7.1289,-7.1523,-7.1797,-7.1875,-7.1992,-7.1992,-7.1992,-7.1992,-7.1992,-7.1992,-5.1279,-5.2009,-5.2187,-5.259,-5.3109,-5.3188,-5.3225,-5.3225,-5.3225,-5.3225,-5.3225,-5.3225,-5.3225,-5.3225,-5.3225,-5.3277,-5.3565,-5.3643,-5.3982,-5.4428,-5.4836,-5.5509,-5.6256,-5.7128,-5.8165,-5.9219,-6.0181,-6.0666,-6.0781,-6.0781,-6.0781,-6.0781,-6.0781,-6.0781,-6.0781,-6.0781,-6.0781,-6.0781,-6.0781,-6.0781,-6.0781,-6.0781,-6.0781,-6.0781,-6.0781,-6.0781,-6.0781,-6.0781,-6.0781,-6.132,-6.2444,-6.3753,-6.4787,-6.575,-6.6328,-6.6555,-6.6737,-6.6758,-6.6836,-6.6875,-6.7265,-6.7226,-6.7344,-6.7344,-6.7734,-6.7695,-6.7773,-6.7969,-6.8164,-6.8711,-6.8789,-6.9062,-6.9375,-6.9258,-6.9336,-7.0078,-7.0703,-7.0469,-7.0195,-7.0195,-7.0195,-7.0195,-7.0195,-7.0234,-7.0312,-7.0312,-7.0351,-7.043,-7.0781,-6.9922,-6.9062,-6.9023,-6.8945,-6.8672,-6.8437,-6.9101,-6.9062,-6.8945,-6.918,-7.0312,-7.0976,-7.0976,-7.1055,-7.1133,-7.1015,-7.082,-7.1133,-7.1601,-7.1875,-7.1992,-7.1992,-7.1992,-7.1992,-7.1992,-7.1992]}]]